[[{"header":{"parameterUnit":"m.s-1","parameterCategory":1,"la1":30.6,"la2":29.2853,"lo1":-89.7004,"lo2":-87.6739,"dy":0.0162,"dx":0.0183,"nx":112,"ny":82,"refTime":"2023-06-10T06:00:00:Z","depth":0,"parameterNumber":2,"parameterNumberName":"U-component_of_WINDS"},"data":[0.0,0.0,0.0,0.0,0.0,0.0,0.0,0.0,0.0,0.0,0.0,0.0,0.0,0.0,0.0,0.0,0.0,0.0,0.0,0.0,0.0,0.0,0.0,0.0,0.0,0.0,0.0,0.0,0.0,0.0,0.0,0.0,0.0,0.0,0.0,0.0,0.0,0.0,0.0,0.0,0.0,0.0,0.0,0.0,0.0,0.0,0.0,0.0,0.0,0.0,0.0,0.0,0.0,0.0,0.0,0.0,0.0,0.0,0.0,0.0,0.0,0.0,0.0,0.0,0.0,0.0,0.0,0.0,0.0,0.0,0.0,0.0,0.0,0.0,0.0,0.0,0.0,0.0,0.0,0.0,0.0,0.0,0.0,0.0,0.0,0.0,0.0,0.0,0.0,0.0,0.0,0.8627,0.8603,0.8133,0.7098,0.7258,0.6975,0.5944,0.0,0.0,0.0,0.0,0.0,0.0,0.0,0.0,0.0,0.0,0.0,0.0,0.0,0.0,0.0,0.0,0.0,0.0,0.0,0.0,0.0,0.0,0.0,0.0,0.0,0.0,0.0,0.0,0.0,0.0,0.0,0.0,0.0,0.0,0.0,0.0,0.0,0.0,0.0,0.0,0.0,0.0,0.0,0.0,0.0,0.0,0.0,0.0,0.0,0.0,0.0,0.0,0.0,0.0,0.0,0.0,0.0,0.0,0.0,0.0,0.0,0.0,0.0,0.0,0.0,0.0,0.0,0.0,0.0,0.0,0.0,0.0,0.0,0.0,0.0,0.0,0.0,0.0,0.0,0.0,0.0,0.0,0.0,0.0,0.0,0.0,0.0,0.0,0.0,0.0,0.0,0.0,0.0,0.0,0.0,0.0,0.0,0.0,0.0,0.0,0.0,0.0,0.0,0.0,0.7515,0.7091,0.7338,0.7394,0.7021,0.6449,0.6409,0.716,0.0,0.0,0.0,0.0,0.0,0.0,0.0,0.0,0.0,0.0,0.0,0.0,0.0,0.0,0.0,0.0,0.0,0.0,0.0,0.0,0.0,0.0,0.0,0.0,0.0,0.0,0.0,0.0,0.0,0.0,0.0,0.0,0.0,0.0,0.0,0.0,0.0,0.0,0.0,0.0,0.0,0.0,0.0,0.0,0.0,0.0,0.0,0.0,0.0,0.0,0.0,0.0,0.0,0.0,0.0,0.0,0.0,0.0,0.0,0.0,0.0,0.0,0.0,0.0,0.0,0.0,0.0,0.0,0.0,0.0,0.0,0.0,0.0,0.0,0.0,0.0,0.0,0.0,0.0,0.0,0.0,0.0,0.0,0.0,0.0,0.0,0.0,0.0,0.0,0.0,0.0,0.0,0.0,0.0,0.0,0.0,0.0,0.0,0.0,0.0,0.0,0.0,0.0,0.8392,0.768,0.6554,0.6947,0.705,0.6413,0.5866,0.5913,0.6678,0.7002,0.0,0.0,0.0,0.0,0.0,0.0,0.0,0.0,0.0,0.0,0.0,0.0,0.0,0.0,0.0,0.0,0.0,0.0,0.0,0.0,0.0,0.0,0.0,0.0,0.0,0.0,0.0,0.0,0.0,0.0,0.0,0.0,0.0,0.0,0.0,0.0,0.0,0.0,0.0,0.0,0.0,0.0,0.0,0.0,0.0,0.0,0.0,0.0,0.0,0.0,0.0,0.0,0.0,0.0,0.0,0.0,0.0,0.0,0.0,0.0,0.0,0.0,0.0,0.0,0.0,0.0,0.0,0.0,0.0,0.0,0.0,0.0,0.0,0.0,0.0,0.0,0.0,0.0,0.0,0.0,0.0,0.0,0.0,0.0,0.0,0.0,0.0,0.0,0.0,0.0,0.0,0.0,0.0,0.0,0.0,0.0,0.0,0.0,0.0,0.0,0.0,0.0,0.8289,0.7487,0.6086,0.6506,0.6543,0.5697,0.5518,0.5681,0.6193,0.6474,0.0,0.0,0.0,0.0,0.0,0.0,0.0,0.0,0.0,0.0,0.0,0.0,0.0,0.0,0.0,0.0,0.0,0.0,0.0,0.0,0.0,0.0,0.0,0.0,0.0,0.0,0.0,0.0,0.0,0.0,0.0,0.0,0.0,0.0,0.0,0.0,0.0,0.0,0.0,0.0,0.0,0.0,0.0,0.0,0.0,0.0,0.0,0.0,0.0,0.0,0.0,0.0,0.0,0.0,0.0,0.0,0.0,0.0,0.0,0.0,0.0,0.0,0.0,0.0,0.0,0.0,0.0,0.0,0.0,0.0,0.0,0.0,0.0,0.0,0.0,0.0,0.0,0.0,0.0,0.0,0.0,0.0,0.0,0.0,0.0,0.0,0.0,0.0,0.0,0.0,0.0,0.0,0.0,0.0,0.0,0.0,0.0,0.0,0.0,0.0,0.0,0.0,0.7029,0.6053,0.5259,0.5444,0.5488,0.5176,0.542,0.5881,0.6618,0.7085,0.0,0.0,0.0,0.0,0.0,0.0,0.0,0.0,0.0,0.0,0.0,0.0,0.0,0.0,0.0,0.0,0.0,0.0,0.0,0.0,0.0,0.0,0.0,0.0,0.0,0.0,0.0,0.0,0.0,0.0,0.0,0.0,0.0,0.0,0.0,0.0,0.0,0.0,0.0,0.0,0.0,0.0,0.0,0.0,0.0,0.0,0.0,0.0,0.0,0.0,0.0,0.0,0.0,0.0,0.0,0.0,0.0,0.0,0.0,0.0,0.0,0.0,0.0,0.0,0.0,0.0,0.0,0.0,0.0,0.0,0.0,0.0,0.0,0.0,0.0,0.0,0.0,0.0,0.0,0.0,0.0,0.0,0.0,0.0,0.0,0.0,0.0,0.0,0.0,0.0,0.0,0.0,0.0,0.0,0.0,0.0,0.0,0.0,0.0,0.0,0.0,0.0,0.7382,0.6288,0.0,0.533,0.533,0.4888,0.4811,0.536,0.6687,0.0,0.0,0.0,0.0,0.0,0.0,0.0,0.0,0.0,0.0,0.0,0.0,0.0,0.0,0.0,0.0,0.0,0.0,0.0,0.0,0.0,0.0,0.0,0.0,0.0,0.0,0.0,0.0,0.0,0.0,0.0,0.0,0.0,0.0,0.0,0.0,0.0,0.0,0.0,0.0,0.0,0.0,0.0,0.0,0.0,0.0,0.0,0.0,0.0,0.0,0.0,0.0,0.0,0.0,0.0,0.0,0.0,0.0,0.0,0.0,0.0,0.0,0.0,0.0,0.0,0.0,0.0,0.0,0.0,0.0,0.0,0.0,0.0,0.0,0.0,0.0,0.0,0.0,0.0,0.0,0.0,0.0,0.0,0.0,0.0,0.0,0.0,0.0,0.0,0.0,0.0,0.0,0.0,0.0,0.0,0.0,0.0,0.0,0.0,0.0,0.0,0.0,0.8511,0.7349,0.6168,0.0,0.5272,0.519,0.473,0.4743,0.5357,0.6674,0.0,0.0,0.0,0.0,0.0,0.0,0.0,0.0,0.0,0.0,0.0,0.0,0.0,0.0,0.0,0.0,0.0,0.0,0.0,0.0,0.0,0.0,0.0,0.0,0.0,0.0,0.0,0.0,0.0,0.0,0.0,0.0,0.0,0.0,0.0,0.0,0.0,0.0,0.0,0.0,0.0,0.0,0.0,0.0,0.0,0.0,0.0,0.0,0.0,0.0,0.0,0.0,0.0,0.0,0.0,0.0,0.0,0.0,0.0,0.0,0.0,0.0,0.0,0.0,0.0,0.0,0.0,0.0,0.0,0.0,0.0,0.0,0.0,0.0,0.0,0.0,0.0,0.0,0.0,0.0,0.0,0.0,0.0,0.0,0.0,0.0,0.0,0.0,0.0,0.0,0.0,0.0,0.0,0.0,0.0,0.0,0.0,0.0,0.0,0.0,0.0,0.0,0.8253,0.6651,0.5392,0.5132,0.5108,0.4991,0.471,0.5358,0.604,0.0,0.0,0.0,0.0,0.0,0.0,0.0,0.0,0.0,0.0,0.0,0.0,0.0,0.0,0.0,0.0,0.0,0.0,0.0,0.0,0.0,0.0,0.0,0.0,0.0,0.0,0.0,0.0,0.0,0.0,0.0,0.0,0.0,0.0,0.0,0.0,0.0,0.0,0.0,0.0,0.0,0.0,0.0,0.0,0.0,0.0,0.0,0.0,0.0,0.0,0.0,0.0,0.0,0.0,0.0,0.0,0.0,0.0,0.0,0.0,0.0,0.0,0.0,0.0,0.0,0.0,0.0,0.0,0.0,0.0,0.0,0.0,0.0,0.0,0.0,0.0,0.0,0.0,0.0,0.0,0.0,0.0,0.0,0.0,0.0,0.0,0.0,0.0,0.0,0.0,0.0,0.0,0.0,0.0,0.0,0.0,0.0,0.0,0.0,0.0,0.0,0.0,0.0,0.8152,0.6467,0.519,0.5108,0.5108,0.4908,0.4451,0.4752,0.5269,0.6018,0.0,0.0,0.0,0.0,0.0,0.0,0.0,0.0,0.0,0.0,0.0,0.0,0.0,0.0,0.0,0.0,0.0,0.0,0.0,0.0,0.0,0.0,0.0,0.0,0.0,0.0,0.0,0.0,0.0,0.0,0.0,0.0,0.0,0.0,0.0,0.0,0.0,0.0,0.0,0.0,0.0,0.0,0.0,0.0,0.0,0.0,0.0,0.0,0.0,0.0,0.0,0.0,0.0,0.0,0.0,0.0,0.0,0.0,0.0,0.0,0.0,0.0,0.0,0.0,0.0,0.0,0.0,0.0,0.0,0.0,0.0,0.0,0.0,0.0,0.0,0.0,0.0,0.0,0.0,0.0,0.0,0.0,0.0,0.0,0.0,0.0,0.0,0.0,0.0,0.0,0.0,0.0,0.0,0.0,0.0,0.0,0.0,0.0,0.0,0.0,0.0,0.0,0.805,0.6346,0.5108,0.5108,0.5108,0.4888,0.435,0.4486,0.4871,0.547,0.0,0.0,0.0,0.0,0.0,0.0,0.0,0.0,0.0,0.0,0.0,0.0,0.0,0.0,0.0,0.0,0.0,0.0,0.0,0.0,0.0,0.0,0.0,0.0,0.0,0.0,0.0,0.0,0.0,0.0,0.0,0.0,0.0,0.0,0.0,0.0,0.0,0.0,0.0,0.0,0.0,0.0,0.0,0.0,0.0,0.0,0.0,0.0,0.0,0.0,0.0,0.0,0.0,0.0,0.0,0.0,0.0,0.0,0.0,0.0,0.0,0.0,0.0,0.0,0.0,0.0,0.0,0.0,0.0,0.0,0.0,0.0,0.0,0.0,0.0,0.0,0.0,0.0,0.0,0.0,0.0,0.0,0.0,0.0,0.0,0.0,0.0,0.0,0.0,0.0,0.0,0.0,0.0,0.0,0.0,0.0,0.0,0.0,0.0,0.0,0.0,0.0,0.7928,0.6295,0.5108,0.5108,0.5108,0.4888,0.439,0.4459,0.4706,0.5095,0.0,0.0,0.0,0.0,0.0,0.0,0.0,0.0,0.0,0.0,0.0,0.0,0.0,0.0,0.0,0.0,0.0,0.0,0.0,0.0,0.0,0.0,0.0,0.0,0.0,0.0,0.0,0.0,0.0,0.0,0.0,0.0,0.0,0.0,0.0,0.0,0.0,0.0,0.0,0.0,0.0,0.0,0.0,0.0,0.0,0.0,0.0,0.0,0.0,0.0,0.0,0.0,0.0,0.0,0.0,0.0,0.0,0.0,0.0,0.0,0.6933,0.0,0.0,0.0,0.0,0.0,0.0,0.0,0.0,0.0,0.0,0.0,0.0,0.0,0.0,0.0,0.0,0.0,0.0,0.0,0.0,0.0,0.0,0.0,0.0,0.0,0.0,0.0,0.0,0.0,0.0,0.0,0.0,0.0,0.0,0.0,0.0,0.0,0.0,0.0,0.0,0.0,0.7708,0.6206,0.5108,0.5108,0.5108,0.4971,0.4651,0.4362,0.4513,0.5215,0.6017,0.0,0.0,0.0,0.0,0.0,0.0,0.0,0.0,0.0,0.0,0.0,0.0,0.0,0.0,0.0,0.0,0.0,0.0,0.0,0.0,0.0,0.0,0.0,0.0,0.0,0.0,0.0,0.0,0.0,0.0,0.0,0.0,0.0,0.0,0.0,0.0,0.0,0.0,0.0,0.0,0.0,0.0,0.0,0.0,0.0,0.0,0.0,0.0,0.0,0.0,0.0,0.0,0.0,0.0,0.0,0.0,0.0,0.0,0.0,0.0,0.6733,0.0,0.0,0.0,0.0,0.0,0.0,0.0,0.0,0.0,0.0,0.0,0.0,0.0,0.0,0.0,0.0,0.0,0.0,0.0,0.0,0.0,0.0,0.0,0.0,0.0,0.0,0.0,0.0,0.0,0.0,0.0,0.0,0.0,0.0,0.0,0.0,0.0,0.0,0.0,0.0,0.7443,0.6079,0.5108,0.5108,0.5108,0.5091,0.5043,0.4795,0.4662,0.4725,0.58,0.0,0.0,0.0,0.0,0.0,0.0,0.0,0.0,0.0,0.0,0.0,0.0,0.0,0.0,0.0,0.0,0.0,0.0,0.0,0.0,0.0,0.0,0.0,0.0,0.0,0.0,0.0,0.0,0.0,0.0,0.0,0.0,0.0,0.0,0.0,0.0,0.0,0.0,0.0,0.0,0.0,0.0,0.0,0.0,0.0,0.0,0.0,0.0,0.0,0.0,0.0,0.0,0.0,0.4796,0.467,0.4459,0.4818,0.4558,0.3958,0.6176,0.5538,0.2978,0.3756,0.0,0.0,0.0,0.0,0.0,0.0,0.0,0.0,0.0,0.0,0.0,0.0,0.0,0.0,0.0,0.0,0.0,0.0,0.0,0.0,0.0,0.0,0.0,0.0,0.5111,0.5052,0.4923,0.0,0.0,0.0,0.0,0.0,0.0,0.0,0.0,0.0,0.0,0.0,0.7195,0.5937,0.5108,0.5108,0.5108,0.5202,0.5449,0.5314,0.5009,0.446,0.5668,0.6622,0.0,0.0,0.0,0.0,0.0,0.0,0.0,0.0,0.0,0.0,0.0,0.0,0.0,0.0,0.0,0.0,0.0,0.0,0.0,0.0,0.0,0.0,0.0,0.0,0.0,0.0,0.0,0.0,0.0,0.0,0.0,0.0,0.748,0.6386,0.0,0.0,0.0,0.0,0.0,0.0,0.0,0.0,0.0,0.0,0.0,0.0,0.0,0.315,0.6249,0.1914,0.1159,0.4016,0.2322,0.1495,0.1468,0.1631,0.138,0.0855,0.2278,0.0,0.1819,0.1936,0.0,0.0,0.0,0.0,0.0,0.0,0.0,0.0,0.0,0.0,0.0,0.0,0.0,0.0,0.0,0.0,0.0,0.0,0.0,0.0,0.0,0.0,0.5512,0.5332,0.496,0.477,0.0,0.528,0.5292,0.5159,0.5722,0.0,0.0,0.0,0.0,0.0,0.0,0.0,0.6937,0.586,0.5108,0.5108,0.5108,0.5288,0.572,0.551,0.549,0.5733,0.5672,0.602,0.6889,0.7216,0.0,0.0,0.0,0.0,0.0,0.0,0.0,0.0,0.0,0.0,0.0,0.0,0.0,0.0,0.0,0.0,0.0,0.0,0.0,0.0,0.0,0.0,0.0,0.0,0.0,0.0,0.0,0.0,0.0,1.0944,0.7919,0.5943,0.8236,0.8369,0.0,0.0,0.0,0.0,0.0,0.0,0.0,0.0,0.0,0.4492,0.2257,0.1711,0.3116,0.0553,-0.038,0.0348,-0.0345,-0.0583,-0.0392,-0.0152,-0.0428,-0.113,-0.0566,-0.0497,-0.0778,-0.0253,-0.1183,-0.2673,0.0,0.0,0.0,0.0,0.2186,0.0161,-0.0396,-0.0316,0.0,-0.0293,0.0,0.0,0.0,0.0,0.0,0.0,0.0,0.0,0.0,0.0,0.4141,0.45,0.421,0.4073,0.4759,0.4887,0.4898,0.0,0.5435,0.581,0.5732,0.0,0.0,0.0,0.0,0.6616,0.6675,0.5975,0.5573,0.58,0.5827,0.603,0.6484,0.6202,0.6179,0.6606,0.649,0.6552,0.6892,0.7322,0.768,0.0,0.0,0.0,0.0,0.0,0.0,0.0,0.0,0.0,0.0,0.0,0.0,0.0,0.0,0.0,0.0,0.0,0.0,0.0,0.0,0.0,0.0,0.0,0.0,0.0,0.0,0.0,0.0,1.0154,0.6728,0.4851,0.6552,0.6032,0.0,0.0,0.0,0.0,0.0,0.0,0.4491,0.1699,0.0858,0.2555,0.0424,-0.079,-0.0861,-0.1184,-0.1843,-0.2887,-0.2365,-0.1983,-0.1726,-0.144,-0.1663,-0.23,-0.2369,-0.2579,-0.2773,-0.2404,-0.2597,-0.3105,-0.2692,-0.2171,-0.1412,0.0632,-0.0311,-0.2657,-0.3111,-0.2953,-0.2546,-0.2595,-0.2372,-0.1665,0.0516,0.0,0.0,0.0,0.0,0.2484,0.3279,0.3249,0.3218,0.3894,0.3761,0.3667,0.435,0.4483,0.456,0.0,0.5383,0.5593,0.5305,0.0,0.0,0.0,0.0,0.634,0.635,0.6026,0.5907,0.6207,0.6333,0.6597,0.7061,0.6833,0.6822,0.7218,0.7246,0.7212,0.7093,0.7476,0.7774,0.7919,0.0,0.0,0.0,0.0,0.0,0.0,0.0,0.0,0.0,0.0,0.0,0.0,0.0,0.0,0.0,0.0,0.0,0.0,0.0,0.0,0.0,0.0,0.0,0.0,0.0,0.0,0.0,0.0,0.0,0.1415,-0.1856,0.0,0.0,0.0,0.0,-0.1518,0.4644,0.4515,-0.4972,-0.4714,-0.3654,-0.2285,-0.4324,-0.5242,-0.4815,-0.4328,-0.4148,-0.4189,-0.315,-0.2641,-0.2648,-0.2474,-0.2445,-0.2523,-0.2905,-0.3058,-0.3157,-0.4324,-0.4842,-0.4811,-0.4228,-0.4762,-0.5505,-0.2291,-0.2064,-0.3117,-0.1597,-0.1036,-0.1004,-0.1014,0.0665,0.1822,-0.2728,-0.0763,0.0,0.0,-0.1303,0.1347,0.1735,0.2867,0.3978,0.414,0.407,0.4014,0.418,0.4133,0.4288,0.0,0.5617,0.5777,0.5457,0.0,0.6391,0.6061,0.5964,0.592,0.5932,0.5839,0.5808,0.5833,0.6178,0.6597,0.7061,0.7073,0.7248,0.7637,0.7666,0.7666,0.7661,0.77,0.7715,0.7729,0.7809,0.0,0.0,0.0,0.0,0.0,0.0,0.0,0.0,0.0,0.0,0.0,0.0,0.0,0.0,0.0,0.0,0.0,0.0,0.0,0.0,0.0,0.0,0.0,0.0,0.0,0.0,0.0,0.0,-0.3359,-0.3475,0.0,-0.7627,-0.2172,-0.0205,-0.4403,-0.3675,-0.3529,-0.4665,-0.5415,-0.5162,-0.3721,-0.4779,-0.55,-0.5857,-0.6018,-0.6114,-0.6177,-0.6126,-0.5579,-0.4658,-0.4993,-0.4878,-0.4435,-0.4562,-0.4503,-0.4309,-0.5202,-0.546,-0.5317,-0.543,-0.6071,-0.6748,-0.4844,-0.4081,-0.3917,-0.3079,-0.2221,-0.1586,-0.234,-0.1796,-0.1164,-0.2791,-0.1165,0.0977,-0.0278,0.0284,0.142,0.2152,0.2592,0.293,0.3278,0.34,0.3527,0.3849,0.3825,0.3926,0.4497,0.4832,0.5106,0.5317,0.5564,0.568,0.5569,0.5529,0.567,0.6085,0.5973,0.6256,0.7235,0.7039,0.7154,0.7886,0.7666,0.754,0.7686,0.77,0.77,0.77,0.77,0.77,0.77,0.6103,0.5081,0.0,0.0,0.0,0.0,0.0,0.0,0.0,0.0,0.0,0.0,0.0,0.0,0.0,0.0,0.0,0.0,0.0,0.0,0.0,0.0,0.0,0.0,0.0,0.0,0.0,0.0,-0.3819,-0.6816,-0.7111,-0.8495,-1.2204,-0.8154,-0.6852,-1.0513,-1.1074,-1.0114,-0.7524,-0.8004,-0.7678,-0.6187,-0.6535,-0.714,-0.7857,-0.7564,-0.7613,-0.796,-0.7861,-0.7276,-0.6265,-0.6384,-0.6196,-0.5745,-0.5955,-0.5859,-0.5507,-0.6205,-0.65,-0.6529,-0.633,-0.656,-0.6854,-0.554,-0.4641,-0.4037,-0.3567,-0.332,-0.3287,-0.3823,-0.4125,-0.4127,-0.3583,-0.2289,-0.0889,-0.0035,0.0378,0.0785,0.1674,0.2063,0.2295,0.2689,0.3051,0.3407,0.3582,0.3493,0.3488,0.398,0.4453,0.4787,0.4866,0.5097,0.5225,0.5024,0.5041,0.5279,0.5769,0.59,0.6425,0.7621,0.7583,0.7771,0.8527,0.8117,0.7912,0.8138,0.7925,0.7966,0.8369,0.8016,0.7788,0.7765,0.5783,0.5628,0.7437,0.0,0.0,0.0,0.0,0.0,0.0,0.0,0.0,0.0,0.0,0.0,0.0,0.0,0.0,0.0,0.0,0.0,0.0,0.0,0.0,0.0,0.0,0.0,-0.3989,-0.6961,-0.8951,-0.8981,-1.3272,-1.5737,-1.4428,-1.4513,-1.6192,-1.9917,-1.661,-1.4403,-1.4337,-1.2926,-1.1369,-0.9744,-0.9994,-1.0392,-1.0862,-0.904,-0.8619,-0.9514,-0.8139,-0.7466,-0.74,-0.6624,-0.6312,-0.6361,-0.6996,-0.7071,-0.6741,-0.7422,-0.8063,-0.8492,-0.7045,-0.6405,-0.6168,-0.4556,-0.3856,-0.3602,-0.3064,-0.4288,-0.598,-0.5381,-0.5942,-0.6658,-0.5471,-0.4426,-0.3409,-0.2347,-0.1534,-0.0768,0.0115,0.1234,0.2181,0.2375,0.3115,0.3688,0.3363,0.3088,0.3074,0.3681,0.4489,0.4862,0.4138,0.469,0.5071,0.4517,0.4591,0.0,0.4947,0.5613,0.6294,0.6827,0.7678,0.838,0.8931,0.8381,0.8306,0.8955,0.8377,0.854,0.9655,0.8635,0.802,0.797,0.7062,0.8373,1.2043,0.0,0.0,0.0,0.0,0.0,0.0,0.0,0.0,0.0,0.0,0.0,0.0,0.0,0.0,0.0,0.0,0.0,0.0,0.0,0.0,0.0,0.0,-0.6119,-0.7028,-1.006,-1.2989,-1.5042,-1.6467,-1.7075,-1.6492,-1.6289,-1.7248,-1.9794,-1.8296,-1.7197,-1.7029,-1.5566,-1.315,-0.9576,-1.0916,-1.1091,-0.9835,-1.1027,-1.1015,-0.9839,-0.9555,-0.9119,-0.8465,-0.8355,-0.8647,-0.9249,-0.9437,-0.9334,-0.9015,-0.9207,-0.9379,-0.9446,-0.8338,-0.8508,-0.9274,-0.8509,-0.798,-0.7691,-0.7409,-0.8336,-0.9541,-0.9305,-0.9734,-1.0018,-0.841,-0.7282,-0.6201,-0.4127,-0.3283,-0.2626,-0.1092,-0.0039,0.0685,0.1119,0.2117,0.2977,0.2884,0.3022,0.3239,0.3401,0.397,0.4414,0.4316,0.4406,0.4644,0.4992,0.4999,0.0,0.6043,0.6172,0.6376,0.693,0.744,0.7893,0.825,0.8534,0.88,0.8975,0.882,0.9028,0.9682,0.9396,0.9251,0.9288,1.0134,1.1266,0.0,0.0,0.0,0.0,0.0,0.0,0.0,0.0,0.0,0.0,0.0,0.0,0.0,0.0,0.0,0.0,0.0,0.0,0.0,0.0,0.0,0.0,-0.653,-0.9802,-1.1721,-1.3514,-1.5619,-1.8283,-1.8388,-1.8219,-1.8137,-1.7959,-1.8562,-2.0273,-1.9758,-1.9352,-1.9322,-1.7912,-1.5428,-1.1825,-1.262,-1.2397,-1.0884,-1.2418,-1.2822,-1.2093,-1.2047,-1.1793,-1.1295,-1.1046,-1.1214,-1.1686,-1.1746,-1.1407,-1.0817,-1.0858,-1.0948,0.0,0.0,0.0,0.0,0.0,-0.949,-0.9938,-0.984,-1.1049,-1.2549,-1.232,-1.2739,-1.307,-1.1622,-1.0338,-0.8995,-0.7183,-0.6022,-0.4904,-0.3232,-0.2085,-0.1158,-0.0508,0.0652,0.1642,0.191,0.2279,0.2686,0.2996,0.347,0.0,0.4049,0.417,0.4333,0.4539,0.4802,0.5184,0.5793,0.6127,0.6588,0.7351,0.7801,0.8316,0.8927,0.9052,0.0,0.0,0.0,0.9347,0.9798,1.0358,0.0,0.0,0.0,1.2825,1.363,0.0,0.0,0.0,1.4639,1.4922,0.0,0.0,0.0,0.0,0.0,0.0,0.0,0.0,0.0,0.0,0.0,0.0,0.0,0.0,0.0,0.0,-1.026,-1.334,-1.6834,-1.6958,-1.7429,-1.9462,-1.9327,-1.9126,-1.9265,-1.9342,-1.9844,-2.1013,-2.0974,-2.0944,-2.1058,0.0,0.0,0.0,0.0,-1.4193,-1.32,-1.3776,-1.4411,-1.5166,-1.4862,-1.4703,-1.4682,-1.395,-1.3678,-1.3836,-1.39,-1.3407,-1.2569,-1.2559,-1.2626,-1.2572,-1.0683,-0.9868,-0.974,-0.9297,-1.0113,-1.1421,-1.157,0.0,0.0,-1.4709,-1.5162,-1.5656,-1.4666,-1.3265,-1.1803,-1.0833,-0.9284,-0.7583,-0.6132,-0.4682,-0.3385,-0.2406,-0.1197,-0.0089,0.0577,0.1118,0.1695,0.2385,0.2942,0.3375,0.3466,0.3933,0.4157,0.3752,0.4287,0.4813,0.5035,0.5862,0.6816,0.7796,0.0,0.0,1.0013,0.9666,0.9652,1.0264,0.9853,0.9794,1.0254,1.1542,1.2082,1.1704,1.2525,1.3525,1.4719,1.4899,1.5703,1.7094,1.536,1.5439,0.0,0.0,0.0,0.0,0.0,0.0,0.0,0.0,0.0,0.0,0.0,0.0,0.0,0.0,0.0,-1.1148,-1.4215,-1.7053,-1.8642,-1.9286,-1.9618,-1.97,-1.957,-1.9414,-1.924,-1.9563,-2.0172,-2.1111,-2.1728,-2.1899,-2.1503,-2.1391,-1.9888,-1.6759,-1.7262,-1.6761,-1.5095,-1.6655,-1.7021,-1.6108,0.0,0.0,-1.5395,-1.4488,-1.4693,-1.5727,-1.5325,-1.5272,-1.544,-1.4581,-1.427,-1.4244,-1.386,-1.3932,-1.4289,-1.4612,-1.4931,-1.5332,-1.6142,-1.679,-1.7193,-1.7124,-1.7217,-1.7107,-1.5748,-1.4974,0.0,-1.3049,-1.1995,-1.0926,-0.9383,-0.7704,-0.6071,-0.4722,-0.303,-0.1557,-0.0713,0.0264,0.1097,0.1239,0.2119,0.2826,0.2849,0.3227,0.3695,0.4161,0.4674,0.5229,0.5859,0.6492,0.6962,0.716,0.8104,0.8766,0.8896,0.9636,1.016,1.0283,1.094,1.1562,1.2091,1.314,1.3649,1.3582,1.4163,1.4407,1.4244,1.5537,1.6107,1.6002,1.6048,1.6925,0.0,0.0,0.0,0.0,0.0,0.0,0.0,0.0,0.0,0.0,0.0,-0.9143,0.0,0.0,-1.4065,-1.5006,-1.7372,-1.9378,-2.0229,-2.0987,-2.1063,-2.0027,-1.9994,-2.0003,-1.9858,-2.0057,-2.0778,-2.2155,-2.2333,-2.2523,-2.2787,-2.2509,-2.1201,-1.8668,-1.9609,-1.9218,-1.732,-1.8662,-1.9023,-1.8347,-1.7878,-1.7655,-1.7647,-1.6884,-1.6955,-1.7585,-1.7035,-1.678,-1.6671,-1.5885,-1.557,-1.5622,-1.6201,-1.6258,-1.5997,-1.6551,-1.7126,-1.7698,-1.8465,-1.8862,-1.9082,-1.9327,-1.9383,-1.9245,-1.852,-1.7668,-1.6751,-1.592,-1.4609,-1.3162,-1.1616,-1.0131,-0.8532,-0.6729,-0.5362,-0.4083,-0.2538,-0.1499,-0.0754,-0.0227,0.0915,0.1798,0.1695,0.2467,0.3291,0.3888,0.4444,0.5005,0.5682,0.6258,0.6819,0.7377,0.8192,0.881,0.9031,0.9804,1.0283,1.0283,1.125,1.2035,1.2563,1.3295,1.403,1.489,1.4846,1.5093,1.5685,1.6164,1.6719,1.7313,1.7523,1.8036,0.0,0.0,0.0,0.0,0.0,0.0,0.0,0.0,-0.7999,-1.0091,-1.2034,-1.3582,-1.4475,-1.5945,-1.7379,-1.8343,-1.9822,-2.1004,-2.1442,-2.2167,-2.2078,-2.0607,-2.0613,-2.0758,-2.0758,-2.0758,-2.1382,-2.2885,-2.274,-2.2955,-2.3837,-2.3467,-2.2518,-2.0989,-2.1817,-2.1475,-1.9775,-2.0384,-2.0636,-2.0518,-2.0227,-1.998,-1.9811,-1.9376,-1.9148,-1.9058,-1.8754,-1.8142,-1.7362,-1.7157,-1.6941,-1.6844,-1.784,-1.7673,-1.695,-1.7565,-1.845,-1.9383,-1.9818,-2.0268,-2.0708,-2.1086,-2.122,-2.1188,-2.1134,-2.0133,-1.8993,-1.8562,-1.7153,-1.5408,-1.3953,-1.2531,-1.1004,-0.8972,-0.7895,-0.6745,-0.4678,-0.3691,-0.2906,-0.189,-0.0524,0.0434,0.0348,0.1501,0.2703,0.3376,0.4057,0.471,0.5288,0.5853,0.6661,0.7795,0.8338,0.8931,0.9659,1.0243,1.0532,1.0532,1.1407,1.2201,1.285,1.3304,1.4169,1.5619,1.5372,1.5839,1.709,1.6994,1.7654,1.9059,1.912,1.9101,-0.4446,-0.4007,-0.3987,-0.4929,-0.5118,-0.6119,0.0,0.0,-1.2247,-1.4178,-1.6247,-1.7592,-1.7262,-1.8803,-2.0135,-2.0299,-2.1308,-2.2069,-2.1952,-2.2608,-2.2761,-2.1734,-2.1648,-2.1639,-2.1639,-2.1639,-2.1738,-2.1956,-2.2734,-2.3281,-2.3465,-2.4294,-2.4502,-2.3944,-2.3764,-2.3281,-2.2464,-2.2268,-2.191,-2.1384,-2.1389,-2.0967,-2.0212,-2.017,-1.9949,-1.964,-2.0176,-1.951,-1.8094,-1.911,-1.8885,-1.7973,-1.8566,-1.8727,-1.8712,-1.9634,-2.0291,-2.0813,-2.122,-2.1622,-2.191,-2.1975,-2.1975,-2.1918,-2.1543,-2.1101,-2.0635,-2.0182,-1.9577,-1.8796,-1.7697,-1.5745,-1.3682,-1.2054,-1.0393,-0.8746,-0.712,-0.5813,-0.4724,-0.4002,-0.2329,-0.1045,-0.1099,0.005,0.1396,0.278,0.4058,0.4974,0.5402,0.601,0.6771,0.7775,0.8171,0.8937,1.0361,1.106,1.1459,1.1459,1.1947,1.2743,1.3888,1.4374,1.4894,1.5508,1.6487,1.6803,1.6432,1.8324,1.9328,1.9542,2.0348,2.0531,-0.5561,-0.5329,-0.5447,0.0,-0.753,-0.9085,-1.2333,-1.4529,-1.6302,-1.7916,-1.9645,-2.0793,-2.0401,-2.1025,-2.16,0.0,-2.2114,-2.2574,-2.267,-2.3164,-2.3247,-2.2584,-2.2905,-2.3006,-2.2538,-2.2501,-2.2685,-2.3153,-2.3688,-2.3957,-2.3877,-2.4624,-2.4931,-2.4634,-2.4456,-2.4218,-2.3884,-2.3088,-2.2468,-2.2029,-2.1695,-2.1258,-2.0731,-2.1159,-2.1338,-2.1254,-2.1295,-2.0485,-1.9229,-2.012,-1.9964,-1.9187,-1.9383,-1.996,-2.0658,-2.0385,-2.0408,-2.0707,-2.1584,-2.1992,-2.2171,-2.26,-2.2737,-2.2677,-2.23,-2.1947,-2.1524,-2.087,-2.0189,-1.9295,-1.7884,-1.6587,-1.5052,-1.2784,-1.1675,-1.0476,-0.8223,-0.7301,-0.6625,-0.567,-0.4462,-0.351,-0.317,-0.1903,-0.0476,0.1012,0.2675,0.4228,0.5608,0.6023,0.6675,0.8012,0.8234,0.867,0.9642,1.052,1.1016,1.1016,1.2165,1.3202,1.4051,1.4595,1.5385,1.6547,1.6666,1.7078,1.7801,1.8922,1.9657,2.0016,2.1132,2.1546,-0.6168,-0.6389,0.0,-0.8094,-0.9818,-1.1892,-1.4283,-1.681,-1.9056,-2.0311,-2.1697,-2.257,-2.2174,-2.2106,-2.2069,-2.1953,-2.22,-2.2521,-2.2847,-2.3203,-2.3359,-2.3212,-2.3698,-2.3874,-2.3373,-2.3336,-2.3575,-2.4153,-2.433,-2.4339,-2.4218,-2.4681,-2.4885,-2.4806,-2.4791,-2.4764,-2.4709,-2.3843,-2.3232,-2.2926,-2.2339,-2.2012,-2.1875,-2.248,-2.2791,-2.2947,-2.2773,-2.1916,-2.0752,-2.1604,-2.1398,-2.0527,-2.0603,-2.1419,-2.24,-2.1569,-2.1151,-2.1116,-2.2062,-2.246,-2.2678,-2.3428,-2.3524,-2.3327,-2.3325,-2.2808,-2.2124,-2.1472,-2.0668,-1.9697,-1.8369,-1.7437,-1.6258,-1.3939,-1.317,-1.2219,-0.966,-0.8952,-0.8487,-0.7269,-0.6414,-0.572,-0.5118,-0.38,-0.2367,-0.1106,0.0798,0.2925,0.5164,0.5905,0.6749,0.8187,0.8493,0.8796,0.9241,1.0307,1.0929,1.0929,1.2438,1.3624,1.426,1.4809,1.572,1.698,1.6858,1.7472,1.8834,1.9507,2.012,2.0667,2.1757,2.2262,-0.6197,0.0,-0.8259,-0.9892,-1.2034,-1.4267,-1.6405,-1.8332,-1.9907,-2.0796,-2.1859,-2.2414,-2.1752,-2.162,-2.1491,-2.1095,-2.1368,-2.1744,-2.2096,-2.2486,-2.2963,-2.3604,-2.3705,-2.3828,0.0,-2.4162,-2.4171,-2.4199,-2.4218,-2.4218,-2.4199,-2.4401,-2.4598,-2.4785,-2.4918,-2.4996,-2.4988,-2.4762,-2.4513,-2.4245,-2.3767,-2.3693,-2.4014,-2.424,-2.4338,-2.4368,-2.4935,-2.4204,-2.2735,-2.4108,-2.3642,-2.2074,-2.2385,-2.3011,-2.374,-2.3702,-2.3232,-2.2678,-2.3036,-2.3392,-2.3788,-2.4581,-2.4333,-2.3837,-2.4599,-2.3824,-2.2609,-2.2171,-2.1524,-2.0821,-2.034,-1.9075,-1.7651,-1.6475,-1.5321,-1.3998,-1.2094,-1.1189,-1.0311,-0.8916,-0.8019,-0.734,-0.6632,-0.5307,-0.4084,-0.3294,-0.1323,0.1038,0.3693,0.5625,0.7173,0.8263,0.8969,0.9478,0.9743,1.0977,1.1778,1.1778,1.3042,1.4059,1.4681,1.5241,1.5831,1.633,1.7455,1.825,1.8627,2.0189,2.1165,2.1582,2.2334,2.2686,-0.7361,-0.833,-0.9534,-1.1118,-1.3018,-1.5151,-1.7537,-1.95,-2.1001,-2.1569,-2.1029,-2.0269,-1.9536,-1.7932,-1.7143,-1.8529,-1.8934,-1.9783,-2.1806,-2.2207,-2.2375,-2.2544,-2.3034,0.0,0.0,0.0,0.0,-2.4199,-2.4199,-2.4199,-2.4199,-2.4393,-2.4536,-2.4601,-2.4857,-2.5003,-2.4999,-2.4933,-2.4761,-2.4496,-2.4024,-2.4113,-2.4697,-2.4992,-2.5363,-2.5809,-2.6242,-2.585,-2.4948,-2.588,-2.5649,-2.4711,-2.4814,-2.5197,-2.5694,-2.5465,-2.5409,-2.5383,-2.5181,-2.5207,-2.5375,-2.587,-2.5664,-2.5229,-2.5281,-2.4444,-2.3366,-2.2689,-2.1966,-2.1165,-2.0112,-1.9447,-1.8619,-1.678,-1.5755,-1.4722,-1.285,-1.1935,-1.1186,-1.0285,-0.9919,-0.9345,-0.8209,-0.7558,-0.634,-0.3673,-0.0164,0.2688,0.4085,0.5944,0.7289,0.7639,0.8307,0.8752,0.8853,0.984,1.0665,1.1116,1.2385,1.3601,1.4658,1.5276,1.6181,1.7489,1.7877,1.8498,1.9316,2.0448,2.1063,2.1236,2.2469,2.3021,-0.8229,-0.9444,-1.0718,-1.2384,-1.4163,-1.5979,-1.803,-1.9693,-2.0644,-2.0167,-1.9469,-1.8435,-1.6896,-1.5248,-1.4731,-1.6627,-1.7119,-1.8137,-2.0776,-2.1371,-2.1686,-2.2001,-2.2616,-2.3053,0.0,0.0,0.0,-2.417,-2.4199,-2.4228,-2.4294,-2.4357,-2.4486,-2.4663,-2.4841,-2.5136,-2.5566,-2.5603,-2.5652,-2.5736,-2.5359,-2.5586,-2.6324,-2.6204,-2.6719,-2.7701,-2.7598,-2.7295,-2.6881,-2.7565,-2.7364,-2.662,-2.6735,-2.7138,-2.7616,-2.7214,-2.7409,-2.7735,-2.6838,-2.6539,-2.6595,-2.7006,-2.6762,-2.6317,-2.633,-2.5267,-2.3981,-2.3451,-2.2365,-2.1197,-2.0309,-1.9876,-1.9133,-1.7144,-1.6377,-1.5568,-1.3569,-1.2831,-1.2253,-1.1312,-1.1166,-1.0704,-0.9315,-0.8692,-0.7278,-0.4175,-0.1038,0.1695,0.3746,0.5354,0.6465,0.7004,0.7479,0.7844,0.8107,0.892,0.9692,1.0415,1.1935,1.3248,1.4302,1.5168,1.6232,1.7504,1.79,1.8521,1.9369,2.0475,2.1055,2.1244,2.2574,2.3189,-0.884,-1.0394,-1.1724,-1.3578,-1.5265,-1.6732,-1.792,-1.8869,-1.896,-1.6985,-1.7141,-1.6756,0.0,0.0,-1.4089,-1.5453,-1.5964,-1.6992,-1.9198,-2.017,-2.1052,0.0,0.0,0.0,0.0,0.0,0.0,-2.4241,0.0,-2.433,-2.4534,-2.4414,-2.4552,-2.5022,-2.4987,-2.5485,-2.6639,-2.6716,-2.7118,-2.7813,-2.762,-2.7931,-2.8646,-2.7797,-2.8309,-2.9836,-2.9033,-2.8593,-2.8469,-2.9176,-2.8822,-2.7879,-2.8196,-2.8794,-2.9411,-2.889,-2.9182,-2.9618,-2.8011,-2.7453,-2.7513,-2.8016,-2.7662,-2.7112,-2.7672,-2.6262,-2.4486,-2.4481,-2.2881,-2.1143,-2.1079,-2.0426,-1.9369,-1.7672,-1.7254,-1.6619,-1.4429,-1.3862,-1.3426,-1.2155,-1.1859,-1.1366,-1.0064,-0.8662,-0.6999,-0.4863,-0.3854,-0.1804,0.2575,0.3858,0.492,0.631,0.6534,0.6858,0.756,0.8274,0.8954,0.9707,1.1585,1.2999,1.3653,1.4875,1.5864,1.6515,1.7544,1.8306,1.8792,2.0252,2.1181,2.159,2.2695,2.3189,-1.02,-1.1447,-1.2535,-1.3397,-1.4355,-1.5525,-1.6852,-1.688,-1.6579,-1.6423,-1.4324,-1.2307,0.0,0.0,0.0,-1.3454,-1.5373,0.0,-2.0416,-2.1409,0.0,-2.3192,0.0,-2.3814,-2.4724,-2.4866,0.0,0.0,-2.5018,-2.485,-2.515,-2.582,-2.5993,-2.5533,-2.6413,-2.7029,-2.7335,-2.7514,-2.7737,-2.8018,-2.7972,-2.8084,-2.8344,-2.8748,-2.9152,-2.955,-2.9931,-3.0059,-3.0025,-3.0221,-3.0125,-2.9867,-2.9949,-3.0104,-3.0279,-3.0133,-3.019,-3.0259,-2.9823,-2.9419,-2.911,-2.9248,-2.8942,-2.8533,-2.8537,-2.7141,-2.5541,-2.569,-2.4505,-2.2946,-2.2037,-2.1651,-2.0981,-1.8943,-1.7839,-1.6924,-1.5929,-1.4704,-1.3721,-1.3379,-1.2497,-1.1512,-1.0712,-0.9367,-0.7894,-0.6298,-0.4971,-0.2921,0.0387,0.2424,0.3963,0.4863,0.5919,0.6696,0.6858,0.7551,0.8231,0.895,1.0434,1.2024,1.3648,1.4481,1.5626,1.707,1.7347,1.798,1.8864,1.9885,2.066,2.1181,2.2565,2.3189,-1.0784,-1.1907,-1.29,-1.3699,-1.4161,-1.4593,-1.534,-1.5174,-1.4489,-1.3109,-1.1656,0.0,-0.9914,0.0,0.0,0.0,0.0,0.0,-1.9471,-2.079,-2.1861,0.0,-2.3395,0.0,-2.5154,-2.5149,-2.554,0.0,-2.6112,-2.5774,-2.6039,-2.66,-2.6781,-2.65,-2.7205,-2.7819,-2.8245,-2.8751,-2.9062,-2.9189,-2.878,-2.8862,-2.9369,-2.907,-2.9339,-3.0066,0.0,-3.0382,-3.0733,-3.0733,-3.0733,-3.0733,-3.0733,-3.0733,-3.0723,-3.0671,-3.0618,-3.0581,-3.0513,-3.0293,-3.0032,-2.9883,-2.968,-2.9447,-2.914,-2.7708,-2.6245,-2.6579,-2.5185,-2.3516,-2.3185,-2.2668,-2.18,-2.0109,-1.8849,-1.7716,-1.6642,-1.5463,-1.4451,-1.3909,-1.2696,-1.1665,-1.1316,-1.0336,-0.9148,-0.7741,-0.6541,-0.4839,-0.2266,0.0276,0.2261,0.3317,0.4484,0.5431,0.6036,0.6799,0.7495,0.8227,0.9883,1.139,1.2778,1.4007,1.527,1.6532,1.7057,1.7706,1.8535,1.966,2.0479,2.1031,2.2504,2.3189,-1.1038,-1.2091,-1.2885,-1.4026,-1.4059,-1.3804,-1.357,-1.357,-1.2601,-0.9105,0.0,-0.985,-0.9123,-0.9261,-1.0499,-1.3648,0.0,-1.5751,-1.7943,-1.9595,-2.1024,-2.2279,-2.3383,-2.4526,-2.5807,-2.5395,-2.5859,-2.7884,-2.7296,-2.6884,-2.7008,-2.7149,-2.7428,-2.7822,-2.7914,-2.8399,-2.9256,-3.0025,-3.0472,-3.0596,-2.9776,-2.9917,-3.085,-2.927,-2.9408,-3.0859,-3.0098,-3.0195,-3.0898,-3.0898,-3.0898,-3.0898,-3.0898,-3.0898,-3.0889,-3.0769,-3.0718,-3.0684,-3.0564,-3.0516,-3.0453,-3.0142,-3.0052,-2.9979,-2.9589,-2.8218,-2.6875,-2.7369,-2.5676,-2.3864,-2.4407,-2.3687,-2.2496,-2.1234,-2.0184,-1.8996,-1.7336,-1.6374,-1.543,-1.4055,-1.2841,-1.2012,-1.181,-1.1312,-1.0442,-0.8936,-0.814,-0.6956,-0.4807,-0.1993,0.0389,0.1772,0.2778,0.3838,0.5101,0.6036,0.6858,0.7506,0.9529,1.0998,1.1653,1.3564,1.4909,1.5588,1.6672,1.751,1.8099,1.9459,2.0397,2.1023,2.246,2.3174,-1.1969,-1.222,-1.2476,-1.2911,-1.3172,-1.3018,-1.1776,-1.1484,0.0,0.0,-0.8044,-0.801,-0.8779,-0.9121,0.0,-1.3586,0.0,0.0,0.0,0.0,-2.211,0.0,0.0,0.0,0.0,0.0,0.0,0.0,0.0,-2.7973,-2.7647,-2.8482,-2.9148,-2.9546,-2.9787,-3.0002,-3.0179,-3.0311,-3.0472,-3.0606,-3.0422,-3.0548,-3.0889,-3.0566,-3.0595,-3.0889,-3.0742,0.0,-3.0898,-3.0898,-3.0898,-3.0898,-3.0898,-3.0898,-3.0898,-3.0868,-3.0803,-3.0687,-3.0607,-3.0552,-3.0481,-3.0364,-3.0333,-3.0276,-2.9979,-2.908,-2.8211,-2.8472,-2.7553,-2.6322,-2.551,-2.5139,-2.4489,-2.2556,-2.1659,-2.1027,-2.0298,-1.8525,-1.6459,-1.4249,-1.3621,-1.3082,-1.2007,-1.1715,-1.0939,-0.8989,-0.857,-0.7717,-0.5584,-0.271,-0.0555,0.0278,0.2169,0.3454,0.3673,0.5485,0.6642,0.6804,0.8803,1.0501,1.1653,1.3117,1.4413,1.5582,1.6269,1.7111,1.8099,1.9068,2.0039,2.1023,2.2235,2.2947,-1.1552,-1.1885,-1.2413,-1.2811,-1.2914,-1.236,-1.0394,0.0,0.0,0.0,-0.7448,-0.7975,-0.9071,0.0,0.0,0.0,0.0,0.0,0.0,0.0,0.0,0.0,0.0,0.0,0.0,0.0,0.0,0.0,0.0,-2.8639,-2.8443,-2.9571,-3.0374,-3.0666,-3.1341,-3.1698,-3.1698,-3.1698,-3.1744,-3.1854,-3.1923,-3.2021,-3.2137,-3.1747,-3.1582,-3.1553,-3.1103,-3.0898,-3.0898,-3.0898,-3.0898,-3.0898,-3.0898,-3.0898,-3.0898,-3.0898,-3.0858,-3.078,-3.0653,-3.0581,-3.0537,-3.0429,-3.0398,-3.0355,-3.0075,-2.9364,-2.8724,-2.9028,-2.8296,-2.736,-2.7092,-2.6683,-2.5945,-2.4371,-2.2849,-2.1379,-2.021,-1.8621,-1.6932,-1.547,-1.4675,-1.4039,-1.3401,-1.3024,-1.2225,-1.0499,-0.9688,-0.8449,-0.6355,-0.4144,-0.2214,-0.0721,0.111,0.2502,0.3231,0.532,0.6588,0.6588,0.86,1.0206,1.1186,1.2826,1.413,1.5101,1.6014,1.7034,1.8099,1.8987,1.9963,2.1023,2.216,2.2864,-1.1342,-1.1869,-1.2459,-1.2806,-1.2582,-1.1749,-0.9194,-0.958,0.0,0.0,-0.7099,-0.8297,-0.9371,0.0,0.0,0.0,0.0,0.0,0.0,0.0,0.0,0.0,0.0,0.0,0.0,0.0,0.0,0.0,0.0,0.0,-2.9263,-3.0364,-3.115,-3.1486,-3.2411,-3.2901,-3.2901,-3.2901,-3.2926,-3.2997,-3.3136,-3.3238,-3.3272,-3.2535,-3.2197,-3.2148,-3.1279,-3.0898,-3.0898,-3.0898,-3.0898,-3.0898,-3.0898,-3.0898,-3.0898,-3.0898,-3.0898,-3.0868,-3.0672,-3.0606,-3.0575,-3.0441,-3.0398,-3.0355,-3.015,-2.9598,-2.9122,-2.9438,-2.8806,-2.8117,-2.8403,-2.7905,-2.7052,-2.5875,-2.3915,-2.1794,-2.0052,-1.8757,-1.7664,-1.6596,-1.5595,-1.4835,-1.4698,-1.419,-1.3316,-1.1903,-1.0701,-0.9124,-0.6902,-0.5586,-0.4036,-0.1829,0.0055,0.1554,0.2726,0.4986,0.6423,0.6588,0.8339,0.9803,1.0767,1.2401,1.3705,1.4703,1.5744,1.6896,1.8099,1.8987,1.9963,2.1031,2.2102,2.2831,-1.282,-1.2993,-1.2644,-1.2151,-1.1857,-1.0955,-0.8023,0.0,0.0,-0.6487,-0.6804,-0.7867,-0.916,-0.8512,-0.8448,0.0,0.0,-1.1417,0.0,0.0,0.0,0.0,0.0,0.0,0.0,0.0,0.0,0.0,0.0,0.0,-3.0136,-3.0663,-3.1344,-3.209,-3.2637,-3.2901,-3.2901,-3.2901,-3.2926,-3.2997,-3.3136,-3.3238,-3.3272,-3.2535,-3.2197,-3.2148,-3.1279,-3.0898,0.0,-3.0898,-3.0898,-3.0898,-3.0898,-3.0898,-3.0898,-3.0898,-3.0898,-3.0868,-3.0672,-3.0606,-3.0575,-3.0441,-3.0398,-3.0398,-3.0367,-3.0138,-2.9904,-2.9926,-2.973,-2.9392,-2.8878,-2.8433,-2.7743,-2.6286,-2.5014,-2.3646,-2.1839,-2.061,-1.9164,-1.687,-1.5914,-1.532,-1.4789,-1.419,-1.3316,-1.1903,-1.1136,-0.9717,-0.6956,-0.6477,-0.5536,-0.3338,-0.0554,0.1165,0.1275,0.3926,0.5871,0.6534,0.7393,0.8758,1.0712,1.1522,1.2778,1.4652,1.5365,1.6476,1.8099,1.8987,1.9963,2.1031,2.1928,2.2642,-0.9627,-1.0568,-1.1502,-1.1215,-1.1239,-1.0777,-0.8725,0.0,-0.8794,-0.7191,-0.733,-0.784,-0.8153,-0.7795,-0.777,-0.8595,-0.9226,0.0,0.0,0.0,0.0,0.0,0.0,0.0,0.0,0.0,0.0,0.0,0.0,0.0,-3.1876,-3.2235,-3.26,-3.2902,-3.3938,-3.4468,-3.4468,-3.4468,-3.4485,-3.4509,-3.4638,-3.4471,-3.4003,-3.3262,-3.2656,-3.2148,-3.1279,-3.0898,0.0,-3.0898,-3.0898,-3.0898,-3.0898,-3.0898,-3.0898,-3.0898,-3.0898,-3.0868,-3.0672,-3.0606,-3.0575,-3.0441,-3.0398,-3.0398,-3.0398,-3.0333,-3.0209,-3.0052,-2.993,-2.977,-2.9299,-2.8588,-2.7802,-2.6873,-2.5996,-2.4772,-2.2646,-2.158,-2.0346,-1.7972,-1.7036,-1.6453,-1.587,-1.4971,-1.4023,-1.307,-1.1675,-0.9919,-0.7514,-0.6845,-0.593,-0.4233,-0.1719,0.0111,0.0998,0.3373,0.5148,0.5871,0.7069,0.8435,1.0061,1.1156,1.2638,1.4652,1.5276,1.6421,1.8099,1.8733,1.9708,2.0999,2.1598,2.2341,-0.8367,-0.9472,-1.0596,-1.0674,-1.0649,-1.0324,0.0,0.0,-0.8332,-0.7461,-0.7493,-0.7662,-0.7497,-0.7549,-0.7492,-0.7286,-0.8218,-0.9473,-1.0972,0.0,0.0,0.0,0.0,0.0,0.0,0.0,0.0,0.0,0.0,0.0,-3.3301,-3.3639,-3.3819,-3.3894,-3.4929,-3.5493,-3.5493,-3.5493,-3.5493,-3.5507,-3.5639,-3.5285,-3.4468,-3.3736,-3.2959,-3.2148,-3.1279,-3.0898,0.0,-3.0898,-3.0898,-3.0898,-3.0898,-3.0898,-3.0898,-3.0898,-3.0898,-3.0868,-3.0672,-3.0606,-3.0575,-3.0441,-3.0398,-3.0398,-3.0311,-3.0276,-3.0232,-2.9979,-2.9877,-2.9729,-2.9338,-2.8643,-2.789,-2.7296,-2.6647,-2.5573,-2.3444,-2.232,-2.1114,-1.9107,-1.8091,-1.7388,-1.6837,-1.5758,-1.4659,-1.3841,-1.2215,-1.0328,-0.8187,-0.7522,-0.6625,-0.4948,-0.3159,-0.1327,0.0609,0.2823,0.4488,0.5431,0.6468,0.7738,0.9331,1.0487,1.2125,1.4348,1.5,1.617,1.786,1.8503,1.9482,2.0797,2.1352,2.216,-1.0668,-1.0813,-1.0198,-1.0804,-1.0238,-0.9292,0.0,0.0,-0.6937,-0.6994,-0.7017,-0.7157,-0.7628,-0.7719,-0.7632,-0.7416,-0.7297,-0.7863,-0.9671,0.0,0.0,0.0,0.0,0.0,0.0,0.0,0.0,0.0,0.0,0.0,-3.4143,-3.451,-3.4813,-3.5069,-3.5359,-3.5493,-3.5493,-3.5493,-3.5493,-3.5507,-3.5639,-3.5285,-3.4468,-3.3736,-3.2959,-3.2148,-3.1279,-3.0898,0.0,-3.0898,-3.0898,-3.0898,-3.0898,-3.0898,-3.0898,-3.0898,-3.0898,-3.0868,-3.0672,-3.0606,-3.0575,-3.0441,-3.0398,-3.0355,-3.0089,-2.9989,-2.996,-2.9755,-2.9561,-2.9314,-2.8901,-2.8606,-2.8219,-2.7461,-2.6901,-2.6067,-2.4511,-2.2869,-2.1326,-2.0114,-1.8901,-1.79,-1.7388,-1.6311,-1.5093,-1.3877,-1.2619,-1.104,-0.8936,-0.8678,-0.7879,-0.5699,-0.4814,-0.3201,-0.0221,0.2107,0.4004,0.5431,0.5542,0.6499,0.8623,0.9379,1.0968,1.3648,1.4348,1.5576,1.7312,1.8303,1.9287,2.0232,2.1164,2.216,-0.6626,-0.7382,-0.8051,-0.8177,-0.8227,-0.8146,-0.7622,-0.7217,-0.682,-0.6515,-0.6755,-0.7066,-0.7192,-0.7492,-0.7809,-0.8164,-0.8039,-0.8445,0.0,0.0,0.0,0.0,0.0,0.0,0.0,0.0,0.0,0.0,0.0,0.0,-3.4498,-3.4813,-3.4999,-3.5105,-3.5369,-3.5218,-3.4622,-3.5209,-3.4901,-3.3728,-3.4514,-3.4121,-3.2726,-3.2624,-3.2119,-3.1299,-3.1016,-3.0898,-3.0898,-3.0898,-3.0898,-3.0898,-3.0898,-3.0898,-3.0898,-3.0898,-3.0898,-3.0868,-3.0672,-3.0606,-3.0575,-3.0441,-3.0398,-3.0321,-2.9927,-2.9893,-2.9969,-2.9755,-2.9561,-2.9373,-2.9233,-2.8819,-2.8281,-2.7823,-2.7383,-2.6488,-2.443,-2.3317,-2.2118,-2.0087,-1.9121,-1.8373,-1.747,-1.6634,-1.571,-1.4573,-1.3296,-1.1917,-1.0343,-0.9286,-0.8091,-0.6438,-0.5134,-0.3425,-0.0941,0.0831,0.2442,0.3891,0.4937,0.6018,0.7233,0.8394,1.007,1.2276,1.3439,1.4897,1.6695,1.7786,1.917,2.0757,2.1576,2.2389,0.0,-0.5786,-0.6492,-0.6888,-0.7216,-0.7342,-0.704,-0.6767,-0.6481,-0.6105,-0.6296,-0.6559,-0.6677,-0.7084,-0.7599,-0.8091,-0.8176,0.0,0.0,0.0,0.0,0.0,0.0,0.0,0.0,0.0,0.0,0.0,0.0,0.0,-3.4644,-3.4963,-3.5148,-3.5248,-3.5408,-3.5084,-3.4209,-3.5064,-3.4639,-3.2947,-3.3997,-3.3599,-3.1943,-3.212,-3.1719,-3.0898,-3.0898,-3.0898,0.0,-3.0898,-3.0898,-3.0898,-3.0898,-3.0898,-3.0898,-3.0898,-3.0898,-3.0868,-3.0672,-3.0606,-3.0575,-3.0441,-3.0333,-3.0182,-2.9806,-2.966,-2.9606,-2.9476,-2.9344,-2.9255,-2.9255,-2.8952,-2.8549,-2.8156,-2.7794,-2.6961,-2.4925,-2.3934,-2.282,-2.0668,-1.9801,-1.9118,-1.8092,-1.7259,-1.6409,-1.5475,-1.4095,-1.2759,-1.1702,-1.0558,-0.9227,-0.755,-0.6313,-0.4732,-0.2544,-0.0498,0.1221,0.2389,0.383,0.4982,0.5727,0.7388,0.9247,1.1273,1.2652,1.4247,1.6089,1.7599,1.917,2.0716,2.167,2.2495,0.0,-0.5646,0.0,-0.672,-0.6943,-0.6767,-0.6548,-0.6219,0.0,-0.5793,-0.5758,-0.5849,-0.6181,-0.6676,-0.7192,-0.757,0.0,0.0,0.0,0.0,0.0,0.0,0.0,0.0,0.0,0.0,0.0,0.0,0.0,0.0,-3.4644,-3.4963,-3.5239,-3.5493,-3.5449,-3.5016,-3.4215,-3.5068,-3.4673,-3.3035,-3.3969,-3.3569,-3.2004,-3.2067,-3.167,0.0,-3.0898,-3.0898,-3.0898,-3.0898,-3.0898,-3.0898,-3.0898,-3.0898,-3.0898,-3.0898,-3.0898,-3.0868,-3.0672,-3.0606,-3.0575,-3.0441,-3.0218,-2.9969,-2.9789,-2.9416,-2.9044,-2.9017,-2.9007,-2.903,-2.9007,-2.8994,-2.8896,-2.8506,-2.8156,-2.7461,-2.5746,-2.4627,-2.3407,-2.1604,-2.0748,-1.9989,-1.9066,-1.8004,-1.7103,-1.6506,-1.5016,-1.3747,-1.3014,-1.2288,-1.1086,-0.9086,-0.8137,-0.6796,-0.4643,-0.1826,0.0167,0.0998,0.239,0.3557,0.4318,0.637,0.8466,1.0431,1.2036,1.3752,1.567,1.7712,1.9207,2.0232,2.145,2.2434,-0.4162,0.0,-0.4716,-0.5222,-0.5387,-0.5415,0.0,-0.5667,-0.5698,-0.5417,0.0,0.0,-0.6685,-0.7233,0.0,0.0,0.0,0.0,0.0,0.0,0.0,0.0,0.0,0.0,0.0,0.0,0.0,0.0,0.0,-3.3645,-3.4644,-3.5148,-3.5422,-3.5493,-3.4853,-3.4426,-3.4272,-3.5142,-3.4759,-3.3164,-3.3444,-3.3031,-3.1984,-3.1452,-3.1094,-3.0898,-3.0898,-3.0898,-3.0898,-3.0898,-3.0898,-3.0898,-3.0898,-3.0898,-3.0898,-3.0898,-3.0898,-3.0868,-3.0672,-3.0606,-3.0575,-3.0441,-3.0218,-2.9999,-2.9945,-2.9746,-2.9466,-2.9093,-2.9156,-2.9246,-2.9053,-2.8994,-2.8896,-2.8506,-2.8333,-2.7701,-2.5623,-2.4688,-2.3658,-2.1487,-2.066,-1.9989,-1.9066,-1.8681,-1.8018,-1.6627,-1.6034,-1.5413,-1.44,-1.3253,-1.1957,-1.04,-0.9161,-0.7555,-0.5423,-0.3041,-0.1108,0.0167,0.1663,0.2774,0.3504,0.5692,0.7304,0.8316,1.1275,1.3923,1.6213,1.7131,1.8501,2.0239,2.0927,2.1967,-0.3673,-0.4014,-0.4316,-0.4503,-0.4695,-0.4883,-0.4904,0.0,0.0,0.0,0.0,0.0,0.0,0.0,0.0,0.0,0.0,0.0,0.0,0.0,0.0,0.0,0.0,0.0,0.0,0.0,0.0,0.0,0.0,-3.371,-3.4655,-3.5207,-3.5493,-3.5493,-3.4651,-3.4229,-3.4304,-3.4768,-3.4404,-3.3248,-3.3284,-3.2875,-3.2063,-3.1259,-3.0898,-3.0898,-3.0898,-3.0898,-3.0898,-3.0898,-3.0898,-3.0898,-3.0898,-3.0898,-3.0898,-3.0898,-3.0898,-3.0878,-3.07,-3.0611,-3.0537,-3.0429,-3.0299,-3.0159,-3.0037,-3.0018,-2.9921,-2.9446,-2.9364,-2.9372,-2.9234,-2.9089,-2.8961,-2.8725,-2.825,-2.7392,-2.5685,-2.4724,-2.36,-2.1657,-2.091,-2.0374,-1.9671,-1.9177,-1.8598,-1.7693,-1.688,-1.617,-1.5564,-1.4188,-1.285,-1.1773,-1.0179,-0.8446,-0.6602,-0.507,-0.3317,-0.1168,0.0388,0.1666,0.273,0.4922,0.702,0.9023,1.1549,1.3747,1.5608,1.6445,1.7771,1.9566,2.0304,2.136,-0.3675,-0.3865,-0.4084,-0.417,-0.4396,-0.4578,-0.4446,0.0,0.0,0.0,0.0,0.0,0.0,0.0,0.0,0.0,0.0,0.0,0.0,0.0,0.0,0.0,0.0,0.0,0.0,0.0,0.0,0.0,0.0,-3.3589,-3.4346,-3.4928,-3.521,-3.5113,-3.4266,-3.3969,-3.4304,-3.4313,-3.4117,-3.3712,-3.3444,-3.2987,-3.2353,-3.1348,-3.0898,-3.0898,0.0,0.0,-3.0898,-3.0898,-3.0898,-3.0898,-3.0898,-3.0898,-3.0898,-3.0898,-3.0898,-3.0879,-3.0731,-3.0606,-3.0482,-3.0415,-3.0398,-3.0355,-3.0136,-3.0218,-3.0321,-2.9921,-2.9626,-2.9434,-2.9403,-2.9212,-2.8966,-2.8838,-2.8038,-2.6943,-2.5688,-2.4647,-2.3502,-2.1902,-2.1337,-2.0918,-2.0374,-1.9636,-1.9073,-1.8923,-1.7619,-1.664,-1.6555,-1.5106,-1.3794,-1.3004,-1.1293,-0.9515,-0.792,-0.7258,-0.5688,-0.289,-0.1331,0.0333,0.228,0.4411,0.7089,1.0395,1.1787,1.3153,1.4411,1.5678,1.707,1.8674,1.9728,2.0926,-0.3324,-0.3569,-0.3784,-0.3774,-0.375,-0.3666,-0.359,0.0,0.0,0.0,0.0,0.0,0.0,0.0,0.0,0.0,0.0,0.0,0.0,0.0,0.0,0.0,0.0,0.0,0.0,0.0,0.0,0.0,0.0,-3.2967,-3.3017,-3.3685,-3.3828,-3.3324,-3.2506,-3.2802,-3.4294,-3.441,-3.4837,-3.5566,-3.4091,-3.333,-3.3164,-3.1611,-3.0898,-3.0898,0.0,-3.0898,-3.0898,-3.0898,-3.0898,-3.0898,-3.0898,-3.0898,-3.0898,-3.0898,-3.0898,-3.0868,-3.0685,-3.0531,-3.0404,-3.04,-3.0398,-3.0388,-3.0355,-3.0376,-3.0388,-3.0308,-2.9977,-2.9616,-2.9434,-2.9212,-2.8819,-2.8145,-2.7847,-2.7128,-2.5036,-2.4463,-2.3789,-2.1944,-2.1552,-2.1259,-2.0442,-2.017,-1.9821,-1.9029,-1.8288,-1.7693,-1.7216,-1.6096,-1.4886,-1.37,-1.284,-1.1293,-0.8773,-0.8416,-0.7388,-0.5116,-0.3627,-0.0985,0.2968,0.4671,0.6625,0.8989,1.0383,1.1742,1.311,1.4824,1.6458,1.7984,1.9484,2.1034,-0.3005,-0.3145,-0.3287,-0.3332,-0.3375,-0.3422,-0.3298,0.0,0.0,0.0,0.0,0.0,0.0,0.0,0.0,0.0,0.0,0.0,0.0,0.0,0.0,0.0,0.0,0.0,0.0,0.0,0.0,0.0,0.0,0.0,-3.2101,-3.2768,-3.3077,-3.291,-3.2122,-3.233,-3.3635,-3.3252,-3.3778,-3.5224,-3.3553,-3.2754,-3.2715,-3.1475,-3.0898,-3.0898,0.0,-3.0898,-3.0898,-3.0898,-3.0898,-3.0898,-3.0898,-3.0898,-3.0898,-3.0898,-3.0575,-3.0195,-3.0487,-2.9935,-2.9178,-2.9567,-2.94,-2.9131,-2.9573,-2.939,-2.914,-2.9583,-2.9699,-2.9678,-2.9589,-2.9282,-2.8792,-2.7989,-2.7328,-2.6426,-2.4762,-2.3931,-2.3172,-2.218,-2.1756,-2.1391,-2.0781,-2.0483,-2.0074,-1.9427,-1.8612,-1.802,-1.7747,-1.6476,-1.5392,-1.4778,-1.3846,-1.2469,-1.0505,-1.0327,-0.8761,-0.512,-0.3516,-0.1259,0.1976,0.3511,0.5304,0.7465,0.8912,1.0638,1.2671,1.3927,1.5689,1.8007,1.8994,2.0252,-0.2759,-0.282,-0.2841,-0.2935,-0.3142,-0.3287,-0.3289,0.0,0.0,0.0,0.0,0.0,0.0,0.0,0.0,0.0,0.0,0.0,0.0,0.0,0.0,0.0,0.0,0.0,0.0,0.0,0.0,0.0,0.0,0.0,-3.1048,-3.1779,-3.2113,-3.1943,-3.1587,-3.1738,-3.2464,-3.1612,-3.2243,-3.4284,-3.2844,-3.2167,-3.2168,-3.1299,-3.0898,-3.0898,-3.0898,-3.0898,-3.0898,-3.0898,-3.0898,-3.0879,-3.0684,-3.0469,-3.0293,-3.0293,-2.983,-2.9269,-2.9825,-2.9136,-2.8091,-2.8645,-2.84,-2.8005,-2.8621,-2.839,-2.8063,-2.8861,-2.9136,-2.917,-2.9129,-2.8788,-2.8246,-2.7429,-2.6562,-2.5606,-2.4382,-2.3434,-2.2712,-2.2377,-2.2003,-2.1598,-2.1095,-2.069,-2.0288,-1.9782,-1.8772,-1.8099,-1.8099,-1.6773,-1.5776,-1.5632,-1.4733,-1.357,-1.2087,-1.1679,-0.9726,-0.5658,-0.3736,-0.1812,0.022,0.192,0.3776,0.5956,0.7632,0.9581,1.1925,1.2982,1.4885,1.7531,1.8106,1.9315,-0.2746,-0.2715,-0.2676,-0.286,-0.2938,0.0,-0.3412,-0.4193,0.0,-0.539,0.0,0.0,0.0,0.0,0.0,0.0,0.0,0.0,0.0,0.0,0.0,0.0,0.0,0.0,0.0,0.0,0.0,0.0,0.0,0.0,-2.9485,-3.0462,-3.0421,-2.9141,-2.9998,-3.0525,-3.0585,-2.9786,-3.0737,-3.3382,-3.2455,-3.2081,-3.2168,-3.1299,-3.0898,-3.0898,-3.0898,-3.0898,-3.0898,-3.0898,-3.0898,-3.082,-3.001,-2.9199,-2.8486,-2.8486,-2.8403,-2.8285,-2.8282,-2.8162,-2.7996,-2.799,-2.7948,-2.7909,-2.7967,-2.7948,-2.8063,-2.8861,-2.8396,-2.7614,-2.7431,-2.7084,-2.6576,-2.577,-2.5511,-2.5044,-2.3595,-2.3233,-2.2989,-2.2424,-2.2274,-2.1974,-2.1126,-2.0967,-2.0673,-1.9818,-1.8772,-1.8099,-1.8099,-1.7146,-1.6238,-1.5676,-1.5537,-1.4733,-1.2898,-1.1509,-1.0093,-0.8511,-0.5766,-0.3583,-0.2032,0.011,0.231,0.4529,0.6602,0.8394,0.9921,1.1894,1.3861,1.5712,1.6725,1.8473,-0.234,-0.2504,-0.2708,-0.2894,-0.3042,0.0,0.0,-0.4403,-0.5371,-0.5228,-0.6508,0.0,0.0,0.0,0.0,0.0,0.0,0.0,0.0,0.0,0.0,0.0,0.0,0.0,0.0,0.0,0.0,0.0,0.0,0.0,-2.7839,-2.8055,-2.8135,-2.8059,-2.8444,-2.8711,-2.8842,-2.8539,-2.8931,-3.0006,-2.9747,-2.997,-3.0547,-2.9678,-2.958,-3.0059,-2.9521,-2.9277,-2.9277,-2.9277,-2.9277,-2.9248,-2.8916,-2.8594,-2.8301,-2.8301,-2.7906,-2.7459,-2.7941,-2.7353,-2.6467,-2.694,-2.6717,-2.638,-2.6928,-2.6707,-2.6467,-2.7313,-2.6711,-2.6167,-2.7623,-2.739,-2.6539,-2.5616,-2.5232,-2.4733,-2.346,-2.3045,-2.2764,-2.2369,-2.231,-2.2011,-2.1158,-2.0999,-2.0698,-1.9818,-1.9088,-1.8496,-1.8138,-1.747,-1.6782,-1.6232,-1.5814,-1.5168,-1.4064,-1.2749,-1.1616,-1.0679,-0.8022,-0.5565,-0.3638,-0.1867,-0.011,0.1606,0.4285,0.626,0.7677,1.0236,1.2416,1.4215,1.551,1.7103,-0.2172,-0.2464,-0.2772,-0.2865,0.0,0.0,-0.3567,-0.4694,-0.5794,-0.598,0.0,0.0,0.0,0.0,0.0,0.0,0.0,0.0,0.0,0.0,0.0,0.0,0.0,0.0,0.0,0.0,0.0,0.0,0.0,0.0,0.0,-2.6503,-2.6646,-2.6996,-2.7389,-2.7536,-2.7401,-2.7455,-2.7518,-2.7592,-2.7395,-2.7953,-2.9113,-2.8507,-2.8569,-2.9119,-2.8533,-2.8281,-2.8301,-2.8301,-2.8144,-2.7891,-2.7891,-2.7725,-2.748,-2.748,-2.7069,-2.6585,-2.7103,-2.6468,-2.5524,-2.6015,-2.5793,-2.5409,-2.6015,-2.5764,-2.5476,-2.6351,-2.5753,-2.53,-2.7223,-2.6882,-2.5875,-2.5185,-2.4766,-2.4284,-2.3383,-2.2947,-2.2617,-2.2341,-2.231,-2.2011,-2.1158,-2.0999,-2.0698,-1.9818,-1.9244,-1.8772,-1.8419,-1.786,-1.7347,-1.6795,-1.6225,-1.5638,-1.5056,-1.3815,-1.2812,-1.215,-0.997,-0.7717,-0.5491,-0.4,-0.2307,-0.0388,0.2096,0.4267,0.6094,0.8316,1.0487,1.2584,1.3527,1.5028,-0.233,-0.2607,-0.2857,0.0,0.0,0.0,-0.4175,-0.5202,-0.6452,-0.7927,0.0,0.0,0.0,0.0,0.0,0.0,0.0,0.0,0.0,0.0,0.0,0.0,0.0,0.0,0.0,0.0,0.0,0.0,0.0,0.0,0.0,-2.61,-2.6233,-2.5707,-2.6905,-2.7157,-2.6308,-2.6488,-2.6622,-2.6678,-2.5815,-2.6333,-2.8087,-2.8077,-2.8117,-2.8191,-2.8181,-2.8214,-2.8271,-2.8271,-2.7773,-2.6992,-2.6992,-2.6465,-2.5703,-2.5703,-2.5703,-2.5683,-2.5551,-2.5503,-2.5478,-2.5338,-2.5293,-2.5293,-2.5293,-2.5293,-2.5476,-2.6342,-2.5824,-2.5143,-2.5811,-2.5099,-2.4199,-2.4199,-2.3937,-2.3619,-2.3268,-2.2947,-2.2617,-2.2341,-2.231,-2.2011,-2.1166,-2.0999,-2.0706,-1.9854,-1.9244,-1.8893,-1.8893,-1.8419,-1.79,-1.7347,-1.6837,-1.6238,-1.5632,-1.4448,-1.3465,-1.2865,-1.1548,-0.9841,-0.7705,-0.6216,-0.4048,-0.121,0.033,0.2467,0.5365,0.6107,0.7881,1.0627,1.0627,1.2211,-0.2052,-0.2589,0.0,0.0,0.0,0.0,0.0,-0.5718,0.0,0.0,0.0,0.0,0.0,0.0,0.0,0.0,0.0,0.0,0.0,0.0,0.0,0.0,0.0,0.0,0.0,0.0,0.0,0.0,0.0,0.0,0.0,-2.4346,-2.4387,-2.4841,-2.5363,-2.5553,-2.5392,-2.5587,-2.5697,-2.5707,-2.5446,-2.5979,-2.7157,-2.6549,-2.6617,-2.718,-2.6576,-2.6338,-2.6396,-2.6454,-2.6318,-2.6094,-2.6094,-2.5928,-2.5703,-2.5703,-2.5703,-2.5693,-2.5601,-2.5543,-2.5488,-2.5396,-2.5348,-2.5293,-2.5293,-2.5293,-2.5351,-2.5601,-2.5294,-2.4912,-2.5102,-2.4689,-2.4199,-2.4199,-2.3937,-2.3619,-2.3268,-2.2947,-2.2617,-2.2341,-2.231,-2.2106,-2.1529,-2.1189,-2.0797,-2.0227,-1.9752,-1.9325,-1.8968,-1.8419,-1.79,-1.7347,-1.7153,-1.6678,-1.567,-1.5252,-1.4613,-1.3564,-1.3125,-1.1545,-0.8492,-0.7453,-0.5837,-0.3475,-0.1978,-0.0549,0.0825,0.31,0.459,0.5466,0.6947,0.7569,-0.2046,0.0,0.0,0.0,0.0,0.0,0.0,0.0,0.0,0.0,0.0,0.0,0.0,0.0,0.0,0.0,0.0,0.0,0.0,0.0,0.0,0.0,0.0,0.0,0.0,0.0,0.0,0.0,0.0,0.0,0.0,-2.3445,-2.3552,-2.4357,-2.4584,-2.4727,-2.4804,-2.5003,-2.5103,-2.5103,-2.516,-2.5505,-2.6076,-2.5614,-2.5722,-2.6215,-2.5717,-2.5521,-2.5571,-2.5634,-2.566,-2.5661,-2.5693,-2.5703,-2.5703,-2.5703,-2.5703,-2.5693,-2.5621,-2.5567,-2.5521,-2.5434,-2.5368,-2.533,-2.5313,-2.5293,-2.5293,-2.5293,-2.5068,-2.4804,-2.4804,-2.4512,-2.4199,-2.4199,-2.3846,-2.3491,-2.3414,-2.2949,-2.2519,-2.2463,-2.236,-2.2143,-2.1688,-2.1399,-2.1007,-2.0374,-1.9972,-1.9566,-1.9251,-1.8734,-1.8217,-1.7666,-1.7429,-1.7008,-1.6318,-1.5846,-1.5392,-1.4886,-1.4411,-1.3127,-1.0768,-0.9222,-0.7699,-0.6107,-0.4637,-0.3281,-0.1922,-0.0373,0.0902,0.1945,0.3002,0.3207,-0.2229,0.0,0.0,0.0,0.0,0.0,0.0,0.0,0.0,0.0,0.0,0.0,0.0,0.0,0.0,0.0,0.0,0.0,0.0,0.0,0.0,0.0,0.0,0.0,0.0,0.0,0.0,0.0,0.0,0.0,-2.3174,-2.3189,-2.3522,-2.417,-2.4393,-2.4495,-2.4495,-2.47,-2.4804,-2.4804,-2.492,-2.4998,-2.501,-2.5214,-2.533,-2.5396,-2.5461,-2.5493,-2.5498,-2.5561,-2.5588,-2.5601,-2.566,-2.5693,-2.5693,-2.5693,-2.5693,-2.5693,-2.5633,-2.5613,-2.558,-2.5455,-2.5415,-2.5396,-2.533,-2.5303,-2.5313,-2.5303,-2.507,-2.4818,-2.4795,-2.4512,-2.4228,-2.419,-2.3714,-2.3337,-2.364,-2.3,-2.2462,-2.266,-2.25,-2.2183,-2.1748,-2.159,-2.1259,-2.0382,-1.9937,-1.9682,-1.9682,-1.9288,-1.8772,-1.8217,-1.7706,-1.7388,-1.7388,-1.6318,-1.5928,-1.6421,-1.5392,-1.4532,-1.3964,-1.1406,-0.9632,-0.8892,-0.7518,-0.5801,-0.3781,-0.4072,-0.3022,-0.07,-0.1339,-0.1242,0.0,-0.2772,0.0,0.0,0.0,0.0,0.0,0.0,0.0,0.0,0.0,0.0,0.0,0.0,0.0,0.0,0.0,0.0,0.0,0.0,0.0,0.0,0.0,0.0,0.0,0.0,0.0,0.0,0.0,0.0,-2.3174,-2.3189,-2.3522,-2.417,-2.4393,-2.4495,-2.4495,-2.47,-2.4804,-2.4804,-2.4837,-2.4904,-2.501,-2.5214,-2.5313,-2.5331,-2.5391,-2.5424,-2.5431,-2.5493,-2.5521,-2.5521,-2.5543,-2.5577,-2.5621,-2.5621,-2.5649,-2.5703,-2.5683,-2.5637,-2.5598,-2.5574,-2.5521,-2.5467,-2.5396,-2.5376,-2.5369,-2.5303,-2.513,-2.4933,-2.4837,-2.4617,-2.4393,-2.4247,-2.3896,-2.3619,-2.3683,-2.3323,-2.294,-2.2746,-2.2652,-2.251,-2.2212,-2.1576,-2.0829,-1.9972,-1.9754,-1.9682,-1.9682,-1.9603,-1.9325,-1.8772,-1.8256,-1.794,-1.794,-1.6938,-1.6508,-1.6979,-1.6028,-1.5496,-1.5732,-1.3424,-1.1741,-1.0972,-0.9649,-0.8775,-0.8213,-0.7238,-0.6452,-0.5891,-0.636,-0.737,0.0,0.0,0.0,0.0,0.0,0.0,0.0,0.0,0.0,0.0,0.0,0.0,0.0,0.0,0.0,0.0,0.0,0.0,0.0,0.0,0.0,0.0,0.0,0.0,0.0,0.0,0.0,0.0,0.0,-2.2553,-2.3174,-2.3189,-2.3522,-2.417,-2.4303,-2.4366,-2.4366,-2.4461,-2.4502,-2.4502,-2.4214,-2.3955,-2.3733,-2.4819,-2.5253,-2.5163,-2.5197,-2.5216,-2.5216,-2.5279,-2.5373,-2.5465,-2.5488,-2.5521,-2.5558,-2.5586,-2.5621,-2.5659,-2.5693,-2.5683,-2.5637,-2.5605,-2.558,-2.5543,-2.5467,-2.5453,-2.5425,-2.5371,-2.5207,-2.5023,-2.4924,-2.4761,-2.4617,-2.4502,-2.407,-2.3744,-2.3896,-2.3544,-2.3141,-2.2963,-2.2822,-2.2617,-2.2349,-2.1593,-2.0764,-2.0097,-1.9803,-1.9682,-1.9682,-1.9682,-1.9486,-1.8968,-1.865,-1.8496,-1.8496,-1.7747,-1.749,-1.7972,-1.7239,-1.6908,-1.7146,-1.5695,-1.4457,-1.347,-1.2248,-1.1545,-1.1411,-1.0867,-1.0189,-0.9461,-1.0514,-1.1412,0.0,0.0,0.0,0.0,0.0,0.0,0.0,0.0,0.0,0.0,0.0,0.0,0.0,0.0,0.0,0.0,0.0,0.0,0.0,0.0,0.0,0.0,0.0,0.0,0.0,0.0,0.0,0.0,0.0,-2.2526,-2.3069,-2.3165,-2.3468,-2.4094,-2.417,-2.4199,-2.4199,-2.4199,-2.4125,-2.3988,-2.3371,-2.2785,-2.2312,-2.4014,-2.4776,-2.4755,-2.4895,-2.4962,-2.4965,-2.5026,-2.5168,-2.5339,-2.5389,-2.5442,-2.5488,-2.5547,-2.558,-2.5615,-2.5661,-2.5693,-2.5693,-2.5644,-2.5619,-2.5603,-2.5543,-2.5517,-2.5503,-2.5444,-2.53,-2.5148,-2.5057,-2.4945,-2.4841,-2.4813,-2.4332,-2.3961,-2.42,-2.3777,-2.3346,-2.3221,-2.2898,-2.252,-2.2155,-2.1493,-2.0829,-2.0288,-1.9902,-1.9682,-1.9682,-1.9682,-1.9522,-1.9088,-1.8968,-1.893,-1.905,-1.8458,-1.8373,-1.9006,-1.8458,-1.8178,-1.8373,-1.7733,-1.6959,-1.6089,-1.4801,-1.4138,-1.4048,-1.4292,-1.3696,-1.2385,-1.4064,-1.447,0.0,0.0,0.0,0.0,0.0,0.0,0.0,0.0,0.0,0.0,0.0,0.0,0.0,0.0,0.0,0.0,0.0,0.0,0.0,0.0,0.0,0.0,0.0,0.0,0.0,0.0,0.0,0.0,-2.2032,-2.2426,-2.2746,-2.3045,-2.336,-2.3744,-2.4045,-2.4199,-2.4199,-2.4199,-2.385,-2.3153,-2.2497,-2.2128,-2.206,-2.2505,-2.307,-2.3731,-2.4506,-2.4823,-2.4837,-2.4832,-2.4924,-2.505,-2.5063,-2.5207,-2.541,-2.5421,-2.5503,-2.5603,-2.5605,-2.5648,-2.5703,-2.5693,-2.5693,-2.5672,-2.5615,-2.5595,-2.5567,-2.5503,-2.5468,-2.5397,-2.5224,-2.5119,-2.502,-2.4836,-2.4728,-2.462,-2.4495,-2.4257,-2.3887,-2.3314,-2.2747,-2.2089,-2.1323,-2.1063,-2.0731,-1.9909,-1.9711,-1.9682,-1.9682,-1.9682,-1.9682,-1.9603,-1.9169,-1.9088,-1.9566,-1.8696,-1.8535,-1.9522,-1.865,-1.8535,-1.9442,-1.8528,-1.8118,-1.8461,-1.6805,-1.6204,-1.668,-1.6208,-1.5886,-1.569,-1.6902,-1.7441,0.0,0.0,0.0,0.0,0.0,0.0,0.0,0.0,0.0,0.0,0.0,0.0,0.0,0.0,0.0,0.0,0.0,0.0,0.0,0.0,0.0,0.0,0.0,0.0,0.0,0.0,0.0,0.0,-2.2032,-2.2434,-2.2704,-2.3021,-2.315,-2.3031,-2.3359,-2.3309,-2.285,-2.285,-2.2428,-2.1594,-2.1297,-2.0917,-2.0507,-2.1051,-2.1797,-2.2675,-2.3059,-2.3519,-2.3964,-2.3964,-2.4336,-2.49,-2.4974,-2.5072,-2.5139,-2.4836,-2.4758,-2.4764,-2.4342,-2.4215,-2.4322,-2.4814,-2.4971,-2.5058,-2.5524,-2.5659,-2.5637,-2.5567,-2.5558,-2.5527,-2.5395,-2.5347,-2.5299,-2.5212,-2.5079,-2.4917,-2.4752,-2.4533,-2.4135,-2.3351,-2.284,-2.2284,-2.1483,-2.1346,-2.1047,-2.0158,-2.0035,-1.9929,-1.9718,-1.9682,-1.9682,-1.9682,-1.9486,-1.9442,-1.9682,-1.9463,-1.9456,-1.9675,-1.9715,-1.9826,-2.0027,-1.9592,-1.9433,-1.9671,-1.812,-1.7585,-1.8136,-1.8131,-1.7855,-1.731,-1.8936,-1.9206,0.0,0.0,0.0,0.0,0.0,0.0,0.0,0.0,0.0,0.0,0.0,0.0,0.0,0.0,0.0,0.0,0.0,0.0,0.0,0.0,0.0,0.0,0.0,0.0,0.0,0.0,0.0,0.0,-2.142,-2.1703,-2.2005,-2.2393,-2.2416,-2.1995,-2.2444,-2.2373,-2.1697,-2.1548,-2.1143,-2.0494,-2.0283,-1.9886,-1.9323,-1.9923,-2.0597,-2.133,-2.1758,-2.2325,-2.2931,-2.3145,-2.3571,-2.412,-2.4473,-2.4536,-2.4349,-2.398,-2.385,-2.3792,-2.3243,-2.3064,-2.3208,-2.3864,-2.4072,-2.4189,-2.4863,-2.5049,-2.5068,-2.5245,-2.5299,-2.5334,-2.5512,-2.5543,-2.5526,-2.5532,-2.5359,-2.513,-2.4869,-2.4535,-2.4089,-2.3441,-2.2996,-2.2503,-2.1853,-2.1574,-2.1205,-2.0408,-2.0212,-2.0027,-1.9754,-1.9682,-1.9682,-1.9682,-1.9775,-1.9839,-1.9839,-2.0227,-2.0356,-2.0042,-2.064,-2.0821,-2.0483,-2.0483,-2.0408,-2.0314,-1.9346,-1.8992,-1.9251,-1.9592,-1.9432,-1.8786,-2.032,-2.0435,0.0,0.0,0.0,0.0,0.0,0.0,0.0,0.0,0.0,0.0,0.0,0.0,0.0,0.0,0.0,0.0,0.0,0.0,0.0,0.0,0.0,0.0,0.0,0.0,0.0,0.0,0.0,0.0,-1.9768,-1.9784,-2.0128,-2.0702,-2.0877,-2.0613,-2.1429,-2.1716,-2.1423,-2.0849,-2.0539,-2.0484,-1.973,-1.9335,-1.9289,-1.9335,-1.9387,-1.9531,-2.1121,-2.1847,-2.1948,-2.2703,-2.2667,-2.2241,-2.3192,-2.3225,-2.2744,-2.2843,-2.2904,-2.2959,-2.2923,-2.2993,-2.3107,-2.3148,-2.3169,-2.3193,-2.3301,-2.3291,-2.3408,-2.4228,-2.4463,-2.4648,-2.5478,-2.5637,-2.5588,-2.5588,-2.5543,-2.5297,-2.4665,-2.4108,-2.3735,-2.3683,-2.315,-2.2574,-2.2152,-2.1502,-2.0854,-2.0374,-1.9972,-1.9711,-1.9682,-1.9682,-1.9682,-1.9682,-2.0027,-2.028,-2.028,-2.069,-2.0959,-2.0926,-2.0959,-2.0999,-2.0959,-2.0959,-2.0756,-2.0314,-2.0649,-2.0641,-2.0246,-2.0238,-2.0475,-2.0846,-2.0959,-2.1256,0.0,0.0,0.0,0.0,0.0,0.0,0.0,0.0,0.0,0.0,0.0,0.0,0.0,0.0,0.0,0.0,0.0,0.0,0.0,0.0,0.0,0.0,0.0,0.0,0.0,0.0,0.0,0.0,0.0,-1.9874,-1.9993,-2.0422,-2.0371,-1.975,-2.0419,-2.0533,-2.0063,-1.9845,-1.973,-1.973,-1.9436,-1.9305,-1.9305,-1.9305,-1.9305,-1.9326,-1.9938,-2.0482,-2.1033,-2.1877,-2.2389,-2.2711,-2.3279,-2.3373,-2.3076,-2.2269,-2.1971,-2.1931,-2.1414,-2.1263,-2.14,-2.2013,-2.2198,-2.2318,-2.2948,-2.3118,-2.3276,-2.415,-2.4404,-2.46,-2.5469,-2.5683,-2.5649,-2.5605,-2.5447,-2.5226,-2.4956,-2.4532,-2.4108,-2.3777,-2.3522,-2.3165,-2.2591,-2.2271,-2.1782,-2.087,-2.064,-2.0337,-1.9782,-1.9682,-1.9811,-2.0062,-2.0212,-2.0408,-2.0723,-2.1142,-2.1275,-2.1031,-2.1681,-2.1992,-2.1732,-2.1703,-2.1627,-2.1461,-2.1149,-2.0764,-2.0314,-2.0862,-2.1204,-2.1326,-2.1861,-2.2281,0.0,0.0,0.0,0.0,0.0,0.0,0.0,0.0,0.0,0.0,0.0,0.0,0.0,0.0,0.0,0.0,0.0,0.0,0.0,0.0,0.0,0.0,0.0,0.0,0.0,0.0,0.0,0.0,0.0,0.0,-1.9258,-1.9565,-1.9517,-1.9089,-1.9443,-1.9506,-1.9198,-1.9268,-1.9305,-1.9305,-1.9305,-1.9305,-1.9305,-1.9305,-1.9305,-1.9305,-1.9305,-1.9601,-2.0198,-2.1327,-2.1776,-2.1838,-2.2725,-2.2735,-2.2165,-2.1378,-2.11,-2.1022,-2.0491,-2.0299,-2.0396,-2.1036,-2.1248,-2.1375,-2.2,-2.2193,-2.2376,-2.3277,-2.3533,-2.3797,-2.4961,-2.5478,-2.5693,-2.5637,-2.548,-2.5306,-2.516,-2.4853,-2.4482,-2.4051,-2.3874,-2.3608,-2.2988,-2.2652,-2.2152,-2.1134,-2.0862,-2.0565,-1.9972,-1.9909,-2.007,-2.0483,-2.0649,-2.087,-2.1181,-2.1598,-2.1769,-2.1571,-2.2271,-2.2582,-2.2351,-2.2487,-2.2436,-2.2204,-2.2036,-2.1717,-2.1261,-2.1475,-2.1698,-2.1913,-2.2547,-2.3064,0.0,0.0,0.0,0.0,0.0,0.0,0.0,0.0,0.0,0.0,0.0,0.0,0.0,0.0,0.0,0.0,0.0,0.0,0.0,0.0,0.0,0.0,0.0,0.0,0.0,0.0,0.0,0.0,-1.7675,-1.7447,-1.778,-1.8048,-1.831,-1.8575,-1.8594,-1.8734,-1.8993,-1.9189,-1.9305,-1.9305,-1.9305,-1.9305,-1.9305,-1.9305,-1.9305,-1.9305,-1.9305,-1.9305,-1.9433,-2.1086,-2.0811,-1.9519,-2.1419,-2.1205,-1.9872,-2.019,-2.0302,-2.0302,-2.0302,-2.0304,-2.0297,-2.0297,-2.0337,-2.0406,-2.0397,-2.0397,-2.0593,-2.1535,-2.1815,-2.2242,-2.3983,-2.5059,-2.5693,-2.5674,-2.5629,-2.5525,-2.524,-2.4995,-2.4762,-2.4547,-2.4237,-2.3852,-2.3319,-2.2626,-2.189,-2.1134,-2.0649,-2.034,-2.0306,-2.0306,-2.0516,-2.0967,-2.1376,-2.162,-2.162,-2.204,-2.2398,-2.2669,-2.2695,-2.2738,-2.2833,-2.3262,-2.316,-2.246,-2.335,-2.3605,-2.3226,-2.2163,-2.2037,-2.2754,-2.3026,-2.3644,-0.0269,0.0,0.0,0.0,0.0,0.0,0.0,0.0,0.0,0.0,0.0,0.0,0.0,0.0,0.0,0.0,0.0,0.0,0.0,0.0,0.0,0.0,0.0,0.0,0.0,0.0,0.0,0.0,-1.75,-1.7704,-1.7789,-1.7869,-1.8027,-1.831,-1.8489,-1.8734,-1.8993,-1.9189,-1.9305,-1.9305,-1.9305,-1.9305,-1.9305,-1.9305,-1.9305,-1.9305,-1.9305,-1.9305,-1.9372,-2.0436,-2.0592,-2.0248,-2.103,-2.1058,-2.0635,-2.0392,-2.0302,-2.0302,-2.0302,-2.0298,-2.0301,-2.0301,-2.0313,-2.0331,-2.0334,-2.0331,-2.0521,-2.1463,-2.2179,-2.3072,-2.4815,-2.5475,-2.5537,-2.4912,-2.5234,-2.5472,-2.471,-2.4948,-2.5192,-2.479,-2.4515,-2.4247,-2.3841,-2.3289,-2.2652,-2.1927,-2.148,-2.1142,-2.0854,-2.0797,-2.0959,-2.1399,-2.1521,-2.1726,-2.2077,-2.2217,-2.2398,-2.2669,-2.2695,-2.2986,-2.3639,-2.3563,-2.3583,-2.3766,-2.3785,-2.3757,-2.3634,-2.3196,-2.32,-2.3653,-2.4166,-2.4537,0.0,0.0,0.0,0.0,0.0,0.0,-0.2462,-0.2937,0.0,0.0,0.0,0.0,0.0,0.0,0.0,0.0,0.0,0.0,0.0,0.0,0.0,0.0,0.0,0.0,0.0,-1.6324,-1.6866,-1.701,-1.7511,-1.7811,-1.7811,-1.7811,-1.7927,-1.8187,-1.845,-1.8734,-1.8993,-1.9189,-1.9305,-1.9305,-1.9305,-1.9305,-1.9305,-1.9305,-1.9305,-1.9305,-1.9305,-1.9305,-1.9351,-1.9812,-2.0005,-2.0064,-2.069,-2.0753,-2.0474,-2.026,-2.0233,-2.0294,-2.0205,-2.0169,-2.017,-2.0107,-2.0125,-2.0168,-2.0175,-2.0229,-2.0412,-2.0963,-2.1776,-2.2825,-2.4203,-2.4858,-2.5029,-2.4519,-2.5068,-2.5341,-2.4044,-2.4705,-2.5424,-2.5013,-2.4808,-2.4579,-2.418,-2.3794,-2.3285,-2.253,-2.2194,-2.193,-2.1691,-2.1546,-2.1681,-2.2216,-2.215,-2.2231,-2.2634,-2.2686,-2.279,-2.3093,-2.3191,-2.3471,-2.3988,-2.4121,-2.4254,-2.4468,-2.4496,-2.4462,-2.437,-2.3786,-2.3746,-2.422,-2.4681,-2.4895,0.0,0.0,0.0,0.0,0.0,0.0,-0.2235,-0.2439,-0.3124,0.0,0.0,0.0,0.0,0.0,0.0,0.0,0.0,0.0,0.0,0.0,0.0,0.0,0.0,0.0,-1.6203,-1.6633,-1.6985,-1.7272,-1.765,-1.7847,-1.7847,-1.7861,-1.7992,-1.8229,-1.8508,-1.8752,-1.8993,-1.9189,-1.9305,-1.9305,-1.9305,-1.9305,-1.9305,-1.9305,-1.9305,-1.9305,-1.9305,-1.9305,-1.9305,-1.9305,-1.9305,-1.9393,-2.0331,-2.0322,-1.9823,-1.9973,-2.0134,-2.0241,-2.0059,-1.9993,-1.9954,-1.9836,-1.9881,-2.0003,-2.0003,-2.0142,-2.0317,-2.0412,-2.1093,-2.2008,-2.2976,-2.3813,-2.4384,-2.4276,-2.4996,-2.5176,-2.3281,-2.423,-2.5371,-2.5063,-2.4935,-2.4746,-2.4329,-2.4041,-2.3698,-2.3106,-2.2828,-2.2692,-2.2659,-2.2408,-2.2487,-2.3162,-2.2963,-2.2889,-2.3203,-2.3218,-2.3374,-2.3717,-2.3882,-2.4036,-2.4118,-2.4727,-2.4985,-2.4785,-2.5262,-2.5399,-2.5202,-2.4183,-2.4003,-2.4594,-2.4832,-2.4927,0.0,0.0,0.0,0.0,0.0,0.0,-0.1975,-0.2302,-0.3001,0.0,0.0,0.0,0.0,0.0,0.0,0.0,0.0,0.0,0.0,0.0,0.0,0.0,0.0,0.0,-1.6231,-1.6842,-1.7215,-1.7296,-1.7805,-1.8133,-1.8133,-1.833,-1.8469,-1.8508,-1.8789,-1.8958,-1.8993,-1.9189,-1.9305,-1.9305,-1.9305,-1.9305,-1.9305,-1.9305,-1.9305,-1.9305,-1.9305,-1.9305,-1.9305,-1.9305,-1.9305,-1.9353,-1.9819,-1.9927,-1.9843,-2.0125,-2.0161,-2.005,-2.0012,-1.9923,-1.9836,-1.9811,-1.9881,-2.0003,-2.0003,-2.0142,-2.0437,-2.1086,-2.1479,-2.2078,-2.3655,-2.4231,-2.4218,-2.3522,-2.4557,-2.5029,-2.2561,-2.3358,-2.4521,-2.4403,-2.4233,-2.407,-2.3928,-2.351,-2.3332,-2.3736,-2.3515,-2.3271,-2.3106,-2.3028,-2.3112,-2.3413,-2.3252,-2.3191,-2.3413,-2.3448,-2.3572,-2.3929,-2.3924,-2.4204,-2.4864,-2.4869,-2.5008,-2.534,-2.5454,-2.5399,-2.5202,-2.4984,-2.4962,-2.5156,-2.5197,-2.5107,0.0,0.0,0.0,-0.0627,0.0,0.0,0.0,-0.2309,-0.3136,-0.4807,0.0,0.0,0.0,0.0,0.0,0.0,0.0,0.0,0.0,0.0,0.0,0.0,0.0,0.0,-1.6493,-1.7118,-1.7628,-1.7932,-1.8232,-1.8391,-1.8391,-1.8536,-1.8669,-1.8798,-1.8931,-1.9052,-1.915,-1.9252,-1.9097,-1.8711,-1.9106,-1.9087,-1.872,-1.9115,-1.9305,-1.9305,-1.9305,-1.9305,-1.9305,-1.9305,-1.9305,-1.932,-1.9595,-1.9738,-1.9834,-2.006,-2.0152,-2.0125,-1.9963,-1.9858,-1.9788,-1.9723,-1.9788,-1.9913,-1.9983,-2.0142,-2.0379,-2.0792,-2.0971,-2.1348,-2.2656,-2.3076,-2.3143,-2.3074,-2.4052,-2.4401,-2.2181,-2.3068,-2.4032,-2.3134,-2.3218,-2.368,-2.4417,-2.4236,-2.412,-2.4454,-2.4292,-2.4109,-2.4007,-2.3855,-2.3856,-2.4118,-2.3914,-2.3868,-2.4126,-2.415,-2.4229,-2.4436,-2.4481,-2.4678,-2.5079,-2.5099,-2.5242,-2.5541,-2.555,-2.5521,-2.5453,-2.5453,-2.5403,-2.5294,-2.5294,-2.5076,0.0,0.0,0.0,0.0,0.0,-0.1359,0.0,0.0,0.0,-0.4929,0.0,0.0,0.0,0.0,0.0,0.0,0.0,0.0,0.0,0.0,0.0,0.0,0.0,0.0,-1.6526,-1.7234,-1.7912,-1.8597,-1.851,-1.851,-1.8708,-1.8725,-1.8825,-1.9052,-1.9052,-1.9143,-1.9289,-1.9305,-1.8968,-1.8344,-1.8987,-1.8959,-1.8353,-1.8996,-1.9305,-1.9305,-1.9305,-1.9305,-1.9305,-1.9305,-1.9305,-1.932,-1.9546,-1.9698,-1.9823,-1.9983,-2.0134,-2.0197,-1.9932,-1.9813,-1.9776,-1.9669,-1.9735,-1.9878,-2.0012,-2.0179,-2.0302,-2.0306,-2.0462,-2.0836,-2.1739,-2.2159,-2.2514,-2.311,-2.3917,-2.4011,-2.2028,-2.3022,-2.3782,-2.2041,-2.2537,-2.3645,-2.4885,-2.4944,-2.4874,-2.4982,-2.4917,-2.4832,-2.479,-2.4556,-2.4527,-2.4834,-2.4591,-2.4544,-2.4849,-2.4881,-2.4887,-2.4944,-2.5045,-2.5086,-2.5032,-2.5185,-2.5319,-2.5385,-2.5482,-2.5534,-2.5553,-2.5553,-2.5459,-2.5294,-2.5346,-2.5032,0.0,0.0,0.0,0.0,-0.0979,0.0,0.0,0.0,-0.297,-0.4473,0.0,0.0,0.0,0.0,0.0,0.0,0.0,0.0,0.0,0.0,0.0,0.0,0.0,0.0,0.0,-1.6846,-1.7817,-1.8707,-1.8175,-1.8194,-1.9068,-1.92,-1.9234,-1.9259,-1.9268,-1.9283,-1.9289,-1.9305,-1.9243,-1.9152,-1.9268,-1.9243,-1.9161,-1.9268,-1.9305,-1.9305,-1.9305,-1.9305,-1.9305,-1.9305,-1.9305,-1.9335,-1.9654,-1.9797,-1.9834,-2.0144,-2.017,-2.0022,-1.9983,-1.9892,-1.98,-1.9776,-1.9869,-2.0012,-2.0215,-2.0277,-2.0298,-2.0305,-2.0859,-2.169,-2.2678,-2.3476,-2.4054,-2.4129,-2.4817,-2.4745,-2.216,-2.3022,-2.3784,-2.2041,-2.3025,-2.4193,-2.4303,-2.4268,-2.4379,-2.4917,-2.4986,-2.4926,-2.4822,-2.4768,-2.4847,-2.5132,-2.4957,-2.4918,-2.5137,-2.5153,-2.5132,-2.5084,-2.5152,-2.5066,-2.4762,-2.4822,-2.4783,-2.4635,-2.5033,-2.5164,-2.499,-2.499,-2.5098,-2.5307,-2.5545,-2.5113,0.0,0.0,0.0,0.0,0.0,0.0,-0.1791,0.0,-0.3638,0.0,0.0,0.0,0.0,0.0,0.0,0.0,-0.9732,0.0,0.0,0.0,0.0,0.0,0.0,0.0,0.0,0.0,0.0,-1.8286,-1.8027,-1.8003,-1.8416,-1.9107,-1.9418,-1.9305,-1.9305,-1.9305,-1.9305,-1.9305,-1.906,-1.861,-1.9078,-1.9051,-1.8619,-1.9087,-1.9305,-1.9305,-1.9305,-1.9305,-1.9305,-1.9305,-1.9305,-1.9326,-1.967,-1.98,-1.9834,-2.0181,-2.0251,-2.0161,-2.0041,-1.9964,-1.9922,-1.9922,-2.0031,-2.0197,-2.0267,-2.0302,-2.0406,-2.0858,-2.1284,-2.1816,-2.2737,-2.3255,-2.3653,-2.408,-2.4465,-2.4279,-2.2649,-2.2917,-2.3271,-2.2545,-2.3024,-2.3846,-2.4793,-2.4924,-2.4994,-2.525,-2.5261,-2.5234,-2.5205,-2.5165,-2.521,-2.5356,-2.5299,-2.5301,-2.542,-2.5398,-2.5326,-2.5223,-2.4913,-2.4529,-2.4077,-2.3945,-2.3861,-2.3793,-2.4002,-2.4187,-2.4381,-2.457,-2.4557,-2.4315,-2.479,-2.4566,0.0282,0.0,0.0,0.0,0.0,0.0,0.0,0.0,0.0,0.0,0.0,0.0,0.0,0.0,0.0,-0.7997,0.0,-1.016,0.0,0.0,0.0,0.0,0.0,0.0,0.0,0.0,0.0,-1.761,-1.7389,-1.7423,-1.797,-1.8763,-1.9249,-1.938,-1.9329,-1.9305,-1.9305,-1.9305,-1.9005,-1.8436,-1.9014,-1.8987,-1.8454,-1.9023,-1.9305,-1.9305,-1.9305,-1.9305,-1.9305,-1.9305,-1.9335,-1.9409,-1.9692,-1.9813,-1.989,-2.0189,-2.0302,-2.0277,-2.0134,-2.0078,-2.0078,-2.0078,-2.0179,-2.0302,-2.0302,-2.0302,-2.0417,-2.1007,-2.1362,-2.1781,-2.2694,-2.3132,-2.3463,-2.3999,-2.4133,-2.3813,-2.2694,-2.2672,-2.283,-2.2585,-2.2975,-2.3737,-2.4959,-2.5347,-2.5503,-2.5503,-2.5465,-2.5453,-2.5517,-2.5479,-2.5483,-2.5551,-2.5544,-2.5573,-2.5599,-2.5497,-2.5308,-2.4991,-2.4344,-2.375,-2.322,-2.2959,-2.2812,-2.2819,-2.2923,-2.3204,-2.3623,-2.3574,-2.3401,-2.3112,-2.3783,-2.3689,0.0,0.0,0.0,-0.0344,0.0,0.0,0.0,0.0,-0.3364,0.0,0.0,0.0,0.0,0.0,-0.6581,-0.8143,-0.876,0.0,0.0,0.0,0.0,0.0,0.0,0.0,0.0,-1.4924,-1.563,-1.6675,-1.589,-1.6228,-1.818,-1.8199,-1.8591,-1.9564,-1.9404,-1.9305,-1.9305,-1.9305,-1.9295,-1.9253,-1.9295,-1.9295,-1.9253,-1.9295,-1.9305,-1.9305,-1.9305,-1.9305,-1.9305,-1.9305,-1.9409,-1.9596,-1.9759,-1.988,-2.0022,-2.0223,-2.0302,-2.0302,-2.0294,-2.0294,-2.0294,-2.0294,-2.0285,-2.0302,-2.0302,-2.0302,-2.0308,-2.0331,-2.0906,-2.1733,-2.2741,-2.3585,-2.417,-2.419,-2.4193,-2.3707,-2.1923,-2.2262,-2.2649,-2.1807,-2.3062,-2.4283,-2.4327,-2.4979,-2.5503,-2.5503,-2.5498,-2.5521,-2.5586,-2.5588,-2.5619,-2.5693,-2.5693,-2.5673,-2.5607,-2.542,-2.4973,-2.4189,-2.339,-2.2711,-2.2173,-2.1959,-2.1759,-2.1553,-2.2002,-2.2364,-2.2641,-2.1669,-2.1426,-2.1871,-2.2683,-2.2445,0.0,0.0,-0.2384,-0.1899,0.0,0.0,0.0,0.0,0.0,0.0,0.0,0.0,0.0,0.0,-0.6775,-0.7554,-0.8265,-0.9157,0.0,0.0,0.0,0.0,0.0,0.0,0.0,0.0,0.0,-1.5791,-1.5573,-1.5936,-1.7237,-1.8016,-1.8793,-1.9587,-1.9527,-1.9433,-1.9305,-1.9305,-1.9305,-1.9305,-1.9305,-1.9305,-1.9305,-1.9305,-1.9305,-1.9305,-1.9305,-1.9305,-1.9305,-1.9447,-1.9541,-1.9623,-1.9856,-1.9964,-2.0022,-2.0233,-2.0302,-2.0302,-2.0302,-2.0302,-2.0302,-2.0302,-2.0302,-2.0302,-2.0302,-2.0302,-2.0408,-2.0937,-2.1288,-2.1713,-2.2629,-2.3501,-2.4133,-2.4133,-2.4133,-2.3816,-2.2619,-2.2162,-2.2061,-2.2341,-2.292,-2.3725,-2.4839,-2.5285,-2.5521,-2.5557,-2.5533,-2.5522,-2.5594,-2.56,-2.5631,-2.5693,-2.5703,-2.5672,-2.5613,-2.5047,-2.4511,-2.4071,-2.2976,-2.2169,-2.1711,-2.0822,-2.0311,-2.0247,-2.0043,-2.0139,-2.048,-2.0352,-2.0272,-2.0197,-2.0032,-2.0117,-0.2109,-0.2998,0.0,-0.2969,-0.2701,0.0,-0.2979,0.0,0.0,0.0,0.0,0.0,0.0,0.0,-0.629,-0.6814,-0.7989,-0.9321,0.0,-1.2047,0.0,0.0,0.0,0.0,0.0,0.0,-1.3797,-1.4882,-1.4936,-1.5486,-1.6824,-1.7587,-1.8487,-1.9632,-1.9559,-1.9389,-1.9198,-1.9259,-1.9259,-1.9189,-1.9268,-1.9305,-1.9305,-1.9305,-1.9305,-1.9305,-1.9305,-1.9305,-1.9329,-1.9513,-1.9623,-1.9685,-1.9913,-2.0031,-2.0115,-2.0249,-2.0302,-2.0302,-2.0302,-2.0302,-2.0302,-2.0302,-2.0302,-2.0302,-2.0302,-2.0302,-2.0475,-2.1273,-2.1293,-2.1408,-2.2879,-2.3456,-2.3725,-2.4033,-2.386,-2.3485,-2.2918,-2.1889,-2.1418,-2.2581,-2.2831,-2.3306,-2.4728,-2.523,-2.5455,-2.5554,-2.5532,-2.5519,-2.5554,-2.5592,-2.5605,-2.5634,-2.5648,-2.5566,-2.5341,-2.4731,-2.4178,-2.3733,-2.2565,-2.1615,-2.1044,-1.9947,-1.9259,-1.9059,-1.8745,-1.8777,-1.9199,-1.9023,-1.895,-1.8877,-1.8096,-1.8054]},{"header":{"parameterUnit":"m.s-1","parameterCategory":1,"la1":30.6,"la2":29.2853,"lo1":-89.7004,"lo2":-87.6739,"dy":0.0162,"dx":0.0183,"nx":112,"ny":82,"refTime":"2023-06-10T06:00:00:Z","depth":0,"parameterNumber":3,"parameterNumberName":"V-component_of_WINDS"},"data":[0.0,0.0,0.0,0.0,0.0,0.0,0.0,0.0,0.0,0.0,0.0,0.0,0.0,0.0,0.0,0.0,0.0,0.0,0.0,0.0,0.0,0.0,0.0,0.0,0.0,0.0,0.0,0.0,0.0,0.0,0.0,0.0,0.0,0.0,0.0,0.0,0.0,0.0,0.0,0.0,0.0,0.0,0.0,0.0,0.0,0.0,0.0,0.0,0.0,0.0,0.0,0.0,0.0,0.0,0.0,0.0,0.0,0.0,0.0,0.0,0.0,0.0,0.0,0.0,0.0,0.0,0.0,0.0,0.0,0.0,0.0,0.0,0.0,0.0,0.0,0.0,0.0,0.0,0.0,0.0,0.0,0.0,0.0,0.0,0.0,0.0,0.0,0.0,0.0,0.0,0.0,1.0606,1.1626,1.1889,1.0877,1.2079,1.3257,1.4175,0.0,0.0,0.0,0.0,0.0,0.0,0.0,0.0,0.0,0.0,0.0,0.0,0.0,0.0,0.0,0.0,0.0,0.0,0.0,0.0,0.0,0.0,0.0,0.0,0.0,0.0,0.0,0.0,0.0,0.0,0.0,0.0,0.0,0.0,0.0,0.0,0.0,0.0,0.0,0.0,0.0,0.0,0.0,0.0,0.0,0.0,0.0,0.0,0.0,0.0,0.0,0.0,0.0,0.0,0.0,0.0,0.0,0.0,0.0,0.0,0.0,0.0,0.0,0.0,0.0,0.0,0.0,0.0,0.0,0.0,0.0,0.0,0.0,0.0,0.0,0.0,0.0,0.0,0.0,0.0,0.0,0.0,0.0,0.0,0.0,0.0,0.0,0.0,0.0,0.0,0.0,0.0,0.0,0.0,0.0,0.0,0.0,0.0,0.0,0.0,0.0,0.0,0.0,0.0,1.011,0.9671,1.0336,1.0809,1.0811,1.0628,1.1744,1.4599,0.0,0.0,0.0,0.0,0.0,0.0,0.0,0.0,0.0,0.0,0.0,0.0,0.0,0.0,0.0,0.0,0.0,0.0,0.0,0.0,0.0,0.0,0.0,0.0,0.0,0.0,0.0,0.0,0.0,0.0,0.0,0.0,0.0,0.0,0.0,0.0,0.0,0.0,0.0,0.0,0.0,0.0,0.0,0.0,0.0,0.0,0.0,0.0,0.0,0.0,0.0,0.0,0.0,0.0,0.0,0.0,0.0,0.0,0.0,0.0,0.0,0.0,0.0,0.0,0.0,0.0,0.0,0.0,0.0,0.0,0.0,0.0,0.0,0.0,0.0,0.0,0.0,0.0,0.0,0.0,0.0,0.0,0.0,0.0,0.0,0.0,0.0,0.0,0.0,0.0,0.0,0.0,0.0,0.0,0.0,0.0,0.0,0.0,0.0,0.0,0.0,0.0,0.0,1.1393,1.1122,0.9762,1.0156,1.0452,1.0364,1.0212,1.1542,1.4911,1.4599,0.0,0.0,0.0,0.0,0.0,0.0,0.0,0.0,0.0,0.0,0.0,0.0,0.0,0.0,0.0,0.0,0.0,0.0,0.0,0.0,0.0,0.0,0.0,0.0,0.0,0.0,0.0,0.0,0.0,0.0,0.0,0.0,0.0,0.0,0.0,0.0,0.0,0.0,0.0,0.0,0.0,0.0,0.0,0.0,0.0,0.0,0.0,0.0,0.0,0.0,0.0,0.0,0.0,0.0,0.0,0.0,0.0,0.0,0.0,0.0,0.0,0.0,0.0,0.0,0.0,0.0,0.0,0.0,0.0,0.0,0.0,0.0,0.0,0.0,0.0,0.0,0.0,0.0,0.0,0.0,0.0,0.0,0.0,0.0,0.0,0.0,0.0,0.0,0.0,0.0,0.0,0.0,0.0,0.0,0.0,0.0,0.0,0.0,0.0,0.0,0.0,0.0,1.1408,1.11,0.9739,0.9876,0.998,0.9769,1.0216,1.1778,1.477,1.4713,0.0,0.0,0.0,0.0,0.0,0.0,0.0,0.0,0.0,0.0,0.0,0.0,0.0,0.0,0.0,0.0,0.0,0.0,0.0,0.0,0.0,0.0,0.0,0.0,0.0,0.0,0.0,0.0,0.0,0.0,0.0,0.0,0.0,0.0,0.0,0.0,0.0,0.0,0.0,0.0,0.0,0.0,0.0,0.0,0.0,0.0,0.0,0.0,0.0,0.0,0.0,0.0,0.0,0.0,0.0,0.0,0.0,0.0,0.0,0.0,0.0,0.0,0.0,0.0,0.0,0.0,0.0,0.0,0.0,0.0,0.0,0.0,0.0,0.0,0.0,0.0,0.0,0.0,0.0,0.0,0.0,0.0,0.0,0.0,0.0,0.0,0.0,0.0,0.0,0.0,0.0,0.0,0.0,0.0,0.0,0.0,0.0,0.0,0.0,0.0,0.0,0.0,0.9764,0.8565,0.8928,0.8884,0.8869,0.8965,1.0467,1.2125,1.3798,1.5369,0.0,0.0,0.0,0.0,0.0,0.0,0.0,0.0,0.0,0.0,0.0,0.0,0.0,0.0,0.0,0.0,0.0,0.0,0.0,0.0,0.0,0.0,0.0,0.0,0.0,0.0,0.0,0.0,0.0,0.0,0.0,0.0,0.0,0.0,0.0,0.0,0.0,0.0,0.0,0.0,0.0,0.0,0.0,0.0,0.0,0.0,0.0,0.0,0.0,0.0,0.0,0.0,0.0,0.0,0.0,0.0,0.0,0.0,0.0,0.0,0.0,0.0,0.0,0.0,0.0,0.0,0.0,0.0,0.0,0.0,0.0,0.0,0.0,0.0,0.0,0.0,0.0,0.0,0.0,0.0,0.0,0.0,0.0,0.0,0.0,0.0,0.0,0.0,0.0,0.0,0.0,0.0,0.0,0.0,0.0,0.0,0.0,0.0,0.0,0.0,0.0,0.0,1.1368,1.0211,0.0,0.8783,0.8783,0.9003,0.9703,1.1174,1.3634,0.0,0.0,0.0,0.0,0.0,0.0,0.0,0.0,0.0,0.0,0.0,0.0,0.0,0.0,0.0,0.0,0.0,0.0,0.0,0.0,0.0,0.0,0.0,0.0,0.0,0.0,0.0,0.0,0.0,0.0,0.0,0.0,0.0,0.0,0.0,0.0,0.0,0.0,0.0,0.0,0.0,0.0,0.0,0.0,0.0,0.0,0.0,0.0,0.0,0.0,0.0,0.0,0.0,0.0,0.0,0.0,0.0,0.0,0.0,0.0,0.0,0.0,0.0,0.0,0.0,0.0,0.0,0.0,0.0,0.0,0.0,0.0,0.0,0.0,0.0,0.0,0.0,0.0,0.0,0.0,0.0,0.0,0.0,0.0,0.0,0.0,0.0,0.0,0.0,0.0,0.0,0.0,0.0,0.0,0.0,0.0,0.0,0.0,0.0,0.0,0.0,0.0,1.2858,1.1817,1.0523,0.0,0.8818,0.8855,0.9087,0.9834,1.1294,1.3684,0.0,0.0,0.0,0.0,0.0,0.0,0.0,0.0,0.0,0.0,0.0,0.0,0.0,0.0,0.0,0.0,0.0,0.0,0.0,0.0,0.0,0.0,0.0,0.0,0.0,0.0,0.0,0.0,0.0,0.0,0.0,0.0,0.0,0.0,0.0,0.0,0.0,0.0,0.0,0.0,0.0,0.0,0.0,0.0,0.0,0.0,0.0,0.0,0.0,0.0,0.0,0.0,0.0,0.0,0.0,0.0,0.0,0.0,0.0,0.0,0.0,0.0,0.0,0.0,0.0,0.0,0.0,0.0,0.0,0.0,0.0,0.0,0.0,0.0,0.0,0.0,0.0,0.0,0.0,0.0,0.0,0.0,0.0,0.0,0.0,0.0,0.0,0.0,0.0,0.0,0.0,0.0,0.0,0.0,0.0,0.0,0.0,0.0,0.0,0.0,0.0,0.0,1.277,1.0491,0.8756,0.8889,0.8891,0.8957,0.9097,1.1109,1.2807,0.0,0.0,0.0,0.0,0.0,0.0,0.0,0.0,0.0,0.0,0.0,0.0,0.0,0.0,0.0,0.0,0.0,0.0,0.0,0.0,0.0,0.0,0.0,0.0,0.0,0.0,0.0,0.0,0.0,0.0,0.0,0.0,0.0,0.0,0.0,0.0,0.0,0.0,0.0,0.0,0.0,0.0,0.0,0.0,0.0,0.0,0.0,0.0,0.0,0.0,0.0,0.0,0.0,0.0,0.0,0.0,0.0,0.0,0.0,0.0,0.0,0.0,0.0,0.0,0.0,0.0,0.0,0.0,0.0,0.0,0.0,0.0,0.0,0.0,0.0,0.0,0.0,0.0,0.0,0.0,0.0,0.0,0.0,0.0,0.0,0.0,0.0,0.0,0.0,0.0,0.0,0.0,0.0,0.0,0.0,0.0,0.0,0.0,0.0,0.0,0.0,0.0,0.0,1.2858,1.0605,0.8855,0.8891,0.8891,0.8992,0.9227,0.9797,1.1561,1.4895,0.0,0.0,0.0,0.0,0.0,0.0,0.0,0.0,0.0,0.0,0.0,0.0,0.0,0.0,0.0,0.0,0.0,0.0,0.0,0.0,0.0,0.0,0.0,0.0,0.0,0.0,0.0,0.0,0.0,0.0,0.0,0.0,0.0,0.0,0.0,0.0,0.0,0.0,0.0,0.0,0.0,0.0,0.0,0.0,0.0,0.0,0.0,0.0,0.0,0.0,0.0,0.0,0.0,0.0,0.0,0.0,0.0,0.0,0.0,0.0,0.0,0.0,0.0,0.0,0.0,0.0,0.0,0.0,0.0,0.0,0.0,0.0,0.0,0.0,0.0,0.0,0.0,0.0,0.0,0.0,0.0,0.0,0.0,0.0,0.0,0.0,0.0,0.0,0.0,0.0,0.0,0.0,0.0,0.0,0.0,0.0,0.0,0.0,0.0,0.0,0.0,0.0,1.2945,1.0667,0.8891,0.8891,0.8891,0.9003,0.9275,0.9675,1.1204,1.425,0.0,0.0,0.0,0.0,0.0,0.0,0.0,0.0,0.0,0.0,0.0,0.0,0.0,0.0,0.0,0.0,0.0,0.0,0.0,0.0,0.0,0.0,0.0,0.0,0.0,0.0,0.0,0.0,0.0,0.0,0.0,0.0,0.0,0.0,0.0,0.0,0.0,0.0,0.0,0.0,0.0,0.0,0.0,0.0,0.0,0.0,0.0,0.0,0.0,0.0,0.0,0.0,0.0,0.0,0.0,0.0,0.0,0.0,0.0,0.0,0.0,0.0,0.0,0.0,0.0,0.0,0.0,0.0,0.0,0.0,0.0,0.0,0.0,0.0,0.0,0.0,0.0,0.0,0.0,0.0,0.0,0.0,0.0,0.0,0.0,0.0,0.0,0.0,0.0,0.0,0.0,0.0,0.0,0.0,0.0,0.0,0.0,0.0,0.0,0.0,0.0,0.0,1.3066,1.0686,0.8891,0.8891,0.8891,0.9003,0.9256,1.0254,1.1432,1.2771,0.0,0.0,0.0,0.0,0.0,0.0,0.0,0.0,0.0,0.0,0.0,0.0,0.0,0.0,0.0,0.0,0.0,0.0,0.0,0.0,0.0,0.0,0.0,0.0,0.0,0.0,0.0,0.0,0.0,0.0,0.0,0.0,0.0,0.0,0.0,0.0,0.0,0.0,0.0,0.0,0.0,0.0,0.0,0.0,0.0,0.0,0.0,0.0,0.0,0.0,0.0,0.0,0.0,0.0,0.0,0.0,0.0,0.0,0.0,0.0,0.5715,0.0,0.0,0.0,0.0,0.0,0.0,0.0,0.0,0.0,0.0,0.0,0.0,0.0,0.0,0.0,0.0,0.0,0.0,0.0,0.0,0.0,0.0,0.0,0.0,0.0,0.0,0.0,0.0,0.0,0.0,0.0,0.0,0.0,0.0,0.0,0.0,0.0,0.0,0.0,0.0,0.0,1.3152,1.0749,0.8891,0.8891,0.8891,0.8968,0.9128,0.9517,1.0963,1.3856,1.4526,0.0,0.0,0.0,0.0,0.0,0.0,0.0,0.0,0.0,0.0,0.0,0.0,0.0,0.0,0.0,0.0,0.0,0.0,0.0,0.0,0.0,0.0,0.0,0.0,0.0,0.0,0.0,0.0,0.0,0.0,0.0,0.0,0.0,0.0,0.0,0.0,0.0,0.0,0.0,0.0,0.0,0.0,0.0,0.0,0.0,0.0,0.0,0.0,0.0,0.0,0.0,0.0,0.0,0.0,0.0,0.0,0.0,0.0,0.0,0.0,0.2703,0.0,0.0,0.0,0.0,0.0,0.0,0.0,0.0,0.0,0.0,0.0,0.0,0.0,0.0,0.0,0.0,0.0,0.0,0.0,0.0,0.0,0.0,0.0,0.0,0.0,0.0,0.0,0.0,0.0,0.0,0.0,0.0,0.0,0.0,0.0,0.0,0.0,0.0,0.0,0.0,1.2763,1.0529,0.8891,0.8891,0.8891,0.9091,0.9584,1.0166,1.1186,1.2808,1.4446,0.0,0.0,0.0,0.0,0.0,0.0,0.0,0.0,0.0,0.0,0.0,0.0,0.0,0.0,0.0,0.0,0.0,0.0,0.0,0.0,0.0,0.0,0.0,0.0,0.0,0.0,0.0,0.0,0.0,0.0,0.0,0.0,0.0,0.0,0.0,0.0,0.0,0.0,0.0,0.0,0.0,0.0,0.0,0.0,0.0,0.0,0.0,0.0,0.0,0.0,0.0,0.0,0.0,0.4551,0.3135,0.0746,0.1224,0.1958,0.2758,0.0895,0.2029,0.4955,0.1742,0.0,0.0,0.0,0.0,0.0,0.0,0.0,0.0,0.0,0.0,0.0,0.0,0.0,0.0,0.0,0.0,0.0,0.0,0.0,0.0,0.0,0.0,0.0,0.0,1.3947,1.4072,1.266,0.0,0.0,0.0,0.0,0.0,0.0,0.0,0.0,0.0,0.0,0.0,1.2275,1.0284,0.8891,0.8891,0.8891,0.9242,1.0087,1.0957,1.1452,1.1468,1.4298,1.5987,0.0,0.0,0.0,0.0,0.0,0.0,0.0,0.0,0.0,0.0,0.0,0.0,0.0,0.0,0.0,0.0,0.0,0.0,0.0,0.0,0.0,0.0,0.0,0.0,0.0,0.0,0.0,0.0,0.0,0.0,0.0,0.0,-0.0671,0.0098,0.0,0.0,0.0,0.0,0.0,0.0,0.0,0.0,0.0,0.0,0.0,0.0,0.0,0.5802,0.6304,0.7272,0.9274,1.227,1.1676,1.117,1.0789,1.0756,1.085,1.0865,0.7452,0.0,0.8379,0.8142,0.0,0.0,0.0,0.0,0.0,0.0,0.0,0.0,0.0,0.0,0.0,0.0,0.0,0.0,0.0,0.0,0.0,0.0,0.0,0.0,0.0,0.0,1.3993,1.426,1.4508,1.4571,0.0,1.4311,1.4442,1.4469,1.4434,0.0,0.0,0.0,0.0,0.0,0.0,0.0,1.2199,1.0306,0.8891,0.8891,0.8891,0.9205,0.9958,1.0254,1.0892,1.2088,1.274,1.3365,1.4046,1.7104,0.0,0.0,0.0,0.0,0.0,0.0,0.0,0.0,0.0,0.0,0.0,0.0,0.0,0.0,0.0,0.0,0.0,0.0,0.0,0.0,0.0,0.0,0.0,0.0,0.0,0.0,0.0,0.0,0.0,-0.193,-0.2707,-0.4008,-0.5374,-0.6451,0.0,0.0,0.0,0.0,0.0,0.0,0.0,0.0,0.0,0.9109,0.814,0.88,1.1429,1.1002,1.1615,1.3296,1.316,1.3347,1.3832,1.3915,1.3997,1.3968,1.235,1.1972,1.228,0.9674,0.7801,0.6535,0.0,0.0,0.0,0.0,0.6487,0.5681,1.008,1.1148,1.0791,1.2213,0.0,0.0,0.0,0.0,0.0,0.0,0.0,0.0,0.0,0.0,1.4681,1.4718,1.4804,1.4812,1.4647,1.4605,1.4745,0.0,1.5563,1.5749,1.5643,0.0,0.0,0.0,0.0,1.2575,1.2422,1.1179,1.0264,1.0149,1.0145,1.0445,1.1231,1.1423,1.1933,1.2965,1.3089,1.3287,1.3674,1.5095,1.5746,0.0,0.0,0.0,0.0,0.0,0.0,0.0,0.0,0.0,0.0,0.0,0.0,0.0,0.0,0.0,0.0,0.0,0.0,0.0,0.0,0.0,0.0,0.0,0.0,0.0,0.0,0.0,0.0,-0.3596,-0.4911,-0.7058,-0.8855,-0.999,0.0,0.0,0.0,0.0,0.0,0.0,0.1037,0.3979,0.7529,1.1767,1.1437,1.2465,1.5161,1.463,1.4237,1.4032,1.4327,1.4809,1.5451,1.5676,1.5821,1.586,1.5849,1.5836,1.5526,1.1559,0.9363,0.8649,1.0046,0.8547,0.5998,0.9324,0.9507,0.8623,1.2248,1.3049,1.2657,1.3831,1.3455,1.2645,1.3125,0.0,0.0,0.0,0.0,1.4089,1.3926,1.4504,1.514,1.5193,1.5085,1.4987,1.5048,1.4897,1.4914,0.0,1.5973,1.6242,1.5855,0.0,0.0,0.0,0.0,1.3368,1.2667,1.189,1.1347,1.1197,1.1138,1.1426,1.2229,1.2391,1.2764,1.3504,1.3556,1.3563,1.3626,1.3487,1.4025,1.5375,0.0,0.0,0.0,0.0,0.0,0.0,0.0,0.0,0.0,0.0,0.0,0.0,0.0,0.0,0.0,0.0,0.0,0.0,0.0,0.0,0.0,0.0,0.0,0.0,0.0,0.0,0.0,0.0,0.0,-0.6068,-0.6264,0.0,0.0,0.0,0.0,-0.9321,-0.7254,-0.2388,0.5796,0.8205,1.2046,1.7961,1.8365,1.7839,1.652,1.752,1.7614,1.68,1.7204,1.7408,1.7457,1.76,1.7673,1.7672,1.7594,1.7568,1.7461,1.5998,1.5358,1.4917,1.1013,0.8771,0.7936,0.9543,0.9505,0.9522,1.5523,1.7567,1.7677,1.8566,1.7917,1.6305,1.3716,1.3973,0.0,0.0,1.3227,1.5018,1.4939,1.4922,1.511,1.5865,1.5459,1.5111,1.5875,1.5423,1.4832,0.0,1.4444,1.4665,1.5627,0.0,1.4354,1.5288,1.3965,1.2842,1.2793,1.1972,1.1399,1.1386,1.1202,1.1426,1.2229,1.2312,1.2617,1.3362,1.3413,1.3413,1.3404,1.3405,1.343,1.3523,1.6939,0.0,0.0,0.0,0.0,0.0,0.0,0.0,0.0,0.0,0.0,0.0,0.0,0.0,0.0,0.0,0.0,0.0,0.0,0.0,0.0,0.0,0.0,0.0,0.0,0.0,0.0,0.0,0.0,-0.7162,-0.6569,0.0,-1.2632,-1.2478,-1.1756,-1.0966,-0.5741,0.1267,1.0119,1.2914,1.5768,1.9144,1.9169,1.8568,1.7379,1.7603,1.7632,1.7444,1.7421,1.8248,1.9781,1.9659,1.9386,1.9021,1.9001,1.8402,1.7444,1.7423,1.7058,1.6365,1.4818,1.4217,1.4309,1.5132,1.5638,1.6314,1.9168,1.9493,1.8595,1.8082,1.7457,1.6649,1.5245,1.5229,1.5418,1.4167,1.4441,1.509,1.5072,1.5488,1.6003,1.6295,1.6529,1.6772,1.7011,1.6406,1.5748,1.5554,1.4982,1.4622,1.491,1.459,1.442,1.4797,1.4311,1.4034,1.4423,1.3738,1.3493,1.4277,1.3378,1.2973,1.3658,1.3278,1.3125,1.3379,1.3405,1.3405,1.3405,1.3405,1.3405,1.3405,1.1851,1.0081,0.0,0.0,0.0,0.0,0.0,0.0,0.0,0.0,0.0,0.0,0.0,0.0,0.0,0.0,0.0,0.0,0.0,0.0,0.0,0.0,0.0,0.0,0.0,0.0,0.0,0.0,-0.8283,-0.8454,-0.7829,-0.8874,-1.2638,-1.2799,-1.1808,-0.9804,-0.2967,0.4241,1.1368,1.554,1.8309,1.9624,1.9964,1.9485,1.8179,1.8261,1.8156,1.7878,1.8188,1.9205,2.0816,2.1045,2.0918,2.054,2.0429,1.9622,1.8443,1.8818,1.8356,1.7462,1.8001,1.8272,1.8456,1.9481,1.9905,2.0067,2.076,2.0386,1.9381,1.7987,1.7519,1.7358,1.65,1.6285,1.6275,1.6016,1.5757,1.5635,1.5928,1.6217,1.659,1.7223,1.7529,1.7732,1.8007,1.7168,1.6411,1.658,1.579,1.5181,1.5433,1.5687,1.5963,1.6304,1.636,1.649,1.6873,1.6101,1.5804,1.6531,1.5293,1.4538,1.4844,1.4795,1.4573,1.4167,1.4521,1.4521,1.3997,1.4169,1.4195,1.4008,1.017,0.9275,1.1507,0.0,0.0,0.0,0.0,0.0,0.0,0.0,0.0,0.0,0.0,0.0,0.0,0.0,0.0,0.0,0.0,0.0,0.0,0.0,0.0,0.0,0.0,0.0,-1.2278,-1.1528,-1.0858,-0.9758,-0.9776,-0.9977,-1.0244,-0.9743,-0.8339,-0.5758,0.0616,0.5929,0.9444,1.5821,1.9495,1.9759,2.107,2.0844,1.8909,1.9608,1.9359,1.8179,1.965,2.0374,2.0471,2.1666,2.2196,2.2182,2.1857,2.1288,2.0595,2.0391,1.9587,1.8635,2.0172,2.0313,1.9865,2.1904,2.1592,2.0169,2.0199,2.0394,2.0351,1.8765,1.8564,1.8673,1.7351,1.7113,1.7334,1.7529,1.7099,1.676,1.7587,1.7104,1.6852,1.8668,1.837,1.7925,1.8833,1.7741,1.6791,1.7508,1.6753,1.6282,1.7235,1.7972,1.876,1.9764,1.9887,0.0,1.9842,1.8799,1.8024,1.7902,1.6752,1.5928,1.5705,1.6718,1.6843,1.5668,1.6709,1.667,1.5155,1.5658,1.574,1.5228,1.261,1.3018,1.6575,0.0,0.0,0.0,0.0,0.0,0.0,0.0,0.0,0.0,0.0,0.0,0.0,0.0,0.0,0.0,0.0,0.0,0.0,0.0,0.0,0.0,0.0,-1.5338,-1.3944,-1.317,-1.206,-1.0338,-0.97,-0.9562,-1.0057,-0.9404,-0.7861,-0.5211,-0.0399,0.4129,0.8123,1.3591,1.7371,1.9101,1.9002,1.8923,1.8892,1.7476,1.7043,1.7569,1.8553,1.9668,2.0952,2.1908,2.2235,2.2055,2.1965,2.1467,2.0732,2.068,2.0463,2.0141,2.0255,2.029,2.035,2.1061,2.1486,2.157,2.0779,2.0762,2.0936,1.9841,1.9524,1.9347,1.8243,1.8606,1.9086,1.7699,1.7716,1.8111,1.7857,1.8057,1.8464,1.8981,1.9328,1.9629,1.989,1.9079,1.8369,1.8578,1.8285,1.7871,1.7473,1.7037,1.7034,1.785,1.7432,0.0,1.846,1.7798,1.7882,1.9571,1.7635,1.6641,1.7692,1.675,1.5957,1.5623,1.5912,1.5795,1.5125,1.5259,1.5473,1.5768,1.5239,1.5365,0.0,0.0,0.0,0.0,0.0,0.0,0.0,0.0,0.0,0.0,0.0,0.0,0.0,0.0,0.0,0.0,0.0,0.0,0.0,0.0,0.0,0.0,-1.5571,-1.5094,-1.4346,-1.3222,-1.1824,-1.0082,-0.9168,-0.869,-0.8748,-0.809,-0.6848,-0.4867,-0.0819,0.3108,0.6606,1.1632,1.57,1.8473,1.871,1.8999,1.9435,1.7818,1.7093,1.7271,1.82,1.915,2.0168,2.1333,2.1774,2.1635,2.1747,2.1453,2.0891,2.0859,2.0591,0.0,0.0,0.0,0.0,0.0,2.1067,2.1312,2.0288,2.0036,2.0083,1.9246,1.9065,1.9018,1.8243,1.8844,1.9511,1.812,1.8261,1.8794,1.8568,1.8663,1.8929,1.9407,1.9921,2.0295,2.0301,1.9624,1.9109,1.9468,1.9191,0.0,1.8648,1.843,1.8584,1.9468,1.9083,1.9013,1.9876,1.9141,1.8998,2.0198,1.849,1.7532,1.8202,1.767,0.0,0.0,0.0,1.6949,1.6226,1.5874,0.0,0.0,0.0,1.7491,1.7445,0.0,0.0,0.0,1.7369,1.7242,0.0,0.0,0.0,0.0,0.0,0.0,0.0,0.0,0.0,0.0,0.0,0.0,0.0,0.0,0.0,0.0,-1.5799,-1.4558,-1.3815,-1.2264,-1.0733,-0.944,-0.8353,-0.7534,-0.7059,-0.6331,-0.555,-0.4659,-0.0962,0.234,0.4813,0.0,0.0,0.0,0.0,1.9624,1.9849,1.8961,1.8036,1.7067,1.811,1.8651,1.8792,2.0297,2.0961,2.0904,2.1201,2.1147,2.0816,2.0902,2.0403,1.9734,2.131,2.1528,2.0888,2.0639,2.0394,2.0085,1.9161,0.0,0.0,1.7844,1.7911,1.817,1.7791,1.8427,1.9167,1.8576,1.8723,1.9128,1.9447,1.9133,1.8958,1.9953,2.0297,2.039,2.0324,1.9695,1.9379,2.0152,1.9684,1.9386,2.0173,2.0714,2.1387,2.2423,2.2316,2.2169,2.225,2.1318,2.0519,2.0177,0.0,0.0,1.8065,1.8869,1.8943,1.7867,1.8728,1.8814,1.776,1.6952,1.7016,1.8109,1.8656,1.8962,1.901,1.9156,1.9049,1.8655,1.8306,1.7918,0.0,0.0,0.0,0.0,0.0,0.0,0.0,0.0,0.0,0.0,0.0,0.0,0.0,0.0,0.0,-1.493,-1.4592,-1.3871,-1.2633,-1.1417,-1.0322,-0.9396,-0.766,-0.6638,-0.6955,-0.561,-0.4657,-0.4439,-0.1853,0.0478,0.2165,0.6387,1.0353,1.3815,1.4809,1.6045,1.7596,1.5874,1.5393,1.625,0.0,0.0,1.8429,1.9759,2.013,1.9772,2.0244,2.0174,1.9762,2.0631,2.086,2.0628,1.9979,1.9989,2.0312,1.9838,1.9636,1.9449,1.8407,1.8005,1.796,1.781,1.7829,1.7948,1.8116,1.891,0.0,1.8294,1.892,1.9915,1.9782,2.0202,2.066,2.0659,2.0895,2.0958,2.0417,2.0174,2.0097,2.0265,2.0162,2.0105,2.027,1.9817,1.9695,2.045,1.9848,1.9517,2.0101,1.9834,1.9798,2.036,1.9327,1.8799,1.9298,1.861,1.805,1.7811,1.7508,1.7468,1.7759,1.7047,1.6781,1.6998,1.7646,1.7712,1.7202,1.7873,1.7889,1.7311,1.7745,1.7757,0.0,0.0,0.0,0.0,0.0,0.0,0.0,0.0,0.0,0.0,0.0,-1.4703,0.0,0.0,-1.4951,-1.4811,-1.4005,-1.3009,-1.1856,-1.0694,-0.971,-0.8969,-0.7675,-0.6937,-0.7228,-0.6469,-0.5909,-0.5833,-0.4038,-0.2169,-0.0497,0.3264,0.6991,1.0455,1.2016,1.3771,1.5732,1.5112,1.5131,1.5809,1.6454,1.6975,1.7417,1.8345,1.8584,1.8369,1.892,1.9134,1.9177,1.997,2.0291,2.0176,1.9053,1.912,1.9843,1.9293,1.8772,1.8247,1.737,1.6909,1.6661,1.6361,1.6264,1.6292,1.6457,1.7438,1.8281,1.7147,1.8202,1.9605,1.9429,1.9991,2.0598,2.0557,2.0734,2.0764,2.0301,2.0169,2.0308,2.0848,2.0947,2.1086,2.1535,2.1244,2.0776,2.0235,1.964,1.9353,1.9654,1.955,1.9527,1.973,1.9067,1.8681,1.8933,1.8246,1.7811,1.7811,1.7159,1.7109,1.7776,1.6789,1.672,1.7667,1.7153,1.721,1.7807,1.7334,1.7088,1.7088,1.6775,1.6527,0.0,0.0,0.0,0.0,0.0,0.0,0.0,0.0,-1.5532,-1.5174,-1.5334,-1.5352,-1.4665,-1.4675,-1.4778,-1.4854,-1.3624,-1.2311,-1.1281,-1.0278,-0.9371,-0.8483,-0.7913,-0.7555,-0.7555,-0.7555,-0.7519,-0.7436,-0.6253,-0.4827,-0.3138,0.0,0.3265,0.6467,0.8981,1.1239,1.3276,1.4339,1.4993,1.5252,1.5732,1.6107,1.6331,1.6769,1.7015,1.716,1.7719,1.8221,1.87,1.9139,1.9317,1.9207,1.8313,1.8461,1.9075,1.8429,1.7585,1.6701,1.612,1.5552,1.4977,1.4492,1.4313,1.4359,1.4457,1.5519,1.651,1.5994,1.7153,1.8609,1.8771,1.9482,2.0161,2.0271,2.0568,2.0758,2.0468,2.0411,2.0676,2.1607,2.183,2.2076,2.278,2.29,2.2416,2.102,2.063,2.0401,2.0087,1.992,1.9623,1.9053,1.895,1.8829,1.8653,1.8384,1.8242,1.8242,1.765,1.7588,1.8183,1.7105,1.7112,1.8368,1.7223,1.7209,1.8407,1.6994,1.6608,1.7085,1.5832,1.533,-1.6885,-1.7185,-1.7801,-1.8889,-1.8454,-1.8157,0.0,0.0,-1.6401,-1.6167,-1.4953,-1.3744,-1.3067,-1.3105,-1.3264,-1.3245,-1.3057,-1.2296,-1.0707,-1.0602,-0.9956,-0.818,-0.7879,-0.7876,-0.7876,-0.7876,-0.7858,-0.7829,-0.7332,-0.6676,-0.5796,-0.3739,-0.1552,0.0732,0.4137,0.6951,0.9076,1.1103,1.2714,1.3887,1.4023,1.4681,1.572,1.5758,1.6083,1.6626,1.7232,1.7722,1.8173,1.8294,1.8317,1.821,1.7619,1.7463,1.745,1.6329,1.557,1.4915,1.4313,1.3643,1.31,1.3009,1.3009,1.3105,1.3658,1.4367,1.5061,1.5487,1.6138,1.6924,1.7852,1.9356,2.0573,2.0362,2.1192,2.1923,2.1591,2.1696,2.1988,2.2409,2.2634,2.2789,2.2874,2.29,2.2828,2.2642,2.2439,2.1983,2.1077,2.0789,2.0235,1.9124,1.9606,2.0073,2.0225,1.9952,1.9748,1.9748,1.94,1.9344,1.965,1.9249,1.8475,1.7299,1.8151,1.794,1.6576,1.6427,1.6435,1.647,1.5333,1.5054,-1.9394,-1.9216,-1.9315,0.0,-2.0829,-2.0285,-2.0627,-1.9193,-1.7406,-1.599,-1.4871,-1.3828,-1.2997,-1.2884,-1.2914,0.0,-1.2575,-1.1877,-1.0813,-1.0374,-0.9689,-0.8332,-0.8337,-0.8373,-0.8203,-0.819,-0.8257,-0.8427,-0.7869,-0.7611,-0.77,-0.529,-0.3504,-0.2643,0.0907,0.3782,0.601,0.8518,1.0717,1.2527,1.336,1.4204,1.5062,1.5303,1.5934,1.6906,1.7554,1.7965,1.8169,1.8517,1.8455,1.8128,1.7918,1.7199,1.6212,1.5784,1.5448,1.5045,1.3684,1.3019,1.2672,1.189,1.1648,1.1742,1.2425,1.3057,1.3779,1.4818,1.5702,1.6699,1.812,1.925,2.0156,2.0558,2.1063,2.1478,2.1561,2.1664,2.2013,2.2953,2.3228,2.3489,2.4079,2.4183,2.4234,2.4393,2.3481,2.2537,2.1881,2.1719,2.117,1.9829,2.0002,2.0179,2.0102,2.0209,2.0288,2.0288,1.9563,1.9389,1.9882,1.8934,1.8336,1.8137,1.7639,1.7228,1.6893,1.5948,1.5636,1.5922,1.4321,1.3726,-2.0824,-2.0737,0.0,-2.2857,-2.2715,-2.1902,-2.1275,-2.0034,-1.8322,-1.6084,-1.4982,-1.4172,-1.3324,-1.3152,-1.3195,-1.3387,-1.2817,-1.2101,-1.1453,-1.0758,-0.9976,-0.891,-0.8978,-0.8926,-0.8565,-0.8494,-0.8581,-0.8791,-0.8318,-0.8262,-0.8755,-0.6556,-0.5233,-0.499,-0.1897,0.0757,0.2761,0.5559,0.7999,0.9969,1.1567,1.2773,1.3736,1.4459,1.5301,1.6143,1.6851,1.7123,1.7107,1.7809,1.7797,1.7377,1.7211,1.6361,1.5252,1.4824,1.4605,1.431,1.2802,1.2132,1.1805,1.0924,1.0597,1.0631,1.1188,1.1936,1.2773,1.3878,1.5016,1.6237,1.7585,1.8536,1.9375,2.0281,2.0673,2.1057,2.1697,2.1882,2.2255,2.3409,2.3729,2.4056,2.4879,2.5055,2.5162,2.5337,2.4372,2.3402,2.2821,2.2429,2.1904,2.1052,2.0888,2.0847,2.0878,2.1017,2.1108,2.1108,2.0198,1.9822,2.0177,1.904,1.8488,1.8693,1.7457,1.6799,1.681,1.5447,1.4888,1.5084,1.3333,1.2531,-2.0428,0.0,-2.1944,-2.403,-2.3746,-2.2833,-2.2374,-2.0903,-1.9057,-1.6915,-1.5449,-1.4417,-1.3857,-1.3774,-1.3956,-1.4566,-1.4143,-1.3521,-1.2822,-1.2146,-1.1262,-0.9898,-0.9758,-0.9506,0.0,-0.8794,-0.8798,-0.8808,-0.8755,-0.8755,-0.8808,-0.8046,-0.7286,-0.6583,-0.4338,-0.2462,-0.1036,0.1894,0.4102,0.5597,0.7722,0.9633,1.1262,1.2821,1.3561,1.3647,1.4252,1.44,1.4276,1.5285,1.5574,1.5313,1.4676,1.4589,1.462,1.2936,1.2158,1.1805,1.1111,1.0415,0.9914,1.0245,1.0079,0.9874,1.0252,1.1046,1.1958,1.2672,1.3779,1.492,1.5537,1.6876,1.8278,1.9204,2.0149,2.1148,2.2392,2.2814,2.316,2.3847,2.4142,2.4388,2.4752,2.4969,2.508,2.5018,2.5248,2.5037,2.3995,2.2773,2.2241,2.2859,2.2623,2.2742,2.3521,2.3014,2.2626,2.2626,2.1922,2.1342,2.0967,2.0503,1.955,1.8136,1.8075,1.7243,1.563,1.5008,1.4411,1.3815,1.2444,1.181,-2.184,-2.3042,-2.4048,-2.4971,-2.4875,-2.4365,-2.37,-2.2138,-2.0104,-1.7544,-1.6578,-1.5979,-1.5332,-1.5795,-1.6268,-1.6107,-1.5888,-1.5044,-1.3102,-1.2628,-1.1897,-1.0393,-1.0376,0.0,0.0,0.0,0.0,-0.8808,-0.8808,-0.8808,-0.8808,-0.8103,-0.756,-0.7345,-0.5682,-0.4072,-0.2627,-0.0653,0.1298,0.3225,0.5381,0.7372,0.9234,1.0352,1.1292,1.2103,1.287,1.2959,1.2643,1.3329,1.3352,1.2932,1.2712,1.2494,1.2049,1.0613,0.9754,0.949,1.043,1.057,1.0317,0.9996,1.0174,1.0644,1.119,1.179,1.2489,1.3566,1.3994,1.4411,1.5784,1.6536,1.7363,1.9134,1.9986,2.0735,2.2035,2.2565,2.2935,2.3374,2.3511,2.3724,2.4182,2.4342,2.4516,2.4946,2.5097,2.5051,2.4743,2.3619,2.2942,2.3167,2.2978,2.2948,2.3213,2.3322,2.3268,2.3045,2.2344,2.166,2.1031,2.055,1.963,1.811,1.8113,1.7478,1.6208,1.52,1.4612,1.4324,1.2136,1.1166,-2.3731,-2.4764,-2.5559,-2.6863,-2.6358,-2.5448,-2.5045,-2.316,-2.1007,-1.9138,-1.784,-1.7116,-1.7269,-1.7619,-1.7712,-1.7218,-1.6896,-1.5976,-1.3817,-1.316,-1.2458,-1.1392,-1.1215,-1.0872,0.0,0.0,0.0,-0.8857,-0.8808,-0.8699,-0.8424,-0.8209,-0.772,-0.6956,-0.6251,-0.5228,-0.3821,-0.2578,-0.0784,0.1687,0.317,0.4973,0.6992,0.739,0.8169,0.9202,0.9773,0.9867,0.9718,1.0237,1.0299,1.0086,0.9863,0.961,0.924,0.832,0.7795,0.7757,0.898,0.9398,0.9418,0.9365,0.9674,1.0168,1.0974,1.1648,1.2219,1.3066,1.3705,1.4365,1.5514,1.6096,1.6928,1.8874,1.9518,2.0107,2.1611,2.2113,2.245,2.2939,2.3021,2.3218,2.3799,2.4044,2.4376,2.4946,2.5017,2.5021,2.5063,2.44,2.3917,2.3836,2.3722,2.3614,2.3546,2.3699,2.369,2.3392,2.2565,2.1832,2.1204,2.0593,1.9778,1.8688,1.8295,1.7653,1.6763,1.5359,1.4606,1.4329,1.194,1.0813,-2.6041,-2.6386,-2.6646,-2.9453,-2.8115,-2.6138,-2.6195,-2.3935,-2.1715,-2.1354,-1.9205,-1.789,0.0,0.0,-1.8362,-1.7855,-1.7346,-1.6481,-1.5067,-1.3928,-1.3155,0.0,0.0,0.0,0.0,0.0,0.0,-0.9003,0.0,-0.8556,-0.7794,-0.8406,-0.78,-0.5662,-0.623,-0.6001,-0.4757,-0.4052,-0.2194,0.0728,0.0965,0.2321,0.4601,0.4216,0.4484,0.5127,0.5185,0.5364,0.5792,0.6135,0.6522,0.6822,0.6186,0.6055,0.6252,0.6075,0.6203,0.6498,0.6854,0.7036,0.7308,0.8432,0.8589,0.8678,0.9799,1.0677,1.1288,1.1416,1.2945,1.4599,1.4691,1.5603,1.6837,1.838,1.8747,1.9287,2.1093,2.1552,2.1803,2.2503,2.266,2.2923,2.3566,2.4127,2.461,2.502,2.5037,2.5013,2.5024,2.5066,2.5019,2.4846,2.4818,2.4731,2.4536,2.4201,2.3947,2.3726,2.2736,2.1958,2.1535,2.0758,2.0124,1.9682,1.865,1.7833,1.722,1.554,1.4422,1.3821,1.1751,1.0813,-2.8804,-2.9435,-2.953,-2.9396,-2.8635,-2.7301,-2.522,-2.4219,-2.2924,-2.0101,-1.9806,-1.9889,0.0,0.0,0.0,-1.9036,-1.9154,0.0,-1.6313,-1.6133,0.0,-1.4704,0.0,-1.3888,-1.2802,-1.2061,0.0,0.0,-1.0108,-0.9601,-0.8844,-0.8639,-0.8133,-0.7322,-0.6524,-0.5992,-0.5686,-0.4913,-0.359,-0.1652,-0.1588,-0.0306,0.2044,0.201,0.2486,0.3236,0.3344,0.3425,0.3554,0.3644,0.3699,0.38,0.3611,0.363,0.3651,0.3633,0.4042,0.4657,0.479,0.6119,0.78,0.8111,0.8573,0.9202,1.0105,1.0555,1.1106,1.2599,1.303,1.3381,1.4795,1.5372,1.5954,1.7358,1.8232,1.9045,1.9936,2.0903,2.1642,2.1832,2.2315,2.2839,2.3236,2.3778,2.4296,2.4799,2.4989,2.5153,2.5349,2.5176,2.502,2.502,2.4892,2.4775,2.4731,2.4508,2.4247,2.3938,2.3298,2.2496,2.1526,2.107,2.0272,1.9125,1.8848,1.8217,1.7286,1.596,1.501,1.4422,1.1935,1.0813,-3.0244,-3.0817,-3.0764,-3.0235,-2.9035,-2.7445,-2.528,-2.4166,-2.3074,-2.1287,-2.1028,0.0,-2.114,0.0,0.0,0.0,0.0,0.0,-1.7532,-1.7291,-1.7003,0.0,-1.5558,0.0,-1.3943,-1.3232,-1.2595,0.0,-1.0683,-0.9701,-0.8966,-0.8579,-0.7996,-0.7163,-0.6406,-0.585,-0.5618,-0.5264,-0.4278,-0.2618,-0.2898,-0.1765,0.0577,0.0381,0.064,0.1378,0.0,0.1526,0.1543,0.1543,0.1543,0.1543,0.1543,0.1543,0.1543,0.1943,0.241,0.2945,0.3747,0.5001,0.6384,0.7174,0.7745,0.8305,0.9609,1.0016,1.0404,1.2043,1.2694,1.317,1.4348,1.5362,1.6279,1.7024,1.8044,1.8998,1.9485,2.0335,2.1126,2.1521,2.2214,2.2772,2.2947,2.3352,2.3832,2.4366,2.4625,2.4895,2.527,2.5262,2.5211,2.5193,2.5111,2.5013,2.4904,2.4727,2.4515,2.4237,2.3568,2.2845,2.202,2.1364,2.0542,1.9528,1.911,1.8496,1.7666,1.6206,1.5223,1.4658,1.2029,1.0813,-3.117,-3.1499,-3.1299,-3.1319,-2.9475,-2.7239,-2.5656,-2.3986,-2.285,-2.3115,0.0,-2.174,-2.2866,-2.2357,-2.1173,-1.9401,0.0,-1.9802,-1.8662,-1.8193,-1.7877,-1.7563,-1.6525,-1.57,-1.5277,-1.4588,-1.3894,-1.3151,-1.1167,-0.9652,-0.8841,-0.8625,-0.78,-0.6295,-0.6061,-0.5649,-0.5159,-0.5294,-0.4486,-0.2677,-0.3327,-0.2355,0.0,-0.0639,-0.0578,0.0,0.0,0.0,0.0,0.0,0.0,0.0,0.0,0.0,0.0067,0.0873,0.1207,0.1541,0.3212,0.3882,0.428,0.5996,0.6525,0.6852,0.8484,0.9033,0.9385,1.0643,1.2041,1.3228,1.3738,1.5309,1.6799,1.7042,1.7936,1.8914,1.9424,1.9952,2.0569,2.1438,2.213,2.2591,2.2686,2.2939,2.3315,2.3902,2.4153,2.446,2.5021,2.5322,2.5446,2.5338,2.5366,2.5306,2.5072,2.4904,2.4731,2.4552,2.3735,2.3058,2.2625,2.1602,2.0805,2.0314,1.9434,1.8696,1.8099,1.6401,1.5301,1.4652,1.2132,1.0868,-3.3108,-3.3349,-3.2931,-3.1362,-2.9935,-2.8076,-2.497,-2.4212,0.0,0.0,-2.166,-2.1568,-2.0557,-2.013,0.0,-1.8277,0.0,0.0,0.0,0.0,-2.0708,0.0,0.0,0.0,0.0,0.0,0.0,0.0,0.0,-1.0948,-0.9926,-0.9392,-0.8358,-0.6686,-0.5925,-0.5425,-0.5321,-0.5413,-0.4486,-0.2678,-0.2862,-0.1868,0.0,-0.0133,-0.0133,0.0,0.0,0.0,0.0,0.0,0.0,0.0,0.0,0.0,0.0,0.0202,0.0672,0.1474,0.2543,0.3413,0.4148,0.5286,0.5622,0.5817,0.6852,0.7453,0.8223,1.0083,1.1132,1.2065,1.3923,1.4661,1.5302,1.6767,1.7618,1.8279,1.8928,1.9779,2.0599,2.1427,2.1693,2.1989,2.2582,2.2746,2.3064,2.3882,2.4035,2.4292,2.4929,2.5255,2.5433,2.5457,2.5435,2.5381,2.5331,2.5001,2.479,2.4746,2.4024,2.331,2.2625,2.1831,2.1069,2.0306,1.9823,1.9088,1.8099,1.6796,1.5656,1.4652,1.258,1.1316,-3.308,-3.3563,-3.3423,-3.1909,-3.0058,-2.7924,-2.5249,0.0,0.0,0.0,-2.2099,-2.206,-2.0494,0.0,0.0,0.0,0.0,0.0,0.0,0.0,0.0,0.0,0.0,0.0,0.0,0.0,0.0,0.0,0.0,-1.2009,-1.0423,-0.9324,-0.8139,-0.6869,-0.6021,-0.5589,-0.5589,-0.5589,-0.4957,-0.3629,-0.3074,-0.2099,-0.0842,-0.0277,0.0,0.0,0.0,0.0,0.0,0.0,0.0,0.0,0.0,0.0,0.0,0.0,0.0269,0.0806,0.2211,0.2945,0.3547,0.4956,0.5428,0.5557,0.6461,0.6779,0.7228,0.9292,1.0229,1.0985,1.2633,1.3669,1.453,1.5526,1.6831,1.8259,1.9602,2.0144,2.0631,2.1292,2.1352,2.1413,2.1761,2.2,2.2399,2.3172,2.3533,2.4026,2.4794,2.51,2.5304,2.5429,2.5415,2.5404,2.5401,2.5027,2.4804,2.4804,2.4118,2.3473,2.2935,2.1992,2.1248,2.069,2.0042,1.9169,1.8099,1.6872,1.5737,1.4652,1.273,1.1462,-3.2708,-3.3517,-3.3771,-3.251,-3.0188,-2.7678,-2.5783,-2.4166,0.0,0.0,-2.2347,-2.2045,-2.0681,0.0,0.0,0.0,0.0,0.0,0.0,0.0,0.0,0.0,0.0,0.0,0.0,0.0,0.0,0.0,0.0,0.0,-1.0796,-0.9138,-0.7911,-0.7269,-0.63,-0.5801,-0.5801,-0.5801,-0.5362,-0.4491,-0.341,-0.247,-0.1598,-0.0497,0.0,0.0,0.0,0.0,0.0,0.0,0.0,0.0,0.0,0.0,0.0,0.0,0.0,0.0269,0.2078,0.2678,0.3011,0.4821,0.5428,0.5557,0.6203,0.6359,0.6656,0.8302,0.9152,0.9888,1.1188,1.257,1.3784,1.4714,1.6513,1.845,1.9791,2.0203,2.041,2.0864,2.0884,2.0894,2.0991,2.1337,2.1836,2.2505,2.3079,2.3768,2.4678,2.4939,2.5127,2.5364,2.54,2.5402,2.5401,2.5066,2.4837,2.4804,2.422,2.3665,2.3221,2.2257,2.1513,2.0999,2.0243,1.9266,1.8099,1.6872,1.5737,1.4658,1.289,1.157,-3.2966,-3.4071,-3.4504,-3.2937,-3.049,-2.7991,-2.6242,0.0,0.0,-2.2257,-2.1416,-2.0495,-1.9757,-1.946,-1.92,0.0,0.0,-2.0077,0.0,0.0,0.0,0.0,0.0,0.0,0.0,0.0,0.0,0.0,0.0,0.0,-1.0969,-0.9228,-0.8252,-0.8449,-0.6714,-0.5801,-0.5801,-0.5801,-0.5362,-0.4491,-0.341,-0.247,-0.1598,-0.0497,0.0,0.0,0.0,0.0,0.0,0.0,0.0,0.0,0.0,0.0,0.0,0.0,0.0,0.0269,0.2078,0.2678,0.3011,0.4821,0.5428,0.5428,0.5491,0.6063,0.6698,0.6909,0.755,0.8567,1.0226,1.1272,1.2643,1.5638,1.7515,1.8558,1.8244,1.9051,1.9845,1.9753,2.0097,2.0516,2.0926,2.1337,2.1836,2.2505,2.2959,2.3605,2.4663,2.4823,2.497,2.5357,2.5404,2.5403,2.5398,2.5144,2.4933,2.4818,2.4566,2.4061,2.3236,2.2735,2.202,2.1023,2.0483,1.9549,1.8099,1.6872,1.5737,1.4658,1.3372,1.2103,-3.1736,-3.3264,-3.4377,-3.3762,-3.0671,-2.7536,-2.6655,0.0,-2.1767,-2.1968,-2.1138,-2.016,-1.9444,-1.9664,-1.9726,-1.9081,-1.9673,0.0,0.0,0.0,0.0,0.0,0.0,0.0,0.0,0.0,0.0,0.0,0.0,0.0,-1.0666,-0.9319,-0.8583,-0.8739,-0.6982,-0.6078,-0.6078,-0.6078,-0.5926,-0.5543,-0.387,-0.2864,-0.2452,-0.0798,0.0,0.0,0.0,0.0,0.0,0.0,0.0,0.0,0.0,0.0,0.0,0.0,0.0,0.0269,0.2078,0.2678,0.3011,0.4821,0.5428,0.5428,0.5428,0.5622,0.6009,0.6525,0.6979,0.763,0.9308,1.1117,1.289,1.4667,1.6244,1.7588,1.8339,1.8595,1.889,1.9613,1.9597,1.9607,2.0131,2.0797,2.1389,2.1859,2.2668,2.3511,2.4386,2.4684,2.4939,2.5293,2.5381,2.54,2.54,2.5195,2.5023,2.4933,2.4651,2.4155,2.3418,2.2874,2.2112,2.1023,2.055,1.957,1.8099,1.7241,1.6102,1.4703,1.3826,1.2511,-2.9916,-3.1722,-3.3101,-3.3097,-3.0282,-2.725,0.0,0.0,-2.1425,-2.1516,-2.0728,-1.9831,-1.9277,-1.9665,-1.9906,-1.9358,-1.984,-2.043,-2.0854,0.0,0.0,0.0,0.0,0.0,0.0,0.0,0.0,0.0,0.0,0.0,-1.058,-0.9487,-0.8825,-0.8529,-0.7106,-0.6338,-0.6338,-0.6338,-0.6338,-0.6261,-0.4139,-0.3087,-0.3016,-0.0957,0.0,0.0,0.0,0.0,0.0,0.0,0.0,0.0,0.0,0.0,0.0,0.0,0.0,0.0269,0.2078,0.2678,0.3011,0.4821,0.5428,0.5428,0.5686,0.5817,0.5945,0.6852,0.7242,0.7827,0.925,1.1139,1.2931,1.3908,1.5153,1.6528,1.7989,1.8074,1.8193,1.919,1.898,1.881,1.9369,2.017,2.0935,2.1415,2.2381,2.3334,2.4117,2.4414,2.4723,2.5163,2.5272,2.5327,2.5373,2.5263,2.513,2.5013,2.4785,2.4357,2.3687,2.3145,2.2331,2.1172,2.074,1.9791,1.8334,1.7558,1.642,1.4903,1.4133,1.273,-2.761,-2.9507,-3.0478,-3.0299,-2.9112,-2.7372,0.0,0.0,-2.1835,-2.0902,-1.9954,-1.927,-1.912,-1.9105,-1.9129,-1.9193,-1.926,-1.9584,-2.0391,0.0,0.0,0.0,0.0,0.0,0.0,0.0,0.0,0.0,0.0,0.0,-1.0929,-0.9814,-0.8841,-0.7855,-0.6793,-0.6338,-0.6338,-0.6338,-0.6338,-0.6261,-0.4139,-0.3087,-0.3016,-0.0957,0.0,0.0,0.0,0.0,0.0,0.0,0.0,0.0,0.0,0.0,0.0,0.0,0.0,0.0269,0.2078,0.2678,0.3011,0.4821,0.5428,0.5557,0.6396,0.6717,0.6848,0.7765,0.8616,0.9454,1.0305,1.1124,1.2197,1.3841,1.4758,1.5585,1.6611,1.739,1.7974,1.819,1.8173,1.8295,1.881,1.9611,2.049,2.1368,2.219,2.3017,2.3902,2.4007,2.425,2.4933,2.5059,2.5159,2.5292,2.5362,2.5281,2.5013,2.4998,2.4686,2.4016,2.3658,2.2867,2.1526,2.1172,2.0299,1.8893,1.7752,1.6619,1.5454,1.4343,1.273,-2.4946,-2.6845,-2.8311,-2.8285,-2.6496,-2.4522,-2.381,-2.1888,-2.0383,-2.0821,-2.0045,-1.9283,-1.9236,-1.9645,-1.9952,-1.9831,-2.0407,-2.1034,0.0,0.0,0.0,0.0,0.0,0.0,0.0,0.0,0.0,0.0,0.0,0.0,-0.9892,-0.8841,-0.8161,-0.7783,-0.6795,-0.621,-0.6105,-0.6208,-0.6154,-0.5947,-0.4009,-0.306,-0.2863,-0.0926,0.0,0.0,0.0,0.0,0.0,0.0,0.0,0.0,0.0,0.0,0.0,0.0,0.0,0.0269,0.2078,0.2678,0.3011,0.4821,0.5428,0.5688,0.7116,0.7177,0.685,0.7765,0.8616,0.9332,0.964,1.0703,1.2077,1.3122,1.3952,1.4758,1.5489,1.6176,1.6667,1.693,1.7293,1.782,1.8734,1.939,2.0108,2.1007,2.1803,2.2531,2.3231,2.3726,2.418,2.4672,2.4956,2.5168,2.5354,2.5387,2.5361,2.5278,2.5105,2.4828,2.442,2.4035,2.3298,2.2147,2.1611,2.0694,1.9376,1.8338,1.6812,1.4943,1.3679,1.2283,0.0,-2.3869,-2.5102,-2.5705,-2.4557,-2.311,-2.2498,-2.1141,-2.0094,-2.0446,-1.9968,-1.9462,-1.939,-2.0003,-2.0461,-2.0281,-2.1025,0.0,0.0,0.0,0.0,0.0,0.0,0.0,0.0,0.0,0.0,0.0,0.0,0.0,-0.9445,-0.8313,-0.7631,-0.7251,-0.6642,-0.6186,-0.6032,-0.6183,-0.5952,-0.5292,-0.3798,-0.2866,-0.2374,-0.0771,0.0,0.0,0.0,0.0,0.0,0.0,0.0,0.0,0.0,0.0,0.0,0.0,0.0,0.0269,0.2078,0.2678,0.3011,0.4821,0.5622,0.6141,0.757,0.8086,0.828,0.8801,0.9393,0.9789,0.9789,1.0538,1.1534,1.2389,1.3183,1.396,1.4755,1.5321,1.5831,1.6293,1.6541,1.6989,1.8092,1.8835,1.9555,2.0351,2.1295,2.2099,2.2599,2.3167,2.3728,2.4314,2.4633,2.4926,2.5263,2.5376,2.543,2.5396,2.5248,2.5046,2.4806,2.4353,2.3626,2.2609,2.2025,2.1123,1.9869,1.8464,1.6812,1.4982,1.3475,1.2087,0.0,-2.0709,0.0,-2.2688,-2.307,-2.2664,-2.1087,-2.083,0.0,-1.9876,-1.9754,-1.9748,-1.9605,-2.0246,-2.0741,-2.0659,0.0,0.0,0.0,0.0,0.0,0.0,0.0,0.0,0.0,0.0,0.0,0.0,0.0,0.0,-0.9445,-0.8313,-0.7249,-0.6338,-0.6251,-0.6174,-0.5879,-0.6105,-0.5569,-0.4349,-0.342,-0.2495,-0.1537,-0.049,0.0,0.0,0.0,0.0,0.0,0.0,0.0,0.0,0.0,0.0,0.0,0.0,0.0,0.0269,0.2078,0.2678,0.3011,0.4821,0.6011,0.685,0.7635,0.9064,1.0428,1.0561,1.0558,1.0495,1.0558,1.0624,1.0804,1.1589,1.2389,1.3245,1.4345,1.4797,1.5273,1.6133,1.5921,1.5971,1.7092,1.8083,1.8911,1.9498,2.0668,2.1579,2.1984,2.2398,2.2984,2.3824,2.4144,2.4505,2.5052,2.5325,2.5458,2.541,2.5405,2.5308,2.513,2.4629,2.3907,2.3021,2.2401,2.1483,2.0238,1.8261,1.6696,1.5454,1.3731,1.2181,-1.7008,0.0,-1.8742,-2.0377,-2.0283,-1.9861,0.0,-2.0095,-2.0036,-1.987,0.0,0.0,-2.0274,-2.1006,0.0,0.0,0.0,0.0,0.0,0.0,0.0,0.0,0.0,0.0,0.0,0.0,0.0,0.0,0.0,-1.1503,-0.9445,-0.7631,-0.6565,-0.6338,-0.6146,-0.5684,-0.4893,-0.5017,-0.4422,-0.312,-0.2339,-0.1731,-0.1327,-0.0412,0.0,0.0,0.0,0.0,0.0,0.0,0.0,0.0,0.0,0.0,0.0,0.0,0.0,0.0269,0.2078,0.2678,0.3011,0.4821,0.6011,0.6719,0.6913,0.7762,0.8868,1.0231,1.011,0.9786,1.0431,1.0624,1.0804,1.1589,1.1954,1.2333,1.3126,1.3755,1.4286,1.4976,1.5357,1.5971,1.7092,1.7497,1.8097,1.9382,1.9889,2.0361,2.1149,2.184,2.2488,2.3088,2.3712,2.4332,2.4975,2.5218,2.5376,2.5468,2.5375,2.5327,2.5335,2.4905,2.446,2.398,2.2739,2.1338,1.9756,1.886,1.7404,1.546,1.4653,1.3004,-1.607,-1.6883,-1.7805,-1.9125,-1.9371,-1.9405,-1.9852,0.0,0.0,0.0,0.0,0.0,0.0,0.0,0.0,0.0,0.0,0.0,0.0,0.0,0.0,0.0,0.0,0.0,0.0,0.0,0.0,0.0,0.0,-1.1279,-0.9367,-0.7403,-0.6338,-0.6338,-0.611,-0.5498,-0.4516,-0.4577,-0.3768,-0.2034,-0.1744,-0.1292,-0.07,-0.0205,0.0,0.0,0.0,0.0,0.0,0.0,0.0,0.0,0.0,0.0,0.0,0.0,0.0,0.0202,0.1609,0.2611,0.3547,0.4956,0.5752,0.6205,0.659,0.6724,0.7183,0.8932,0.9329,0.9402,0.9853,1.0301,1.0684,1.117,1.1414,1.1698,1.2251,1.2802,1.342,1.4131,1.4778,1.5493,1.6361,1.6967,1.7572,1.8401,1.9163,1.9791,2.0283,2.1233,2.2035,2.2496,2.3271,2.4017,2.4639,2.4919,2.5193,2.5481,2.5427,2.5414,2.544,2.5028,2.4482,2.3817,2.2667,2.1475,2.0249,1.9512,1.8163,1.6273,1.544,1.3871,-1.6079,-1.6908,-1.7689,-1.843,-1.9231,-1.983,-1.985,0.0,0.0,0.0,0.0,0.0,0.0,0.0,0.0,0.0,0.0,0.0,0.0,0.0,0.0,0.0,0.0,0.0,0.0,0.0,0.0,0.0,0.0,-1.1484,-0.9606,-0.7584,-0.6367,-0.6191,-0.6042,-0.5456,-0.4516,-0.4365,-0.321,-0.1104,-0.1241,-0.0864,0.0,0.0,0.0,0.0,0.0,0.0,0.0,0.0,0.0,0.0,0.0,0.0,0.0,0.0,0.0,0.0135,0.114,0.2678,0.4352,0.5158,0.5428,0.5557,0.6268,0.6011,0.5688,0.7183,0.8355,0.9139,0.9271,0.9916,1.0614,1.0567,1.0833,1.1229,1.1571,1.2021,1.2628,1.3619,1.419,1.4784,1.5493,1.6403,1.7098,1.7264,1.8486,1.9397,1.947,2.0602,2.1549,2.1967,2.2774,2.3551,2.4196,2.4504,2.4885,2.5363,2.5405,2.5418,2.5425,2.5014,2.432,2.3347,2.2643,2.189,2.1165,2.0158,1.8875,1.7262,1.6046,1.4449,-1.6156,-1.6973,-1.7616,-1.7758,-1.8431,-1.9085,-1.9139,0.0,0.0,0.0,0.0,0.0,0.0,0.0,0.0,0.0,0.0,0.0,0.0,0.0,0.0,0.0,0.0,0.0,0.0,0.0,0.0,0.0,0.0,-1.249,-1.041,-0.8399,-0.6882,-0.5876,-0.5732,-0.5269,-0.4515,-0.3617,-0.2131,-0.0233,-0.0223,-0.0145,0.0,0.0,0.0,0.0,0.0,0.0,0.0,0.0,0.0,0.0,0.0,0.0,0.0,0.0,0.0,0.0269,0.1877,0.3681,0.5224,0.536,0.5428,0.5427,0.5557,0.5493,0.5427,0.5754,0.699,0.8353,0.9139,0.9916,1.0561,1.0244,1.0204,1.0481,1.1212,1.1407,1.1926,1.3513,1.3862,1.4272,1.5404,1.5758,1.6195,1.7133,1.7894,1.8482,1.8954,1.9876,2.0774,2.1505,2.2018,2.2774,2.3941,2.41,2.4353,2.487,2.5012,2.5078,2.5079,2.4898,2.4511,2.3882,2.332,2.2677,2.1927,2.0686,1.927,1.7673,1.6204,1.4187,-1.5642,-1.6371,-1.7109,-1.7548,-1.8662,-1.9656,-1.9706,0.0,0.0,0.0,0.0,0.0,0.0,0.0,0.0,0.0,0.0,0.0,0.0,0.0,0.0,0.0,0.0,0.0,0.0,0.0,0.0,0.0,0.0,0.0,-1.0198,-0.8322,-0.6805,-0.5803,-0.5664,-0.5193,-0.4354,-0.3789,-0.2584,-0.0845,-0.0293,0.0,0.0,0.0,0.0,0.0,0.0,0.0,0.0,0.0,0.0,0.0,0.0,0.0,0.0,0.0,0.0267,0.0791,0.2199,0.3477,0.4491,0.508,0.5184,0.5137,0.5215,0.5182,0.5138,0.5216,0.6584,0.8091,0.8484,0.9585,1.0551,1.0187,1.0285,1.061,1.1154,1.1414,1.1934,1.3065,1.3595,1.4091,1.496,1.5365,1.5896,1.674,1.7585,1.8178,1.8458,1.9549,2.0426,2.0814,2.1423,2.2152,2.3051,2.3195,2.3748,2.4889,2.5018,2.5066,2.5108,2.4979,2.469,2.4228,2.3838,2.3076,2.1947,2.1242,1.9901,1.7928,1.6879,1.5331,-1.5449,-1.5993,-1.6753,-1.7777,-1.9029,-2.0183,-2.0766,0.0,0.0,0.0,0.0,0.0,0.0,0.0,0.0,0.0,0.0,0.0,0.0,0.0,0.0,0.0,0.0,0.0,0.0,0.0,0.0,0.0,0.0,0.0,-1.0464,-0.8515,-0.6972,-0.5992,-0.5712,-0.524,-0.449,-0.4162,-0.3105,-0.1497,-0.0717,-0.0211,0.0,0.0,0.0,0.0,0.0,0.0,0.0,0.0,0.0,0.0,0.0,0.0,0.0,0.0,0.0456,0.1278,0.2282,0.3062,0.3823,0.4729,0.5008,0.4938,0.5047,0.5006,0.4948,0.5089,0.6326,0.7612,0.7805,0.9077,1.0281,0.9983,1.013,1.0476,1.1047,1.1366,1.1823,1.2725,1.3286,1.3826,1.4566,1.5101,1.5638,1.638,1.7429,1.8099,1.8099,1.9295,2.0193,2.028,2.0847,2.1507,2.2262,2.2556,2.3337,2.4752,2.4996,2.512,2.5175,2.5093,2.4891,2.4572,2.4206,2.3419,2.2194,2.1821,2.0582,1.8555,1.787,1.6496,-1.6195,-1.6447,-1.6899,-1.858,-1.9092,0.0,-2.2171,-2.3188,0.0,-2.5631,0.0,0.0,0.0,0.0,0.0,0.0,0.0,0.0,0.0,0.0,0.0,0.0,0.0,0.0,0.0,0.0,0.0,0.0,0.0,0.0,-1.2213,-0.9678,-0.7726,-0.6394,-0.5763,-0.5382,-0.5324,-0.4319,-0.296,-0.1312,-0.1275,-0.077,0.0,0.0,0.0,0.0,0.0,0.0,0.0,0.0,0.0,0.0,0.0,0.0,0.0,0.0,0.0558,0.142,0.2226,0.3084,0.3935,0.4684,0.4928,0.4921,0.4931,0.4928,0.4948,0.5089,0.5713,0.6502,0.7158,0.854,0.9673,0.9316,0.9285,0.9614,1.0629,1.0834,1.1275,1.2622,1.2925,1.3334,1.452,1.4749,1.5158,1.6337,1.7429,1.8099,1.8099,1.9043,1.9874,2.0246,2.034,2.0847,2.2006,2.2709,2.3352,2.4035,2.4727,2.5097,2.5113,2.5156,2.5138,2.5043,2.4426,2.387,2.3372,2.2488,2.1343,2.002,1.8987,1.7076,-1.5656,-1.651,-1.7595,-1.8802,-1.9481,0.0,0.0,-2.3756,-2.4736,-2.5415,-2.6598,0.0,0.0,0.0,0.0,0.0,0.0,0.0,0.0,0.0,0.0,0.0,0.0,0.0,0.0,0.0,0.0,0.0,0.0,0.0,-1.1745,-1.0004,-0.8134,-0.6221,-0.5916,-0.5581,-0.5086,-0.4712,-0.3873,-0.2691,-0.1689,-0.0785,0.0,0.0,0.0,0.0,0.0,0.0,0.0,0.0,0.0,0.0,0.0,0.0,0.0,0.0,0.0487,0.1319,0.2199,0.2935,0.3661,0.4508,0.4711,0.4652,0.4748,0.4709,0.4667,0.4816,0.5617,0.6585,0.7273,0.8243,0.9073,0.9197,0.956,1.0056,1.0691,1.1116,1.1724,1.272,1.2881,1.3291,1.4474,1.4703,1.5107,1.6337,1.7111,1.7706,1.8059,1.8734,1.9391,1.9866,2.0151,2.0593,2.135,2.2082,2.2676,2.3165,2.4152,2.4843,2.5089,2.5126,2.5205,2.535,2.4937,2.4425,2.3802,2.299,2.1946,2.0684,1.9942,1.8501,-1.57,-1.6734,-1.8011,-1.8886,0.0,0.0,-2.3174,-2.4148,-2.4851,-2.5901,0.0,0.0,0.0,0.0,0.0,0.0,0.0,0.0,0.0,0.0,0.0,0.0,0.0,0.0,0.0,0.0,0.0,0.0,0.0,0.0,0.0,-1.0174,-0.8594,-0.6731,-0.626,-0.5727,-0.5202,-0.4965,-0.442,-0.3571,-0.2397,-0.1404,-0.0699,-0.0684,-0.0561,-0.0318,-0.0374,-0.0185,0.0,0.0,0.0,0.0,0.0,0.0,0.0,0.0,0.0295,0.0928,0.2014,0.2665,0.319,0.4295,0.4548,0.4537,0.4587,0.4601,0.4549,0.4646,0.5474,0.6425,0.7104,0.7963,0.872,0.898,0.9631,1.0246,1.0718,1.1316,1.2026,1.2769,1.2881,1.3291,1.4474,1.4703,1.5107,1.6337,1.6951,1.7429,1.7787,1.8334,1.8848,1.9406,1.9859,2.0288,2.0723,2.1478,2.2079,2.2495,2.3489,2.4292,2.477,2.4905,2.5109,2.5397,2.5226,2.4831,2.4216,2.3649,2.2748,2.1579,2.1233,2.0125,-1.6575,-1.7186,-1.8037,0.0,0.0,0.0,-2.4619,-2.4473,-2.4507,-2.7646,0.0,0.0,0.0,0.0,0.0,0.0,0.0,0.0,0.0,0.0,0.0,0.0,0.0,0.0,0.0,0.0,0.0,0.0,0.0,0.0,0.0,-1.0347,-0.9033,-0.8229,-0.6771,-0.5958,-0.5772,-0.5089,-0.4336,-0.3631,-0.3456,-0.3,-0.221,-0.221,-0.1781,-0.1108,-0.1107,-0.0677,0.0,0.0,0.0,0.0,0.0,0.0,0.0,0.0,0.0,0.0224,0.1675,0.2175,0.2453,0.4013,0.4517,0.4517,0.4517,0.4517,0.4549,0.4645,0.5078,0.5747,0.6675,0.7853,0.8808,0.8808,0.9309,0.9965,1.0665,1.1316,1.2026,1.2769,1.2881,1.3291,1.4479,1.4703,1.5113,1.6293,1.6951,1.7312,1.7312,1.7787,1.8295,1.8848,1.9369,1.9874,2.028,2.1022,2.1653,2.206,2.2788,2.3469,2.407,2.4477,2.4858,2.5186,2.5203,2.5045,2.4707,2.4494,2.39,2.292,2.292,2.1804,-1.5854,-1.7584,0.0,0.0,0.0,0.0,0.0,-2.5269,0.0,0.0,0.0,0.0,0.0,0.0,0.0,0.0,0.0,0.0,0.0,0.0,0.0,0.0,0.0,0.0,0.0,0.0,0.0,0.0,0.0,0.0,0.0,-1.084,-0.9606,-0.7892,-0.6915,-0.6135,-0.5571,-0.4916,-0.4473,-0.4244,-0.4201,-0.3478,-0.2197,-0.2206,-0.2095,-0.1901,-0.1858,-0.1438,-0.0749,-0.0231,0.0,0.0,0.0,0.0,0.0,0.0,0.0,0.0112,0.1118,0.1786,0.2342,0.3343,0.4015,0.4517,0.4517,0.4517,0.4527,0.4572,0.5376,0.6327,0.6609,0.7725,0.8808,0.8808,0.9309,0.9965,1.0665,1.1316,1.2026,1.2769,1.2881,1.3152,1.3915,1.4427,1.4971,1.5732,1.6355,1.6873,1.7229,1.7787,1.8295,1.8848,1.905,1.9442,2.0238,2.0518,2.0967,2.1706,2.1952,2.2658,2.398,2.419,2.455,2.5122,2.5127,2.515,2.5192,2.4797,2.4466,2.4155,2.3832,2.2954,-1.6367,0.0,0.0,0.0,0.0,0.0,0.0,0.0,0.0,0.0,0.0,0.0,0.0,0.0,0.0,0.0,0.0,0.0,0.0,0.0,0.0,0.0,0.0,0.0,0.0,0.0,0.0,0.0,0.0,0.0,0.0,-1.0933,-0.9997,-0.8209,-0.7399,-0.6799,-0.6357,-0.5658,-0.5336,-0.5336,-0.5062,-0.4383,-0.3491,-0.3258,-0.2931,-0.264,-0.2306,-0.1953,-0.1508,-0.0727,-0.0448,-0.0392,-0.0112,0.0,0.0,0.0,0.0,0.0112,0.0839,0.1396,0.1953,0.2954,0.3622,0.4068,0.4406,0.4517,0.4517,0.4517,0.55,0.6588,0.6588,0.767,0.8808,0.8808,0.9514,1.0214,1.0364,1.1379,1.229,1.2452,1.2715,1.3109,1.3684,1.4097,1.4641,1.5493,1.6101,1.6637,1.6957,1.747,1.798,1.8535,1.8772,1.914,1.9707,2.0101,2.0426,2.0774,2.1165,2.1848,2.2962,2.3562,2.4052,2.4494,2.4715,2.4922,2.5122,2.444,2.4319,2.4709,2.3599,2.2823,-1.7525,0.0,0.0,0.0,0.0,0.0,0.0,0.0,0.0,0.0,0.0,0.0,0.0,0.0,0.0,0.0,0.0,0.0,0.0,0.0,0.0,0.0,0.0,0.0,0.0,0.0,0.0,0.0,0.0,0.0,-1.0868,-1.0813,-1.0167,-0.8857,-0.8103,-0.7723,-0.7723,-0.6966,-0.6588,-0.6588,-0.5925,-0.5542,-0.5487,-0.4787,-0.4125,-0.3343,-0.262,-0.2286,-0.2231,-0.1507,-0.1173,-0.1118,-0.0448,-0.0168,-0.0112,-0.0112,-0.0056,0.0112,0.0783,0.1062,0.1341,0.2675,0.3121,0.3343,0.4125,0.4405,0.4406,0.4462,0.5443,0.6534,0.6586,0.767,0.8699,0.8804,0.9762,1.0513,0.9913,1.1342,1.2515,1.1922,1.2344,1.3002,1.3589,1.3821,1.4272,1.5499,1.6145,1.6515,1.6515,1.6915,1.7429,1.798,1.8496,1.881,1.881,1.9707,2.0024,1.957,2.0426,2.1046,2.1299,2.263,2.3398,2.347,2.4027,2.4398,2.4564,2.3696,2.3754,2.4668,2.2705,2.1879,0.0,-1.8011,0.0,0.0,0.0,0.0,0.0,0.0,0.0,0.0,0.0,0.0,0.0,0.0,0.0,0.0,0.0,0.0,0.0,0.0,0.0,0.0,0.0,0.0,0.0,0.0,0.0,0.0,0.0,0.0,-1.0868,-1.0813,-1.0167,-0.8857,-0.8103,-0.7723,-0.7723,-0.6966,-0.6588,-0.6588,-0.6423,-0.6036,-0.5487,-0.4787,-0.4406,-0.4182,-0.3456,-0.3122,-0.3066,-0.2286,-0.1953,-0.1953,-0.1786,-0.1396,-0.0839,-0.0839,-0.0504,0.0,0.0168,0.0615,0.1174,0.1452,0.1953,0.2564,0.3343,0.3566,0.3678,0.4348,0.5113,0.5871,0.6423,0.7292,0.8103,0.8646,0.9413,0.9965,0.981,1.0568,1.1375,1.1715,1.1918,1.2286,1.2953,1.3878,1.4926,1.6101,1.6429,1.6515,1.6515,1.6595,1.6873,1.7429,1.794,1.8256,1.8256,1.9229,1.9586,1.9023,1.9881,2.0286,1.9867,2.1483,2.2436,2.2496,2.3295,2.3628,2.3519,2.3674,2.387,2.4075,2.2933,2.2187,0.0,0.0,0.0,0.0,0.0,0.0,0.0,0.0,0.0,0.0,0.0,0.0,0.0,0.0,0.0,0.0,0.0,0.0,0.0,0.0,0.0,0.0,0.0,0.0,0.0,0.0,0.0,0.0,0.0,-1.2309,-1.0868,-1.0813,-1.0167,-0.8857,-0.8427,-0.8212,-0.8212,-0.783,-0.7667,-0.7667,-0.7172,-0.6475,-0.5643,-0.4824,-0.468,-0.4948,-0.4556,-0.439,-0.4333,-0.3553,-0.3059,-0.2676,-0.2342,-0.1953,-0.1563,-0.1229,-0.0839,-0.0504,-0.0112,0.0224,0.0615,0.1006,0.1341,0.1786,0.2564,0.2788,0.2953,0.3735,0.4445,0.5148,0.5869,0.6635,0.7292,0.7667,0.882,0.9714,0.9413,1.0115,1.0914,1.1262,1.1566,1.2026,1.2774,1.3889,1.5017,1.5914,1.6324,1.6515,1.6515,1.6515,1.6716,1.7229,1.7544,1.7706,1.7706,1.8458,1.8674,1.8129,1.8813,1.9111,1.8793,1.9909,2.0742,2.1246,2.2096,2.2416,2.2156,2.1916,2.2229,2.2982,2.1089,2.0483,0.0,0.0,0.0,0.0,0.0,0.0,0.0,0.0,0.0,0.0,0.0,0.0,0.0,0.0,0.0,0.0,0.0,0.0,0.0,0.0,0.0,0.0,0.0,0.0,0.0,0.0,0.0,0.0,0.0,-1.2358,-1.1065,-1.0864,-1.0265,-0.9008,-0.8857,-0.8808,-0.8808,-0.8808,-0.8781,-0.8731,-0.7707,-0.6803,-0.5926,-0.5104,-0.5041,-0.5601,-0.569,-0.5706,-0.5649,-0.5035,-0.4325,-0.3618,-0.3005,-0.2618,-0.2342,-0.173,-0.1341,-0.1006,-0.0392,-0.0112,0.0112,0.0727,0.0895,0.1062,0.1786,0.2008,0.2175,0.2955,0.3612,0.4208,0.4927,0.5645,0.6251,0.6359,0.7847,0.9138,0.8689,0.9607,1.0517,1.0767,1.1416,1.2227,1.305,1.4025,1.4926,1.5638,1.6188,1.6515,1.6515,1.6515,1.6674,1.7111,1.7229,1.7271,1.7153,1.7747,1.782,1.7188,1.7747,1.802,1.782,1.8363,1.9001,1.9693,2.0655,2.0961,2.0632,1.9853,2.021,2.1559,1.892,1.8437,0.0,0.0,0.0,0.0,0.0,0.0,0.0,0.0,0.0,0.0,0.0,0.0,0.0,0.0,0.0,0.0,0.0,0.0,0.0,0.0,0.0,0.0,0.0,0.0,0.0,0.0,0.0,0.0,-1.3238,-1.2559,-1.1715,-1.1116,-1.0462,-0.9714,-0.911,-0.8808,-0.8808,-0.8808,-0.8681,-0.8427,-0.7364,-0.6818,-0.6639,-0.5925,-0.5805,-0.6137,-0.6338,-0.6477,-0.6423,-0.6364,-0.5869,-0.521,-0.5099,-0.4331,-0.3233,-0.3065,-0.2175,-0.1062,-0.1006,-0.056,0.0,0.0112,0.0168,0.028,0.1006,0.1229,0.1396,0.2175,0.2452,0.2669,0.3377,0.4147,0.4863,0.5506,0.6338,0.7176,0.7723,0.8471,0.9409,1.0564,1.1841,1.3142,1.4247,1.4612,1.5062,1.6194,1.6466,1.6515,1.6515,1.6515,1.6515,1.6595,1.7034,1.7111,1.6637,1.751,1.7666,1.6674,1.7544,1.7666,1.6752,1.7659,1.8039,1.7673,1.8994,1.9484,1.9104,1.9316,1.9531,1.9726,1.8526,1.8061,0.0,0.0,0.0,0.0,0.0,0.0,0.0,0.0,0.0,0.0,0.0,0.0,0.0,0.0,0.0,0.0,0.0,0.0,0.0,0.0,0.0,0.0,0.0,0.0,0.0,0.0,0.0,0.0,-1.3238,-1.2564,-1.1819,-1.1166,-1.0428,-0.9599,-0.8908,-0.8484,-0.8317,-0.8317,-0.8163,-0.7913,-0.7437,-0.7101,-0.6911,-0.6789,-0.6664,-0.6555,-0.6667,-0.68,-0.6985,-0.6985,-0.6635,-0.6093,-0.5651,-0.5101,-0.4489,-0.3546,-0.2766,-0.2112,-0.1276,-0.0793,-0.0425,-0.0108,0.0,0.0055,0.039,0.0504,0.0615,0.1396,0.1563,0.1729,0.2501,0.2944,0.3331,0.3937,0.4761,0.5638,0.6517,0.7501,0.8725,1.0458,1.1575,1.2672,1.3951,1.4195,1.4601,1.582,1.6008,1.6139,1.6472,1.6515,1.6515,1.6515,1.6716,1.6752,1.6515,1.6623,1.6617,1.6509,1.6324,1.6127,1.6002,1.644,1.6598,1.6361,1.7884,1.845,1.7978,1.7817,1.8011,1.8562,1.6901,1.6622,0.0,0.0,0.0,0.0,0.0,0.0,0.0,0.0,0.0,0.0,0.0,0.0,0.0,0.0,0.0,0.0,0.0,0.0,0.0,0.0,0.0,0.0,0.0,0.0,0.0,0.0,0.0,0.0,-1.3191,-1.2467,-1.1762,-1.0982,-1.0274,-0.9735,-0.8784,-0.8199,-0.8112,-0.7896,-0.7695,-0.751,-0.7432,-0.7238,-0.6985,-0.7251,-0.7193,-0.6879,-0.7017,-0.72,-0.7451,-0.752,-0.7206,-0.6576,-0.5989,-0.5552,-0.5175,-0.3852,-0.3193,-0.2869,-0.1778,-0.1209,-0.081,-0.0364,-0.0105,0.0,0.0,0.0,0.0109,0.0661,0.0828,0.094,0.1505,0.1786,0.2009,0.2402,0.317,0.4318,0.5971,0.7326,0.8708,1.0254,1.1216,1.2155,1.3326,1.381,1.437,1.5448,1.572,1.6002,1.6429,1.6515,1.6515,1.6515,1.6374,1.6281,1.6281,1.5732,1.5549,1.6014,1.5203,1.492,1.5365,1.5365,1.5448,1.5588,1.667,1.7101,1.6883,1.644,1.6524,1.7139,1.5452,1.5053,0.0,0.0,0.0,0.0,0.0,0.0,0.0,0.0,0.0,0.0,0.0,0.0,0.0,0.0,0.0,0.0,0.0,0.0,0.0,0.0,0.0,0.0,0.0,0.0,0.0,0.0,0.0,0.0,-1.3022,-1.2124,-1.1621,-1.0435,-1.0014,-1.0503,-0.8821,-0.8173,-0.8655,-0.7899,-0.7527,-0.7506,-0.7181,-0.7037,-0.7021,-0.7037,-0.7009,-0.7012,-0.7583,-0.7844,-0.788,-0.8207,-0.775,-0.6747,-0.6486,-0.5791,-0.4834,-0.4182,-0.3525,-0.2921,-0.2815,-0.1961,-0.0908,-0.0859,-0.0455,0.0,0.0,0.0,0.0,0.0053,0.0053,0.0054,0.0111,0.0615,0.1173,0.1173,0.1786,0.3274,0.684,0.8715,0.971,0.981,1.0918,1.2003,1.2725,1.3831,1.4875,1.5493,1.6101,1.6466,1.6515,1.6515,1.6515,1.6515,1.6002,1.5632,1.5632,1.5101,1.4744,1.4789,1.4744,1.4703,1.4744,1.4744,1.5011,1.5588,1.5141,1.5135,1.5676,1.567,1.5359,1.4869,1.4744,1.3672,0.0,0.0,0.0,0.0,0.0,0.0,0.0,0.0,0.0,0.0,0.0,0.0,0.0,0.0,0.0,0.0,0.0,0.0,0.0,0.0,0.0,0.0,0.0,0.0,0.0,0.0,0.0,0.0,0.0,-1.1765,-1.1601,-1.0745,-1.0268,-1.0281,-0.8878,-0.7985,-0.7601,-0.7321,-0.7181,-0.7181,-0.7074,-0.6979,-0.6979,-0.6979,-0.6979,-0.7034,-0.7208,-0.7455,-0.7655,-0.7963,-0.7983,-0.771,-0.6785,-0.6154,-0.57,-0.4379,-0.3726,-0.3425,-0.2914,-0.247,-0.2013,-0.1588,-0.1309,-0.1072,-0.0701,-0.0555,-0.0508,-0.0105,0.0,0.0,0.0,0.0168,0.0504,0.1006,0.1891,0.3209,0.5134,0.7093,0.8715,0.9607,1.0167,1.0864,1.1949,1.2536,1.3348,1.4818,1.5203,1.5605,1.638,1.6515,1.6331,1.5958,1.572,1.5448,1.5056,1.4463,1.4283,1.4658,1.3548,1.3019,1.3448,1.3496,1.358,1.3804,1.44,1.5017,1.5588,1.4812,1.4302,1.4048,1.32,1.1909,0.0,0.0,0.0,0.0,0.0,0.0,0.0,0.0,0.0,0.0,0.0,0.0,0.0,0.0,0.0,0.0,0.0,0.0,0.0,0.0,0.0,0.0,0.0,0.0,0.0,0.0,0.0,0.0,0.0,0.0,-1.1175,-1.0568,-1.0052,-0.9622,-0.8861,-0.808,-0.7321,-0.7108,-0.6979,-0.6979,-0.6979,-0.6979,-0.6979,-0.6979,-0.6979,-0.6979,-0.6979,-0.7134,-0.7351,-0.7762,-0.7926,-0.7841,-0.6731,-0.6198,-0.5835,-0.4301,-0.3721,-0.3659,-0.3154,-0.2853,-0.264,-0.2211,-0.1952,-0.1729,-0.1346,-0.1212,-0.1075,-0.0457,-0.0308,-0.026,-0.0054,0.0,0.0112,0.0615,0.1558,0.2604,0.376,0.5567,0.7368,0.8813,0.9284,0.9839,1.1212,1.1855,1.2725,1.4457,1.488,1.5287,1.6101,1.6194,1.5964,1.5365,1.5141,1.4818,1.4422,1.3826,1.3537,1.3742,1.2536,1.2007,1.2453,1.202,1.1992,1.2435,1.2594,1.2984,1.361,1.3747,1.3558,1.3037,1.1675,0.9494,0.0,0.0,0.0,0.0,0.0,0.0,0.0,0.0,0.0,0.0,0.0,0.0,0.0,0.0,0.0,0.0,0.0,0.0,0.0,0.0,0.0,0.0,0.0,0.0,0.0,0.0,0.0,0.0,-1.1315,-1.0797,-1.0317,-0.9799,-0.9279,-0.876,-0.872,-0.8439,-0.7916,-0.7318,-0.6979,-0.6979,-0.6979,-0.6979,-0.6979,-0.6979,-0.6979,-0.6979,-0.6979,-0.6979,-0.7025,-0.7623,-0.7523,-0.696,-0.6395,-0.5831,-0.5185,-0.4016,-0.358,-0.358,-0.358,-0.3216,-0.2717,-0.2717,-0.2317,-0.183,-0.1829,-0.1829,-0.1711,-0.1082,-0.0952,-0.0777,-0.0209,0.0,0.0,0.0,0.0559,0.1449,0.2932,0.4351,0.5831,0.7388,0.8227,0.9096,1.0505,1.1841,1.3153,1.4457,1.5141,1.5537,1.5582,1.5582,1.532,1.4749,1.4149,1.3774,1.3774,1.3243,1.2608,1.1864,1.1814,1.1774,1.1697,1.0418,1.0311,1.1568,0.9672,0.9002,0.9561,1.2349,1.2981,1.1657,1.0132,0.6391,-1.5398,0.0,0.0,0.0,0.0,0.0,0.0,0.0,0.0,0.0,0.0,0.0,0.0,0.0,0.0,0.0,0.0,0.0,0.0,0.0,0.0,0.0,0.0,0.0,0.0,0.0,0.0,0.0,-1.0988,-1.0428,-1.0322,-1.0162,-0.9839,-0.9279,-0.8918,-0.8439,-0.7916,-0.7318,-0.6979,-0.6979,-0.6979,-0.6979,-0.6979,-0.6979,-0.6979,-0.6979,-0.6979,-0.6979,-0.7051,-0.7438,-0.7495,-0.727,-0.6229,-0.5741,-0.5433,-0.4103,-0.358,-0.358,-0.358,-0.3488,-0.3352,-0.3352,-0.3217,-0.3038,-0.2587,-0.2451,-0.2338,-0.1736,-0.16,-0.1563,-0.0975,-0.0389,0.0,0.0,0.0165,0.0556,0.1511,0.2457,0.3877,0.6411,0.7495,0.8231,0.9152,1.043,1.1792,1.311,1.3883,1.4463,1.4875,1.4971,1.4744,1.4097,1.3909,1.3642,1.32,1.3022,1.2608,1.1864,1.1814,1.1149,0.9611,0.964,0.9409,0.8768,0.8716,0.8764,0.8954,1.0206,1.039,0.9496,0.6987,0.3831,0.0,0.0,0.0,0.0,0.0,0.0,-1.6724,-1.6449,0.0,0.0,0.0,0.0,0.0,0.0,0.0,0.0,0.0,0.0,0.0,0.0,0.0,0.0,0.0,0.0,0.0,-1.2413,-1.17,-1.1473,-1.0731,-1.0283,-1.0283,-1.0283,-1.004,-0.9518,-0.8999,-0.8439,-0.7916,-0.7318,-0.6979,-0.6979,-0.6979,-0.6979,-0.6979,-0.6979,-0.6979,-0.6979,-0.6979,-0.6979,-0.6995,-0.7211,-0.7281,-0.7204,-0.6375,-0.5853,-0.539,-0.4306,-0.3796,-0.3624,-0.3836,-0.3921,-0.3966,-0.4228,-0.414,-0.3875,-0.3512,-0.3249,-0.296,-0.2342,-0.1857,-0.1446,-0.111,-0.0488,-0.0055,-0.0321,-0.0164,0.0111,0.063,0.1241,0.2504,0.5146,0.63,0.7106,0.8091,0.9193,1.0367,1.1729,1.2493,1.3047,1.3423,1.3726,1.3548,1.2633,1.2788,1.2706,1.2098,1.1999,1.1737,1.1015,1.0691,0.9963,0.8731,0.7896,0.7242,0.6671,0.6221,0.6156,0.6473,0.8657,0.8878,0.7289,0.5302,0.2178,0.0,0.0,0.0,0.0,0.0,0.0,-1.3913,-1.383,-1.4091,0.0,0.0,0.0,0.0,0.0,0.0,0.0,0.0,0.0,0.0,0.0,0.0,0.0,0.0,0.0,-1.2603,-1.2029,-1.151,-1.1057,-1.05,-1.0201,-1.0201,-1.0157,-0.9922,-0.9439,-0.8878,-0.8398,-0.7916,-0.7318,-0.6979,-0.6979,-0.6979,-0.6979,-0.6979,-0.6979,-0.6979,-0.6979,-0.6979,-0.6979,-0.6979,-0.6979,-0.6979,-0.6963,-0.6606,-0.5972,-0.5219,-0.4565,-0.4051,-0.3751,-0.4218,-0.4432,-0.4607,-0.513,-0.4911,-0.4389,-0.4389,-0.4007,-0.3491,-0.296,-0.1938,-0.1009,-0.1003,-0.052,-0.016,-0.0742,-0.0436,0.0,0.0051,0.0634,0.1719,0.3746,0.479,0.577,0.7091,0.8044,0.8978,1.0288,1.1072,1.15,1.1608,1.2167,1.2083,1.0801,1.1262,1.1412,1.0758,1.0704,1.0407,0.9703,0.8989,0.8452,0.8246,0.5766,0.4574,0.5043,0.3158,0.2558,0.3318,0.7106,0.7626,0.5004,0.4434,0.1088,0.0,0.0,0.0,0.0,0.0,0.0,-1.3834,-1.3397,-1.3398,0.0,0.0,0.0,0.0,0.0,0.0,0.0,0.0,0.0,0.0,0.0,0.0,0.0,0.0,0.0,-1.2567,-1.1684,-1.1126,-1.1019,-1.0176,-0.9642,-0.9642,-0.9239,-0.8958,-0.8878,-0.8316,-0.7998,-0.7916,-0.7318,-0.6979,-0.6979,-0.6979,-0.6979,-0.6979,-0.6979,-0.6979,-0.6979,-0.6979,-0.6979,-0.6979,-0.6979,-0.6979,-0.6901,-0.5918,-0.5433,-0.5178,-0.414,-0.3965,-0.4262,-0.4345,-0.4737,-0.513,-0.5262,-0.4911,-0.4389,-0.4389,-0.4007,-0.3604,-0.3576,-0.2637,-0.1641,-0.1758,-0.0899,-0.0159,-0.077,-0.0429,-0.0109,-0.0591,0.0255,0.1392,0.2404,0.3622,0.4733,0.5579,0.6797,0.7977,0.8934,0.968,1.03,1.0897,1.1107,1.0839,0.9999,1.0535,1.0691,0.9999,0.9893,0.9644,0.8947,0.8179,0.6998,0.5285,0.4665,0.3849,0.2831,0.2395,0.2558,0.3318,0.4125,0.3954,0.2811,0.2704,0.011,0.0,0.0,0.0,-1.3667,0.0,0.0,0.0,-1.1608,-1.1807,-1.3961,0.0,0.0,0.0,0.0,0.0,0.0,0.0,0.0,0.0,0.0,0.0,0.0,0.0,0.0,-1.2204,-1.1223,-1.0384,-0.9889,-0.939,-0.9119,-0.9119,-0.8841,-0.8557,-0.832,-0.8036,-0.7746,-0.7447,-0.715,-0.6951,-0.681,-0.6954,-0.6947,-0.6814,-0.6957,-0.6979,-0.6979,-0.6979,-0.6979,-0.6979,-0.6979,-0.6979,-0.6937,-0.6084,-0.5567,-0.5176,-0.431,-0.4008,-0.4094,-0.4655,-0.5043,-0.5348,-0.5655,-0.5348,-0.4781,-0.4476,-0.4007,-0.3593,-0.3666,-0.2761,-0.1821,-0.1883,-0.0957,-0.0252,-0.1209,-0.0998,-0.0799,-0.1697,-0.0906,0.021,0.096,0.2184,0.3486,0.4691,0.5763,0.6576,0.7012,0.7717,0.8301,0.8678,0.8978,0.8919,0.8246,0.8763,0.8746,0.7723,0.7615,0.7292,0.6605,0.5483,0.4407,0.3357,0.2196,0.1268,0.0557,0.0558,0.0891,0.1668,0.1668,0.1832,0.2213,0.2213,-0.0328,0.0,0.0,0.0,0.0,0.0,-1.2161,0.0,0.0,0.0,-1.2354,0.0,0.0,0.0,0.0,0.0,0.0,0.0,0.0,0.0,0.0,0.0,0.0,0.0,0.0,-1.1625,-1.0509,-0.9474,-0.8574,-0.8484,-0.8436,-0.8378,-0.8386,-0.8185,-0.7746,-0.7746,-0.7492,-0.7021,-0.6979,-0.6904,-0.6677,-0.6911,-0.6901,-0.668,-0.6914,-0.6979,-0.6979,-0.6979,-0.6979,-0.6979,-0.6979,-0.6979,-0.6937,-0.6304,-0.5741,-0.5219,-0.4522,-0.4051,-0.388,-0.4785,-0.5216,-0.5392,-0.5873,-0.5612,-0.5002,-0.4437,-0.3922,-0.358,-0.3444,-0.2739,-0.196,-0.1711,-0.0919,-0.0491,-0.1717,-0.1515,-0.1416,-0.2656,-0.1964,-0.0882,-0.0096,0.0984,0.2329,0.3941,0.4792,0.5287,0.5481,0.5982,0.6364,0.6411,0.6868,0.686,0.6077,0.6589,0.6462,0.5169,0.5062,0.4781,0.4007,0.2467,0.1425,0.1148,-0.0714,-0.177,-0.1942,-0.167,-0.1282,-0.0837,-0.0837,-0.0111,0.1381,0.1661,-0.0929,0.0,0.0,0.0,0.0,-1.2795,0.0,0.0,0.0,-1.0273,-1.1651,0.0,0.0,0.0,0.0,0.0,0.0,0.0,0.0,0.0,0.0,0.0,0.0,0.0,0.0,0.0,-0.929,-0.8261,-0.7941,-0.7668,-0.7444,-0.7224,-0.7179,-0.7143,-0.7105,-0.7108,-0.7066,-0.7021,-0.6979,-0.7004,-0.6971,-0.6965,-0.7004,-0.6974,-0.6965,-0.6979,-0.6979,-0.6979,-0.6979,-0.6979,-0.6979,-0.6979,-0.6894,-0.5822,-0.5351,-0.5176,-0.4098,-0.3966,-0.4347,-0.4476,-0.4867,-0.5305,-0.5392,-0.5,-0.4391,-0.3838,-0.3667,-0.3488,-0.2944,-0.2792,-0.2519,-0.1288,-0.0974,-0.1155,-0.1846,-0.1518,-0.1405,-0.2623,-0.1964,-0.0831,0.0,0.0754,0.1639,0.3038,0.3844,0.4628,0.541,0.5597,0.564,0.5617,0.5718,0.5225,0.3812,0.4344,0.445,0.3645,0.3535,0.3253,0.2471,0.0439,-0.1259,-0.2548,-0.3433,-0.4259,-0.49,-0.3685,-0.3313,-0.3902,-0.3902,-0.3137,-0.1659,-0.0334,-0.2473,0.0,0.0,0.0,0.0,0.0,0.0,-1.0998,0.0,-1.0718,0.0,0.0,0.0,0.0,0.0,0.0,0.0,-1.1,0.0,0.0,0.0,0.0,0.0,0.0,0.0,0.0,0.0,0.0,-0.6973,-0.6965,-0.7001,-0.7069,-0.6719,-0.6686,-0.6979,-0.6979,-0.6979,-0.6979,-0.6979,-0.6937,-0.6774,-0.6944,-0.6934,-0.6777,-0.6947,-0.6979,-0.6979,-0.6979,-0.6979,-0.6979,-0.6979,-0.6979,-0.6891,-0.5733,-0.5305,-0.5176,-0.4014,-0.3753,-0.3965,-0.4306,-0.4563,-0.4783,-0.4783,-0.4395,-0.388,-0.3665,-0.358,-0.3552,-0.3397,-0.3133,-0.2775,-0.2289,-0.1983,-0.1913,-0.2584,-0.2571,-0.2659,-0.3385,-0.2865,-0.2138,-0.1675,-0.0402,0.0729,0.1245,0.229,0.318,0.3549,0.4001,0.411,0.3655,0.3986,0.3824,0.2777,0.2938,0.2827,0.2112,0.1609,0.0884,-0.0275,-0.2783,-0.4879,-0.6283,-0.6979,-0.7295,-0.7217,-0.66,-0.6087,-0.5573,-0.5167,-0.5276,-0.5894,-0.3982,-0.4942,-1.616,0.0,0.0,0.0,0.0,0.0,0.0,0.0,0.0,0.0,0.0,0.0,0.0,0.0,0.0,-1.0469,0.0,-1.066,0.0,0.0,0.0,0.0,0.0,0.0,0.0,0.0,0.0,-0.6323,-0.6501,-0.6688,-0.6674,-0.646,-0.6487,-0.6768,-0.694,-0.6979,-0.6979,-0.6979,-0.6917,-0.671,-0.6921,-0.6911,-0.6717,-0.6924,-0.6979,-0.6979,-0.6979,-0.6979,-0.6979,-0.6979,-0.6894,-0.6683,-0.5693,-0.5216,-0.4913,-0.397,-0.358,-0.3667,-0.4051,-0.4176,-0.4176,-0.4176,-0.3922,-0.358,-0.358,-0.358,-0.36,-0.3515,-0.3336,-0.311,-0.2837,-0.2636,-0.257,-0.3106,-0.3284,-0.3453,-0.3849,-0.349,-0.3006,-0.2923,-0.1556,-0.0363,-0.0327,0.1107,0.2175,0.2175,0.2676,0.2788,0.2008,0.2341,0.2398,0.1675,0.1618,0.1284,0.0559,-0.0167,-0.1492,-0.3568,-0.6183,-0.8294,-0.9678,-1.0162,-1.0276,-0.9922,-0.9554,-0.8849,-0.7847,-0.7717,-0.8344,-0.9632,-0.7045,-0.7356,0.0,0.0,0.0,-1.5758,0.0,0.0,0.0,0.0,-1.1541,0.0,0.0,0.0,0.0,0.0,-1.2184,-1.1055,-1.0674,0.0,0.0,0.0,0.0,0.0,0.0,0.0,0.0,-0.736,-0.6715,-0.6318,-0.6501,-0.6311,-0.5602,-0.6267,-0.6538,-0.6215,-0.6729,-0.6979,-0.6979,-0.6979,-0.6975,-0.7007,-0.6975,-0.6975,-0.7007,-0.6975,-0.6979,-0.6979,-0.6979,-0.6979,-0.6979,-0.6979,-0.6683,-0.6179,-0.5526,-0.4957,-0.4347,-0.3794,-0.358,-0.358,-0.3624,-0.3624,-0.3624,-0.3624,-0.3622,-0.358,-0.358,-0.358,-0.349,-0.2903,-0.3218,-0.3491,-0.234,-0.2531,-0.3075,-0.3077,-0.3131,-0.3226,-0.3718,-0.3327,-0.2881,-0.2919,-0.2373,-0.1751,-0.1169,0.0763,0.2175,0.2175,0.2231,0.1953,0.1229,0.1173,0.0895,0.0168,0.0056,-0.0224,-0.095,-0.1722,-0.3621,-0.7222,-0.9391,-1.12,-1.2609,-1.2551,-1.2817,-1.3533,-1.2196,-1.1518,-1.1536,-1.2701,-1.2938,-1.2311,-0.8707,-0.9354,0.0,0.0,-1.8105,-1.5194,0.0,0.0,0.0,0.0,0.0,0.0,0.0,0.0,0.0,0.0,-1.2877,-1.1687,-1.1749,-1.1308,0.0,0.0,0.0,0.0,0.0,0.0,0.0,0.0,0.0,-0.6061,-0.6056,-0.6037,-0.5851,-0.5637,-0.5701,-0.6176,-0.6392,-0.6644,-0.6979,-0.6979,-0.6979,-0.6979,-0.6979,-0.6979,-0.6979,-0.6979,-0.6979,-0.6979,-0.6979,-0.6979,-0.6979,-0.6601,-0.6349,-0.6093,-0.5089,-0.4563,-0.4347,-0.3796,-0.358,-0.358,-0.358,-0.358,-0.358,-0.358,-0.358,-0.358,-0.358,-0.358,-0.3598,-0.3457,-0.361,-0.3731,-0.3382,-0.3565,-0.3822,-0.3822,-0.3822,-0.3825,-0.3937,-0.3709,-0.3543,-0.3588,-0.3068,-0.2598,-0.2556,-0.1546,-0.0557,-0.0056,0.0446,0.0501,-0.0279,0.0503,0.0839,0.0056,0.0,-0.028,-0.1062,-0.352,-0.5998,-0.8171,-1.0714,-1.2479,-1.337,-1.4512,-1.5236,-1.5466,-1.538,-1.5107,-1.4743,-1.4719,-1.4796,-1.5013,-1.4092,-1.4021,-1.7176,-1.7915,0.0,-1.5639,-1.6143,0.0,-1.5149,0.0,0.0,0.0,0.0,0.0,0.0,0.0,-1.3488,-1.2167,-1.2185,-1.1665,0.0,-0.8672,0.0,0.0,0.0,0.0,0.0,0.0,-0.7144,-0.6126,-0.6072,-0.5983,-0.567,-0.5503,-0.5564,-0.5862,-0.6261,-0.6771,-0.7321,-0.7105,-0.7105,-0.7318,-0.7108,-0.6979,-0.6979,-0.6979,-0.6979,-0.6979,-0.6979,-0.6979,-0.694,-0.6435,-0.6093,-0.5784,-0.4781,-0.4303,-0.4092,-0.3707,-0.358,-0.358,-0.358,-0.358,-0.358,-0.358,-0.358,-0.358,-0.358,-0.358,-0.361,-0.3751,-0.3754,-0.3775,-0.4034,-0.4083,-0.413,-0.4184,-0.4153,-0.4088,-0.4041,-0.386,-0.3777,-0.3982,-0.3616,-0.3275,-0.3255,-0.3098,-0.2675,-0.1619,-0.1115,-0.0947,-0.1451,-0.0447,0.0056,-0.0727,-0.056,-0.1004,-0.2552,-0.5257,-0.7623,-0.9349,-1.1747,-1.3507,-1.4328,-1.5867,-1.6815,-1.7011,-1.7328,-1.7206,-1.6616,-1.661,-1.6692,-1.6922,-1.7629,-1.7588]}]]